<?xml version="1.0" encoding="UTF-8" standalone="no" ?>
<gpx xmlns="http://www.topografix.com/GPX/1/1" xmlns:xsi="http://www.w3.org/2001/XMLSchema-instance" xsi:schemaLocation="http://www.topografix.com/GPX/1/1 http://www.topografix.com/GPX/1/1/gpx.xsd" version="1.1" creator="VisuGPX - https://www.visugpx.com">
  <metadata>
    <name>Revel-chamrousse </name>
    <desc><![CDATA[File with points/tracks from Locus Map/3.47.2]]></desc>
  </metadata>
  <trk>
    <name><![CDATA[2020-08-01 09:24:11]]></name>
    <desc><![CDATA[Chamrou]]></desc>
    <extensions>
      <line xmlns="http://www.topografix.com/GPX/gpx_style/0/2">
        <color>0000FF</color>
        <opacity>0.59</opacity>
        <width>6.0</width>
      </line>
    </extensions>
    <trkseg>
      <trkpt lat="45.17213" lon="5.87953">
        <ele>847.74</ele>
        <time>2020-08-01T07:24:31.000Z</time>
      </trkpt>
      <trkpt lat="45.17219" lon="5.87929">
        <ele>839.59</ele>
        <time>2020-08-01T07:24:36.000Z</time>
      </trkpt>
      <trkpt lat="45.17228" lon="5.87906">
        <ele>833.79</ele>
        <time>2020-08-01T07:24:41.000Z</time>
      </trkpt>
      <trkpt lat="45.17241" lon="5.87889">
        <ele>833.8</ele>
        <time>2020-08-01T07:24:46.000Z</time>
      </trkpt>
      <trkpt lat="45.17254" lon="5.87869">
        <ele>832.78</ele>
        <time>2020-08-01T07:24:51.000Z</time>
      </trkpt>
      <trkpt lat="45.17264" lon="5.8784">
        <ele>835.77</ele>
        <time>2020-08-01T07:24:56.000Z</time>
      </trkpt>
      <trkpt lat="45.17286" lon="5.87813">
        <ele>836.29</ele>
        <time>2020-08-01T07:25:01.000Z</time>
      </trkpt>
      <trkpt lat="45.17308" lon="5.8778">
        <ele>840.58</ele>
        <time>2020-08-01T07:25:06.000Z</time>
      </trkpt>
      <trkpt lat="45.17327" lon="5.87749">
        <ele>843.61</ele>
        <time>2020-08-01T07:25:11.000Z</time>
      </trkpt>
      <trkpt lat="45.17346" lon="5.87709">
        <ele>843.83</ele>
        <time>2020-08-01T07:25:16.000Z</time>
      </trkpt>
      <trkpt lat="45.17357" lon="5.8768">
        <ele>845.04</ele>
        <time>2020-08-01T07:25:21.000Z</time>
      </trkpt>
      <trkpt lat="45.1737" lon="5.87654">
        <ele>845.12</ele>
        <time>2020-08-01T07:25:26.000Z</time>
      </trkpt>
      <trkpt lat="45.17374" lon="5.87621">
        <ele>841.41</ele>
        <time>2020-08-01T07:25:31.000Z</time>
      </trkpt>
      <trkpt lat="45.17368" lon="5.87595">
        <ele>841.44</ele>
        <time>2020-08-01T07:25:36.000Z</time>
      </trkpt>
      <trkpt lat="45.17362" lon="5.87565">
        <ele>842.25</ele>
        <time>2020-08-01T07:25:41.000Z</time>
      </trkpt>
      <trkpt lat="45.17358" lon="5.87536">
        <ele>844.12</ele>
        <time>2020-08-01T07:25:46.000Z</time>
      </trkpt>
      <trkpt lat="45.17355" lon="5.8751">
        <ele>843</ele>
        <time>2020-08-01T07:25:51.000Z</time>
      </trkpt>
      <trkpt lat="45.17343" lon="5.87489">
        <ele>843.88</ele>
        <time>2020-08-01T07:25:56.000Z</time>
      </trkpt>
      <trkpt lat="45.17327" lon="5.87467">
        <ele>845.53</ele>
        <time>2020-08-01T07:26:01.000Z</time>
      </trkpt>
      <trkpt lat="45.17312" lon="5.8745">
        <ele>845.91</ele>
        <time>2020-08-01T07:26:06.000Z</time>
      </trkpt>
      <trkpt lat="45.17299" lon="5.87433">
        <ele>844.8</ele>
        <time>2020-08-01T07:26:11.000Z</time>
      </trkpt>
      <trkpt lat="45.17282" lon="5.87425">
        <ele>843.93</ele>
        <time>2020-08-01T07:26:16.000Z</time>
      </trkpt>
      <trkpt lat="45.17271" lon="5.87421">
        <ele>842.21</ele>
        <time>2020-08-01T07:26:21.000Z</time>
      </trkpt>
      <trkpt lat="45.17261" lon="5.87415">
        <ele>839.12</ele>
        <time>2020-08-01T07:26:26.000Z</time>
      </trkpt>
      <trkpt lat="45.17254" lon="5.87402">
        <ele>841.71</ele>
        <time>2020-08-01T07:26:31.000Z</time>
      </trkpt>
      <trkpt lat="45.17245" lon="5.87388">
        <ele>841.5</ele>
        <time>2020-08-01T07:26:36.000Z</time>
      </trkpt>
      <trkpt lat="45.17238" lon="5.87376">
        <ele>839.11</ele>
        <time>2020-08-01T07:26:41.000Z</time>
      </trkpt>
      <trkpt lat="45.17233" lon="5.87364">
        <ele>836.08</ele>
        <time>2020-08-01T07:26:46.000Z</time>
      </trkpt>
      <trkpt lat="45.17222" lon="5.87351">
        <ele>838.37</ele>
        <time>2020-08-01T07:26:51.000Z</time>
      </trkpt>
      <trkpt lat="45.1721" lon="5.8732">
        <ele>835.77</ele>
        <time>2020-08-01T07:26:56.000Z</time>
      </trkpt>
      <trkpt lat="45.17205" lon="5.87287">
        <ele>837.82</ele>
        <time>2020-08-01T07:27:01.000Z</time>
      </trkpt>
      <trkpt lat="45.17199" lon="5.87257">
        <ele>835.3</ele>
        <time>2020-08-01T07:27:06.000Z</time>
      </trkpt>
      <trkpt lat="45.1719" lon="5.87228">
        <ele>833.7</ele>
        <time>2020-08-01T07:27:11.000Z</time>
      </trkpt>
      <trkpt lat="45.17171" lon="5.87189">
        <ele>829.31</ele>
        <time>2020-08-01T07:27:16.000Z</time>
      </trkpt>
      <trkpt lat="45.1716" lon="5.87139">
        <ele>831.63</ele>
        <time>2020-08-01T07:27:21.000Z</time>
      </trkpt>
      <trkpt lat="45.17138" lon="5.87098">
        <ele>826.23</ele>
        <time>2020-08-01T07:27:26.000Z</time>
      </trkpt>
      <trkpt lat="45.17111" lon="5.87031">
        <ele>822.46</ele>
        <time>2020-08-01T07:27:31.000Z</time>
      </trkpt>
      <trkpt lat="45.17086" lon="5.8697">
        <ele>823.97</ele>
        <time>2020-08-01T07:27:36.000Z</time>
      </trkpt>
      <trkpt lat="45.17062" lon="5.8691">
        <ele>824.97</ele>
        <time>2020-08-01T07:27:41.000Z</time>
      </trkpt>
      <trkpt lat="45.17037" lon="5.86849">
        <ele>822.81</ele>
        <time>2020-08-01T07:27:46.000Z</time>
      </trkpt>
      <trkpt lat="45.17005" lon="5.86792">
        <ele>824.4</ele>
        <time>2020-08-01T07:27:51.000Z</time>
      </trkpt>
      <trkpt lat="45.1698" lon="5.86718">
        <ele>823.26</ele>
        <time>2020-08-01T07:27:56.000Z</time>
      </trkpt>
      <trkpt lat="45.1696" lon="5.86657">
        <ele>825.61</ele>
        <time>2020-08-01T07:28:01.000Z</time>
      </trkpt>
      <trkpt lat="45.16944" lon="5.86603">
        <ele>824.18</ele>
        <time>2020-08-01T07:28:06.000Z</time>
      </trkpt>
      <trkpt lat="45.16916" lon="5.86558">
        <ele>822.19</ele>
        <time>2020-08-01T07:28:11.000Z</time>
      </trkpt>
      <trkpt lat="45.16895" lon="5.86516">
        <ele>821.29</ele>
        <time>2020-08-01T07:28:16.000Z</time>
      </trkpt>
      <trkpt lat="45.16891" lon="5.86462">
        <ele>827.24</ele>
        <time>2020-08-01T07:28:21.000Z</time>
      </trkpt>
      <trkpt lat="45.1688" lon="5.86409">
        <ele>827.09</ele>
        <time>2020-08-01T07:28:26.000Z</time>
      </trkpt>
      <trkpt lat="45.16864" lon="5.86366">
        <ele>829.88</ele>
        <time>2020-08-01T07:28:31.000Z</time>
      </trkpt>
      <trkpt lat="45.16833" lon="5.86333">
        <ele>828.28</ele>
        <time>2020-08-01T07:28:36.000Z</time>
      </trkpt>
      <trkpt lat="45.16801" lon="5.86303">
        <ele>829.31</ele>
        <time>2020-08-01T07:28:41.000Z</time>
      </trkpt>
      <trkpt lat="45.16768" lon="5.86259">
        <ele>828.93</ele>
        <time>2020-08-01T07:28:46.000Z</time>
      </trkpt>
      <trkpt lat="45.16769" lon="5.86206">
        <ele>827.55</ele>
        <time>2020-08-01T07:28:51.000Z</time>
      </trkpt>
      <trkpt lat="45.16774" lon="5.86154">
        <ele>828.05</ele>
        <time>2020-08-01T07:28:56.000Z</time>
      </trkpt>
      <trkpt lat="45.16791" lon="5.86107">
        <ele>826.88</ele>
        <time>2020-08-01T07:29:01.000Z</time>
      </trkpt>
      <trkpt lat="45.1679" lon="5.86036">
        <ele>822.37</ele>
        <time>2020-08-01T07:29:06.000Z</time>
      </trkpt>
      <trkpt lat="45.16791" lon="5.85975">
        <ele>817.6</ele>
        <time>2020-08-01T07:29:11.000Z</time>
      </trkpt>
      <trkpt lat="45.1678" lon="5.85913">
        <ele>813.66</ele>
        <time>2020-08-01T07:29:16.000Z</time>
      </trkpt>
      <trkpt lat="45.1676" lon="5.85853">
        <ele>808.76</ele>
        <time>2020-08-01T07:29:21.000Z</time>
      </trkpt>
      <trkpt lat="45.16747" lon="5.85782">
        <ele>806.92</ele>
        <time>2020-08-01T07:29:26.000Z</time>
      </trkpt>
      <trkpt lat="45.16756" lon="5.85711">
        <ele>803.47</ele>
        <time>2020-08-01T07:29:31.000Z</time>
      </trkpt>
      <trkpt lat="45.16756" lon="5.85638">
        <ele>803.78</ele>
        <time>2020-08-01T07:29:36.000Z</time>
      </trkpt>
      <trkpt lat="45.16752" lon="5.85584">
        <ele>806.18</ele>
        <time>2020-08-01T07:29:41.000Z</time>
      </trkpt>
      <trkpt lat="45.16738" lon="5.85522">
        <ele>807.96</ele>
        <time>2020-08-01T07:29:46.000Z</time>
      </trkpt>
      <trkpt lat="45.1672" lon="5.85462">
        <ele>804.41</ele>
        <time>2020-08-01T07:29:51.000Z</time>
      </trkpt>
      <trkpt lat="45.1671" lon="5.8541">
        <ele>802.96</ele>
        <time>2020-08-01T07:29:56.000Z</time>
      </trkpt>
      <trkpt lat="45.16705" lon="5.85373">
        <ele>800.77</ele>
        <time>2020-08-01T07:30:01.000Z</time>
      </trkpt>
      <trkpt lat="45.16685" lon="5.85337">
        <ele>797.22</ele>
        <time>2020-08-01T07:30:06.000Z</time>
      </trkpt>
      <trkpt lat="45.16675" lon="5.85312">
        <ele>798.67</ele>
        <time>2020-08-01T07:30:11.000Z</time>
      </trkpt>
      <trkpt lat="45.16656" lon="5.85281">
        <ele>800.64</ele>
        <time>2020-08-01T07:30:16.000Z</time>
      </trkpt>
      <trkpt lat="45.16643" lon="5.85256">
        <ele>803.21</ele>
        <time>2020-08-01T07:30:21.000Z</time>
      </trkpt>
      <trkpt lat="45.16629" lon="5.85229">
        <ele>804.71</ele>
        <time>2020-08-01T07:30:26.000Z</time>
      </trkpt>
      <trkpt lat="45.16613" lon="5.85203">
        <ele>804.6</ele>
        <time>2020-08-01T07:30:31.000Z</time>
      </trkpt>
      <trkpt lat="45.16601" lon="5.85179">
        <ele>802.98</ele>
        <time>2020-08-01T07:30:36.000Z</time>
      </trkpt>
      <trkpt lat="45.16588" lon="5.85154">
        <ele>802.88</ele>
        <time>2020-08-01T07:30:41.000Z</time>
      </trkpt>
      <trkpt lat="45.1658" lon="5.85129">
        <ele>804.62</ele>
        <time>2020-08-01T07:30:46.000Z</time>
      </trkpt>
      <trkpt lat="45.16569" lon="5.851">
        <ele>800.69</ele>
        <time>2020-08-01T07:30:51.000Z</time>
      </trkpt>
      <trkpt lat="45.16558" lon="5.85072">
        <ele>802.01</ele>
        <time>2020-08-01T07:30:56.000Z</time>
      </trkpt>
      <trkpt lat="45.16553" lon="5.85043">
        <ele>805.38</ele>
        <time>2020-08-01T07:31:01.000Z</time>
      </trkpt>
      <trkpt lat="45.16555" lon="5.85008">
        <ele>805.93</ele>
        <time>2020-08-01T07:31:06.000Z</time>
      </trkpt>
      <trkpt lat="45.16549" lon="5.84973">
        <ele>808.95</ele>
        <time>2020-08-01T07:31:11.000Z</time>
      </trkpt>
      <trkpt lat="45.16529" lon="5.8496">
        <ele>809.63</ele>
        <time>2020-08-01T07:31:16.000Z</time>
      </trkpt>
      <trkpt lat="45.16516" lon="5.84997">
        <ele>807.13</ele>
        <time>2020-08-01T07:31:21.000Z</time>
      </trkpt>
      <trkpt lat="45.165" lon="5.85029">
        <ele>810.14</ele>
        <time>2020-08-01T07:31:26.000Z</time>
      </trkpt>
      <trkpt lat="45.16497" lon="5.85057">
        <ele>811.02</ele>
        <time>2020-08-01T07:31:31.000Z</time>
      </trkpt>
      <trkpt lat="45.16491" lon="5.8508">
        <ele>815.87</ele>
        <time>2020-08-01T07:31:36.000Z</time>
      </trkpt>
      <trkpt lat="45.16485" lon="5.85101">
        <ele>817.02</ele>
        <time>2020-08-01T07:31:41.000Z</time>
      </trkpt>
      <trkpt lat="45.16478" lon="5.8512">
        <ele>817.09</ele>
        <time>2020-08-01T07:31:46.000Z</time>
      </trkpt>
      <trkpt lat="45.16478" lon="5.85142">
        <ele>817.14</ele>
        <time>2020-08-01T07:31:51.000Z</time>
      </trkpt>
      <trkpt lat="45.16477" lon="5.85163">
        <ele>818.73</ele>
        <time>2020-08-01T07:31:56.000Z</time>
      </trkpt>
      <trkpt lat="45.16478" lon="5.85186">
        <ele>818.12</ele>
        <time>2020-08-01T07:32:01.000Z</time>
      </trkpt>
      <trkpt lat="45.16479" lon="5.85208">
        <ele>818.74</ele>
        <time>2020-08-01T07:32:06.000Z</time>
      </trkpt>
      <trkpt lat="45.1648" lon="5.85229">
        <ele>817.93</ele>
        <time>2020-08-01T07:32:11.000Z</time>
      </trkpt>
      <trkpt lat="45.16481" lon="5.85256">
        <ele>817.38</ele>
        <time>2020-08-01T07:32:16.000Z</time>
      </trkpt>
      <trkpt lat="45.16484" lon="5.85276">
        <ele>817.23</ele>
        <time>2020-08-01T07:32:21.000Z</time>
      </trkpt>
      <trkpt lat="45.16482" lon="5.85308">
        <ele>818.28</ele>
        <time>2020-08-01T07:32:26.000Z</time>
      </trkpt>
      <trkpt lat="45.16474" lon="5.85335">
        <ele>821.28</ele>
        <time>2020-08-01T07:32:31.000Z</time>
      </trkpt>
      <trkpt lat="45.16469" lon="5.85357">
        <ele>822.35</ele>
        <time>2020-08-01T07:32:36.000Z</time>
      </trkpt>
      <trkpt lat="45.1647" lon="5.85396">
        <ele>827.29</ele>
        <time>2020-08-01T07:32:41.000Z</time>
      </trkpt>
      <trkpt lat="45.16474" lon="5.85423">
        <ele>828.29</ele>
        <time>2020-08-01T07:32:46.000Z</time>
      </trkpt>
      <trkpt lat="45.16482" lon="5.8545">
        <ele>827.58</ele>
        <time>2020-08-01T07:32:51.000Z</time>
      </trkpt>
      <trkpt lat="45.16492" lon="5.85483">
        <ele>827.82</ele>
        <time>2020-08-01T07:32:56.000Z</time>
      </trkpt>
      <trkpt lat="45.16502" lon="5.8552">
        <ele>831.01</ele>
        <time>2020-08-01T07:33:01.000Z</time>
      </trkpt>
      <trkpt lat="45.16517" lon="5.8554">
        <ele>829.22</ele>
        <time>2020-08-01T07:33:06.000Z</time>
      </trkpt>
      <trkpt lat="45.16534" lon="5.85568">
        <ele>822.87</ele>
        <time>2020-08-01T07:33:11.000Z</time>
      </trkpt>
      <trkpt lat="45.16541" lon="5.85601">
        <ele>828.86</ele>
        <time>2020-08-01T07:33:16.000Z</time>
      </trkpt>
      <trkpt lat="45.16548" lon="5.85636">
        <ele>831.35</ele>
        <time>2020-08-01T07:33:21.000Z</time>
      </trkpt>
      <trkpt lat="45.16557" lon="5.85668">
        <ele>833.64</ele>
        <time>2020-08-01T07:33:26.000Z</time>
      </trkpt>
      <trkpt lat="45.16562" lon="5.85696">
        <ele>834.08</ele>
        <time>2020-08-01T07:33:31.000Z</time>
      </trkpt>
      <trkpt lat="45.16568" lon="5.85725">
        <ele>834.35</ele>
        <time>2020-08-01T07:33:36.000Z</time>
      </trkpt>
      <trkpt lat="45.16575" lon="5.8575">
        <ele>834.61</ele>
        <time>2020-08-01T07:33:41.000Z</time>
      </trkpt>
      <trkpt lat="45.1658" lon="5.85773">
        <ele>835.7</ele>
        <time>2020-08-01T07:33:46.000Z</time>
      </trkpt>
      <trkpt lat="45.16584" lon="5.85795">
        <ele>835.73</ele>
        <time>2020-08-01T07:33:51.000Z</time>
      </trkpt>
      <trkpt lat="45.16586" lon="5.85816">
        <ele>835.46</ele>
        <time>2020-08-01T07:33:56.000Z</time>
      </trkpt>
      <trkpt lat="45.16594" lon="5.85839">
        <ele>839.23</ele>
        <time>2020-08-01T07:34:01.000Z</time>
      </trkpt>
      <trkpt lat="45.16602" lon="5.85861">
        <ele>842.9</ele>
        <time>2020-08-01T07:34:06.000Z</time>
      </trkpt>
      <trkpt lat="45.1661" lon="5.85881">
        <ele>842.36</ele>
        <time>2020-08-01T07:34:11.000Z</time>
      </trkpt>
      <trkpt lat="45.16616" lon="5.85902">
        <ele>844.23</ele>
        <time>2020-08-01T07:34:16.000Z</time>
      </trkpt>
      <trkpt lat="45.16622" lon="5.85922">
        <ele>846.71</ele>
        <time>2020-08-01T07:34:21.000Z</time>
      </trkpt>
      <trkpt lat="45.16627" lon="5.85942">
        <ele>849.37</ele>
        <time>2020-08-01T07:34:26.000Z</time>
      </trkpt>
      <trkpt lat="45.16631" lon="5.85967">
        <ele>850.12</ele>
        <time>2020-08-01T07:34:31.000Z</time>
      </trkpt>
      <trkpt lat="45.16629" lon="5.85993">
        <ele>852.56</ele>
        <time>2020-08-01T07:34:36.000Z</time>
      </trkpt>
      <trkpt lat="45.16625" lon="5.86016">
        <ele>853.19</ele>
        <time>2020-08-01T07:34:41.000Z</time>
      </trkpt>
      <trkpt lat="45.16623" lon="5.86039">
        <ele>853.75</ele>
        <time>2020-08-01T07:34:46.000Z</time>
      </trkpt>
      <trkpt lat="45.16621" lon="5.86056">
        <ele>856.11</ele>
        <time>2020-08-01T07:34:51.000Z</time>
      </trkpt>
      <trkpt lat="45.16616" lon="5.86075">
        <ele>854.64</ele>
        <time>2020-08-01T07:34:56.000Z</time>
      </trkpt>
      <trkpt lat="45.16609" lon="5.86095">
        <ele>853.18</ele>
        <time>2020-08-01T07:35:01.000Z</time>
      </trkpt>
      <trkpt lat="45.16602" lon="5.8612">
        <ele>851.03</ele>
        <time>2020-08-01T07:35:06.000Z</time>
      </trkpt>
      <trkpt lat="45.16595" lon="5.86143">
        <ele>849.94</ele>
        <time>2020-08-01T07:35:11.000Z</time>
      </trkpt>
      <trkpt lat="45.1659" lon="5.86162">
        <ele>850.35</ele>
        <time>2020-08-01T07:35:16.000Z</time>
      </trkpt>
      <trkpt lat="45.16582" lon="5.86185">
        <ele>847.45</ele>
        <time>2020-08-01T07:35:21.000Z</time>
      </trkpt>
      <trkpt lat="45.1657" lon="5.8621">
        <ele>847.08</ele>
        <time>2020-08-01T07:35:26.000Z</time>
      </trkpt>
      <trkpt lat="45.16554" lon="5.86232">
        <ele>850.3</ele>
        <time>2020-08-01T07:35:31.000Z</time>
      </trkpt>
      <trkpt lat="45.16553" lon="5.86251">
        <ele>854.07</ele>
        <time>2020-08-01T07:35:36.000Z</time>
      </trkpt>
      <trkpt lat="45.16548" lon="5.86273">
        <ele>855.96</ele>
        <time>2020-08-01T07:35:41.000Z</time>
      </trkpt>
      <trkpt lat="45.16548" lon="5.86288">
        <ele>861.61</ele>
        <time>2020-08-01T07:35:46.000Z</time>
      </trkpt>
      <trkpt lat="45.16548" lon="5.86307">
        <ele>864.15</ele>
        <time>2020-08-01T07:35:51.000Z</time>
      </trkpt>
      <trkpt lat="45.1654" lon="5.86332">
        <ele>867.01</ele>
        <time>2020-08-01T07:35:56.000Z</time>
      </trkpt>
      <trkpt lat="45.16541" lon="5.86348">
        <ele>866.93</ele>
        <time>2020-08-01T07:36:01.000Z</time>
      </trkpt>
      <trkpt lat="45.16542" lon="5.86372">
        <ele>868.12</ele>
        <time>2020-08-01T07:36:06.000Z</time>
      </trkpt>
      <trkpt lat="45.16547" lon="5.86396">
        <ele>867.86</ele>
        <time>2020-08-01T07:36:11.000Z</time>
      </trkpt>
      <trkpt lat="45.16548" lon="5.86419">
        <ele>868.27</ele>
        <time>2020-08-01T07:36:16.000Z</time>
      </trkpt>
      <trkpt lat="45.16555" lon="5.86442">
        <ele>869.25</ele>
        <time>2020-08-01T07:36:21.000Z</time>
      </trkpt>
      <trkpt lat="45.16557" lon="5.86465">
        <ele>870.83</ele>
        <time>2020-08-01T07:36:26.000Z</time>
      </trkpt>
      <trkpt lat="45.16559" lon="5.86481">
        <ele>868.93</ele>
        <time>2020-08-01T07:36:31.000Z</time>
      </trkpt>
      <trkpt lat="45.16555" lon="5.8651">
        <ele>870.52</ele>
        <time>2020-08-01T07:36:36.000Z</time>
      </trkpt>
      <trkpt lat="45.16558" lon="5.8654">
        <ele>872.15</ele>
        <time>2020-08-01T07:36:41.000Z</time>
      </trkpt>
      <trkpt lat="45.16549" lon="5.8656">
        <ele>878.2</ele>
        <time>2020-08-01T07:36:46.000Z</time>
      </trkpt>
      <trkpt lat="45.16535" lon="5.86558">
        <ele>884.74</ele>
        <time>2020-08-01T07:36:51.000Z</time>
      </trkpt>
      <trkpt lat="45.16523" lon="5.86542">
        <ele>886.38</ele>
        <time>2020-08-01T07:36:56.000Z</time>
      </trkpt>
      <trkpt lat="45.16512" lon="5.86529">
        <ele>887.12</ele>
        <time>2020-08-01T07:37:01.000Z</time>
      </trkpt>
      <trkpt lat="45.165" lon="5.86523">
        <ele>891.03</ele>
        <time>2020-08-01T07:37:06.000Z</time>
      </trkpt>
      <trkpt lat="45.16484" lon="5.86513">
        <ele>892.19</ele>
        <time>2020-08-01T07:37:11.000Z</time>
      </trkpt>
      <trkpt lat="45.16468" lon="5.86499">
        <ele>895.31</ele>
        <time>2020-08-01T07:37:16.000Z</time>
      </trkpt>
      <trkpt lat="45.16458" lon="5.86517">
        <ele>897.42</ele>
        <time>2020-08-01T07:37:21.000Z</time>
      </trkpt>
      <trkpt lat="45.16456" lon="5.86544">
        <ele>903.37</ele>
        <time>2020-08-01T07:37:26.000Z</time>
      </trkpt>
      <trkpt lat="45.16459" lon="5.86564">
        <ele>904.9</ele>
        <time>2020-08-01T07:37:31.000Z</time>
      </trkpt>
      <trkpt lat="45.16463" lon="5.86584">
        <ele>906.64</ele>
        <time>2020-08-01T07:37:36.000Z</time>
      </trkpt>
      <trkpt lat="45.16472" lon="5.86604">
        <ele>905.38</ele>
        <time>2020-08-01T07:37:41.000Z</time>
      </trkpt>
      <trkpt lat="45.16481" lon="5.86624">
        <ele>908.39</ele>
        <time>2020-08-01T07:37:46.000Z</time>
      </trkpt>
      <trkpt lat="45.16485" lon="5.86641">
        <ele>909.58</ele>
        <time>2020-08-01T07:37:51.000Z</time>
      </trkpt>
      <trkpt lat="45.16492" lon="5.86655">
        <ele>911.29</ele>
        <time>2020-08-01T07:37:56.000Z</time>
      </trkpt>
      <trkpt lat="45.16495" lon="5.86669">
        <ele>912.34</ele>
        <time>2020-08-01T07:38:01.000Z</time>
      </trkpt>
      <trkpt lat="45.16507" lon="5.86686">
        <ele>915.96</ele>
        <time>2020-08-01T07:38:06.000Z</time>
      </trkpt>
      <trkpt lat="45.1652" lon="5.86708">
        <ele>920.06</ele>
        <time>2020-08-01T07:38:11.000Z</time>
      </trkpt>
      <trkpt lat="45.16535" lon="5.86723">
        <ele>918.89</ele>
        <time>2020-08-01T07:38:16.000Z</time>
      </trkpt>
      <trkpt lat="45.16551" lon="5.86745">
        <ele>916.31</ele>
        <time>2020-08-01T07:38:21.000Z</time>
      </trkpt>
      <trkpt lat="45.16563" lon="5.86772">
        <ele>915.29</ele>
        <time>2020-08-01T07:38:26.000Z</time>
      </trkpt>
      <trkpt lat="45.16574" lon="5.86801">
        <ele>915.94</ele>
        <time>2020-08-01T07:38:31.000Z</time>
      </trkpt>
      <trkpt lat="45.16583" lon="5.86825">
        <ele>917.12</ele>
        <time>2020-08-01T07:38:36.000Z</time>
      </trkpt>
      <trkpt lat="45.16586" lon="5.86847">
        <ele>922.46</ele>
        <time>2020-08-01T07:38:41.000Z</time>
      </trkpt>
      <trkpt lat="45.16589" lon="5.86868">
        <ele>926.75</ele>
        <time>2020-08-01T07:38:46.000Z</time>
      </trkpt>
      <trkpt lat="45.16599" lon="5.86889">
        <ele>927.65</ele>
        <time>2020-08-01T07:38:51.000Z</time>
      </trkpt>
      <trkpt lat="45.1661" lon="5.86908">
        <ele>929.76</ele>
        <time>2020-08-01T07:38:56.000Z</time>
      </trkpt>
      <trkpt lat="45.16618" lon="5.86928">
        <ele>930.97</ele>
        <time>2020-08-01T07:39:01.000Z</time>
      </trkpt>
      <trkpt lat="45.16626" lon="5.86949">
        <ele>932.68</ele>
        <time>2020-08-01T07:39:06.000Z</time>
      </trkpt>
      <trkpt lat="45.16632" lon="5.86975">
        <ele>933.22</ele>
        <time>2020-08-01T07:39:11.000Z</time>
      </trkpt>
      <trkpt lat="45.1664" lon="5.86999">
        <ele>932.55</ele>
        <time>2020-08-01T07:39:16.000Z</time>
      </trkpt>
      <trkpt lat="45.16645" lon="5.87022">
        <ele>932.7</ele>
        <time>2020-08-01T07:39:21.000Z</time>
      </trkpt>
      <trkpt lat="45.1665" lon="5.87043">
        <ele>931.9</ele>
        <time>2020-08-01T07:39:26.000Z</time>
      </trkpt>
      <trkpt lat="45.16666" lon="5.8706">
        <ele>932.53</ele>
        <time>2020-08-01T07:39:31.000Z</time>
      </trkpt>
      <trkpt lat="45.16674" lon="5.87081">
        <ele>932.21</ele>
        <time>2020-08-01T07:39:36.000Z</time>
      </trkpt>
      <trkpt lat="45.16679" lon="5.87105">
        <ele>932.75</ele>
        <time>2020-08-01T07:39:41.000Z</time>
      </trkpt>
      <trkpt lat="45.16681" lon="5.87132">
        <ele>935.98</ele>
        <time>2020-08-01T07:39:46.000Z</time>
      </trkpt>
      <trkpt lat="45.16683" lon="5.8716">
        <ele>938.28</ele>
        <time>2020-08-01T07:39:51.000Z</time>
      </trkpt>
      <trkpt lat="45.1669" lon="5.87182">
        <ele>938.67</ele>
        <time>2020-08-01T07:39:56.000Z</time>
      </trkpt>
      <trkpt lat="45.16693" lon="5.87209">
        <ele>941.95</ele>
        <time>2020-08-01T07:40:01.000Z</time>
      </trkpt>
      <trkpt lat="45.16698" lon="5.87233">
        <ele>943.53</ele>
        <time>2020-08-01T07:40:06.000Z</time>
      </trkpt>
      <trkpt lat="45.16698" lon="5.87257">
        <ele>945.37</ele>
        <time>2020-08-01T07:40:11.000Z</time>
      </trkpt>
      <trkpt lat="45.16682" lon="5.87291">
        <ele>944.83</ele>
        <time>2020-08-01T07:40:16.000Z</time>
      </trkpt>
      <trkpt lat="45.1668" lon="5.8732">
        <ele>945.21</ele>
        <time>2020-08-01T07:40:21.000Z</time>
      </trkpt>
      <trkpt lat="45.16677" lon="5.87348">
        <ele>945.74</ele>
        <time>2020-08-01T07:40:26.000Z</time>
      </trkpt>
      <trkpt lat="45.16675" lon="5.87372">
        <ele>944.88</ele>
        <time>2020-08-01T07:40:31.000Z</time>
      </trkpt>
      <trkpt lat="45.16672" lon="5.87396">
        <ele>948.43</ele>
        <time>2020-08-01T07:40:36.000Z</time>
      </trkpt>
      <trkpt lat="45.16671" lon="5.87423">
        <ele>949.8</ele>
        <time>2020-08-01T07:40:41.000Z</time>
      </trkpt>
      <trkpt lat="45.16667" lon="5.8745">
        <ele>948.57</ele>
        <time>2020-08-01T07:40:46.000Z</time>
      </trkpt>
      <trkpt lat="45.16662" lon="5.8747">
        <ele>948.83</ele>
        <time>2020-08-01T07:40:51.000Z</time>
      </trkpt>
      <trkpt lat="45.16654" lon="5.87488">
        <ele>947.66</ele>
        <time>2020-08-01T07:40:56.000Z</time>
      </trkpt>
      <trkpt lat="45.16645" lon="5.87496">
        <ele>950.95</ele>
        <time>2020-08-01T07:41:01.000Z</time>
      </trkpt>
      <trkpt lat="45.16635" lon="5.87499">
        <ele>953.27</ele>
        <time>2020-08-01T07:41:06.000Z</time>
      </trkpt>
      <trkpt lat="45.16625" lon="5.87509">
        <ele>955.18</ele>
        <time>2020-08-01T07:41:11.000Z</time>
      </trkpt>
      <trkpt lat="45.16615" lon="5.87519">
        <ele>953.01</ele>
        <time>2020-08-01T07:41:16.000Z</time>
      </trkpt>
      <trkpt lat="45.16598" lon="5.8752">
        <ele>956.41</ele>
        <time>2020-08-01T07:41:21.000Z</time>
      </trkpt>
      <trkpt lat="45.1658" lon="5.87523">
        <ele>959.85</ele>
        <time>2020-08-01T07:41:26.000Z</time>
      </trkpt>
      <trkpt lat="45.16566" lon="5.87524">
        <ele>958.32</ele>
        <time>2020-08-01T07:41:31.000Z</time>
      </trkpt>
      <trkpt lat="45.16549" lon="5.87528">
        <ele>958.66</ele>
        <time>2020-08-01T07:41:36.000Z</time>
      </trkpt>
      <trkpt lat="45.16532" lon="5.8753">
        <ele>960.33</ele>
        <time>2020-08-01T07:41:41.000Z</time>
      </trkpt>
      <trkpt lat="45.16513" lon="5.87539">
        <ele>965.5</ele>
        <time>2020-08-01T07:41:46.000Z</time>
      </trkpt>
      <trkpt lat="45.16499" lon="5.87565">
        <ele>963.76</ele>
        <time>2020-08-01T07:41:51.000Z</time>
      </trkpt>
      <trkpt lat="45.16489" lon="5.87585">
        <ele>962.34</ele>
        <time>2020-08-01T07:41:56.000Z</time>
      </trkpt>
      <trkpt lat="45.16478" lon="5.87604">
        <ele>960.84</ele>
        <time>2020-08-01T07:42:01.000Z</time>
      </trkpt>
      <trkpt lat="45.16466" lon="5.87618">
        <ele>961.61</ele>
        <time>2020-08-01T07:42:06.000Z</time>
      </trkpt>
      <trkpt lat="45.16456" lon="5.87631">
        <ele>964.15</ele>
        <time>2020-08-01T07:42:11.000Z</time>
      </trkpt>
      <trkpt lat="45.16445" lon="5.87637">
        <ele>967.23</ele>
        <time>2020-08-01T07:42:17.000Z</time>
      </trkpt>
      <trkpt lat="45.16429" lon="5.87643">
        <ele>966.27</ele>
        <time>2020-08-01T07:42:22.000Z</time>
      </trkpt>
      <trkpt lat="45.1641" lon="5.8765">
        <ele>962.99</ele>
        <time>2020-08-01T07:42:27.000Z</time>
      </trkpt>
      <trkpt lat="45.16394" lon="5.87663">
        <ele>967.7</ele>
        <time>2020-08-01T07:42:32.000Z</time>
      </trkpt>
      <trkpt lat="45.16384" lon="5.87676">
        <ele>971.64</ele>
        <time>2020-08-01T07:42:37.000Z</time>
      </trkpt>
      <trkpt lat="45.16378" lon="5.87697">
        <ele>973.41</ele>
        <time>2020-08-01T07:42:42.000Z</time>
      </trkpt>
      <trkpt lat="45.16372" lon="5.87718">
        <ele>974.58</ele>
        <time>2020-08-01T07:42:47.000Z</time>
      </trkpt>
      <trkpt lat="45.16362" lon="5.87735">
        <ele>975.75</ele>
        <time>2020-08-01T07:42:52.000Z</time>
      </trkpt>
      <trkpt lat="45.16349" lon="5.87734">
        <ele>975.67</ele>
        <time>2020-08-01T07:42:57.000Z</time>
      </trkpt>
      <trkpt lat="45.16338" lon="5.87733">
        <ele>979.93</ele>
        <time>2020-08-01T07:43:03.000Z</time>
      </trkpt>
      <trkpt lat="45.16329" lon="5.87728">
        <ele>981.74</ele>
        <time>2020-08-01T07:43:09.000Z</time>
      </trkpt>
      <trkpt lat="45.16319" lon="5.87729">
        <ele>983.47</ele>
        <time>2020-08-01T07:43:16.000Z</time>
      </trkpt>
      <trkpt lat="45.16308" lon="5.87734">
        <ele>986.56</ele>
        <time>2020-08-01T07:43:22.000Z</time>
      </trkpt>
      <trkpt lat="45.16296" lon="5.8774">
        <ele>991.41</ele>
        <time>2020-08-01T07:43:27.000Z</time>
      </trkpt>
      <trkpt lat="45.16273" lon="5.87747">
        <ele>992.77</ele>
        <time>2020-08-01T07:43:32.000Z</time>
      </trkpt>
      <trkpt lat="45.16262" lon="5.87748">
        <ele>992.14</ele>
        <time>2020-08-01T07:43:37.000Z</time>
      </trkpt>
      <trkpt lat="45.16252" lon="5.87748">
        <ele>991.45</ele>
        <time>2020-08-01T07:43:48.000Z</time>
      </trkpt>
      <trkpt lat="45.16241" lon="5.87754">
        <ele>986.3</ele>
        <time>2020-08-01T07:43:53.000Z</time>
      </trkpt>
      <trkpt lat="45.16232" lon="5.87759">
        <ele>986.25</ele>
        <time>2020-08-01T07:43:58.000Z</time>
      </trkpt>
      <trkpt lat="45.16221" lon="5.87759">
        <ele>983.76</ele>
        <time>2020-08-01T07:44:09.000Z</time>
      </trkpt>
      <trkpt lat="45.16211" lon="5.87762">
        <ele>983.91</ele>
        <time>2020-08-01T07:44:20.000Z</time>
      </trkpt>
      <trkpt lat="45.16202" lon="5.87768">
        <ele>980.77</ele>
        <time>2020-08-01T07:44:30.000Z</time>
      </trkpt>
      <trkpt lat="45.16196" lon="5.87778">
        <ele>979.61</ele>
        <time>2020-08-01T07:44:38.000Z</time>
      </trkpt>
      <trkpt lat="45.16198" lon="5.87792">
        <ele>979.15</ele>
        <time>2020-08-01T07:44:43.000Z</time>
      </trkpt>
      <trkpt lat="45.16193" lon="5.87803">
        <ele>975.99</ele>
        <time>2020-08-01T07:44:50.000Z</time>
      </trkpt>
      <trkpt lat="45.16185" lon="5.87813">
        <ele>972.41</ele>
        <time>2020-08-01T07:44:57.000Z</time>
      </trkpt>
      <trkpt lat="45.16182" lon="5.87825">
        <ele>971.7</ele>
        <time>2020-08-01T07:45:06.000Z</time>
      </trkpt>
      <trkpt lat="45.16173" lon="5.87832">
        <ele>972.72</ele>
        <time>2020-08-01T07:45:13.000Z</time>
      </trkpt>
      <trkpt lat="45.16161" lon="5.87831">
        <ele>968.48</ele>
        <time>2020-08-01T07:45:18.000Z</time>
      </trkpt>
      <trkpt lat="45.16151" lon="5.87829">
        <ele>969.71</ele>
        <time>2020-08-01T07:45:23.000Z</time>
      </trkpt>
      <trkpt lat="45.16142" lon="5.87818">
        <ele>971.22</ele>
        <time>2020-08-01T07:45:28.000Z</time>
      </trkpt>
      <trkpt lat="45.16125" lon="5.87808">
        <ele>973.13</ele>
        <time>2020-08-01T07:45:33.000Z</time>
      </trkpt>
      <trkpt lat="45.16106" lon="5.87811">
        <ele>974.59</ele>
        <time>2020-08-01T07:45:38.000Z</time>
      </trkpt>
      <trkpt lat="45.16093" lon="5.87823">
        <ele>972.26</ele>
        <time>2020-08-01T07:45:43.000Z</time>
      </trkpt>
      <trkpt lat="45.16088" lon="5.87842">
        <ele>975.06</ele>
        <time>2020-08-01T07:45:48.000Z</time>
      </trkpt>
      <trkpt lat="45.16081" lon="5.87863">
        <ele>976.95</ele>
        <time>2020-08-01T07:45:53.000Z</time>
      </trkpt>
      <trkpt lat="45.16078" lon="5.87886">
        <ele>975.81</ele>
        <time>2020-08-01T07:45:58.000Z</time>
      </trkpt>
      <trkpt lat="45.16063" lon="5.87906">
        <ele>976.02</ele>
        <time>2020-08-01T07:46:03.000Z</time>
      </trkpt>
      <trkpt lat="45.16048" lon="5.87911">
        <ele>975.64</ele>
        <time>2020-08-01T07:46:08.000Z</time>
      </trkpt>
      <trkpt lat="45.16027" lon="5.87916">
        <ele>977.56</ele>
        <time>2020-08-01T07:46:13.000Z</time>
      </trkpt>
      <trkpt lat="45.16016" lon="5.87925">
        <ele>976.59</ele>
        <time>2020-08-01T07:46:18.000Z</time>
      </trkpt>
      <trkpt lat="45.16008" lon="5.87939">
        <ele>976.39</ele>
        <time>2020-08-01T07:46:23.000Z</time>
      </trkpt>
      <trkpt lat="45.15992" lon="5.87957">
        <ele>981.84</ele>
        <time>2020-08-01T07:46:28.000Z</time>
      </trkpt>
      <trkpt lat="45.15978" lon="5.87949">
        <ele>983.5</ele>
        <time>2020-08-01T07:46:33.000Z</time>
      </trkpt>
      <trkpt lat="45.15967" lon="5.87932">
        <ele>982.32</ele>
        <time>2020-08-01T07:46:38.000Z</time>
      </trkpt>
      <trkpt lat="45.15957" lon="5.87913">
        <ele>981.77</ele>
        <time>2020-08-01T07:46:43.000Z</time>
      </trkpt>
      <trkpt lat="45.1595" lon="5.87899">
        <ele>980.89</ele>
        <time>2020-08-01T07:46:48.000Z</time>
      </trkpt>
      <trkpt lat="45.15949" lon="5.87878">
        <ele>984.5</ele>
        <time>2020-08-01T07:46:53.000Z</time>
      </trkpt>
      <trkpt lat="45.15953" lon="5.87856">
        <ele>987.16</ele>
        <time>2020-08-01T07:46:58.000Z</time>
      </trkpt>
      <trkpt lat="45.15966" lon="5.8784">
        <ele>986.99</ele>
        <time>2020-08-01T07:47:03.000Z</time>
      </trkpt>
      <trkpt lat="45.15973" lon="5.8782">
        <ele>988.73</ele>
        <time>2020-08-01T07:47:08.000Z</time>
      </trkpt>
      <trkpt lat="45.15975" lon="5.87796">
        <ele>988.06</ele>
        <time>2020-08-01T07:47:13.000Z</time>
      </trkpt>
      <trkpt lat="45.1598" lon="5.87775">
        <ele>987.59</ele>
        <time>2020-08-01T07:47:18.000Z</time>
      </trkpt>
      <trkpt lat="45.15989" lon="5.87752">
        <ele>993.14</ele>
        <time>2020-08-01T07:47:23.000Z</time>
      </trkpt>
      <trkpt lat="45.16" lon="5.87729">
        <ele>995.43</ele>
        <time>2020-08-01T07:47:28.000Z</time>
      </trkpt>
      <trkpt lat="45.16007" lon="5.87707">
        <ele>995.76</ele>
        <time>2020-08-01T07:47:33.000Z</time>
      </trkpt>
      <trkpt lat="45.16011" lon="5.87687">
        <ele>997.02</ele>
        <time>2020-08-01T07:47:38.000Z</time>
      </trkpt>
      <trkpt lat="45.16013" lon="5.87664">
        <ele>996.3</ele>
        <time>2020-08-01T07:47:43.000Z</time>
      </trkpt>
      <trkpt lat="45.16012" lon="5.87642">
        <ele>998.43</ele>
        <time>2020-08-01T07:47:48.000Z</time>
      </trkpt>
      <trkpt lat="45.1601" lon="5.87619">
        <ele>1001.22</ele>
        <time>2020-08-01T07:47:53.000Z</time>
      </trkpt>
      <trkpt lat="45.1601" lon="5.87596">
        <ele>1000.29</ele>
        <time>2020-08-01T07:47:58.000Z</time>
      </trkpt>
      <trkpt lat="45.1601" lon="5.87568">
        <ele>1002.15</ele>
        <time>2020-08-01T07:48:03.000Z</time>
      </trkpt>
      <trkpt lat="45.16004" lon="5.87543">
        <ele>1004.4</ele>
        <time>2020-08-01T07:48:08.000Z</time>
      </trkpt>
      <trkpt lat="45.15991" lon="5.87525">
        <ele>1008.49</ele>
        <time>2020-08-01T07:48:13.000Z</time>
      </trkpt>
      <trkpt lat="45.15982" lon="5.87498">
        <ele>1010.15</ele>
        <time>2020-08-01T07:48:18.000Z</time>
      </trkpt>
      <trkpt lat="45.15968" lon="5.8749">
        <ele>1008.77</ele>
        <time>2020-08-01T07:48:23.000Z</time>
      </trkpt>
      <trkpt lat="45.1596" lon="5.87477">
        <ele>1009.57</ele>
        <time>2020-08-01T07:48:28.000Z</time>
      </trkpt>
      <trkpt lat="45.15945" lon="5.87469">
        <ele>1013.83</ele>
        <time>2020-08-01T07:48:33.000Z</time>
      </trkpt>
      <trkpt lat="45.1593" lon="5.87467">
        <ele>1016.46</ele>
        <time>2020-08-01T07:48:38.000Z</time>
      </trkpt>
      <trkpt lat="45.15918" lon="5.87459">
        <ele>1019.72</ele>
        <time>2020-08-01T07:48:43.000Z</time>
      </trkpt>
      <trkpt lat="45.15901" lon="5.87444">
        <ele>1019.91</ele>
        <time>2020-08-01T07:48:48.000Z</time>
      </trkpt>
      <trkpt lat="45.15892" lon="5.8741">
        <ele>1022.85</ele>
        <time>2020-08-01T07:48:53.000Z</time>
      </trkpt>
      <trkpt lat="45.15881" lon="5.87402">
        <ele>1020.79</ele>
        <time>2020-08-01T07:48:58.000Z</time>
      </trkpt>
      <trkpt lat="45.15863" lon="5.87387">
        <ele>1022.34</ele>
        <time>2020-08-01T07:49:03.000Z</time>
      </trkpt>
      <trkpt lat="45.15849" lon="5.87376">
        <ele>1023.48</ele>
        <time>2020-08-01T07:49:08.000Z</time>
      </trkpt>
      <trkpt lat="45.1584" lon="5.8737">
        <ele>1023.05</ele>
        <time>2020-08-01T07:49:13.000Z</time>
      </trkpt>
      <trkpt lat="45.15827" lon="5.87367">
        <ele>1029.52</ele>
        <time>2020-08-01T07:49:18.000Z</time>
      </trkpt>
      <trkpt lat="45.15812" lon="5.87369">
        <ele>1032.25</ele>
        <time>2020-08-01T07:49:23.000Z</time>
      </trkpt>
      <trkpt lat="45.15802" lon="5.87367">
        <ele>1037.04</ele>
        <time>2020-08-01T07:49:28.000Z</time>
      </trkpt>
      <trkpt lat="45.15791" lon="5.87363">
        <ele>1037.56</ele>
        <time>2020-08-01T07:49:33.000Z</time>
      </trkpt>
      <trkpt lat="45.1577" lon="5.87357">
        <ele>1035.94</ele>
        <time>2020-08-01T07:49:38.000Z</time>
      </trkpt>
      <trkpt lat="45.15751" lon="5.87352">
        <ele>1037.96</ele>
        <time>2020-08-01T07:49:43.000Z</time>
      </trkpt>
      <trkpt lat="45.15733" lon="5.87345">
        <ele>1038.58</ele>
        <time>2020-08-01T07:49:48.000Z</time>
      </trkpt>
      <trkpt lat="45.15715" lon="5.87339">
        <ele>1034.25</ele>
        <time>2020-08-01T07:49:53.000Z</time>
      </trkpt>
      <trkpt lat="45.15699" lon="5.87335">
        <ele>1034.09</ele>
        <time>2020-08-01T07:49:58.000Z</time>
      </trkpt>
      <trkpt lat="45.1568" lon="5.87344">
        <ele>1035.12</ele>
        <time>2020-08-01T07:50:03.000Z</time>
      </trkpt>
      <trkpt lat="45.15666" lon="5.87361">
        <ele>1036.08</ele>
        <time>2020-08-01T07:50:08.000Z</time>
      </trkpt>
      <trkpt lat="45.15654" lon="5.87367">
        <ele>1039.23</ele>
        <time>2020-08-01T07:50:13.000Z</time>
      </trkpt>
      <trkpt lat="45.15631" lon="5.8736">
        <ele>1040.98</ele>
        <time>2020-08-01T07:50:18.000Z</time>
      </trkpt>
      <trkpt lat="45.15619" lon="5.87358">
        <ele>1045.5</ele>
        <time>2020-08-01T07:50:23.000Z</time>
      </trkpt>
      <trkpt lat="45.15601" lon="5.87363">
        <ele>1047.66</ele>
        <time>2020-08-01T07:50:28.000Z</time>
      </trkpt>
      <trkpt lat="45.15585" lon="5.87361">
        <ele>1049.18</ele>
        <time>2020-08-01T07:50:33.000Z</time>
      </trkpt>
      <trkpt lat="45.1557" lon="5.87364">
        <ele>1050.02</ele>
        <time>2020-08-01T07:50:38.000Z</time>
      </trkpt>
      <trkpt lat="45.15554" lon="5.87365">
        <ele>1051.86</ele>
        <time>2020-08-01T07:50:43.000Z</time>
      </trkpt>
      <trkpt lat="45.15537" lon="5.87366">
        <ele>1050.89</ele>
        <time>2020-08-01T07:50:48.000Z</time>
      </trkpt>
      <trkpt lat="45.15519" lon="5.87355">
        <ele>1047.84</ele>
        <time>2020-08-01T07:50:53.000Z</time>
      </trkpt>
      <trkpt lat="45.15507" lon="5.87345">
        <ele>1048.2</ele>
        <time>2020-08-01T07:50:58.000Z</time>
      </trkpt>
      <trkpt lat="45.15497" lon="5.87335">
        <ele>1050.72</ele>
        <time>2020-08-01T07:51:03.000Z</time>
      </trkpt>
      <trkpt lat="45.15499" lon="5.87313">
        <ele>1048.56</ele>
        <time>2020-08-01T07:51:08.000Z</time>
      </trkpt>
      <trkpt lat="45.15504" lon="5.87286">
        <ele>1049.62</ele>
        <time>2020-08-01T07:51:13.000Z</time>
      </trkpt>
      <trkpt lat="45.15506" lon="5.87259">
        <ele>1049.65</ele>
        <time>2020-08-01T07:51:18.000Z</time>
      </trkpt>
      <trkpt lat="45.15511" lon="5.87237">
        <ele>1049.69</ele>
        <time>2020-08-01T07:51:23.000Z</time>
      </trkpt>
      <trkpt lat="45.1552" lon="5.87211">
        <ele>1050.26</ele>
        <time>2020-08-01T07:51:28.000Z</time>
      </trkpt>
      <trkpt lat="45.15512" lon="5.87187">
        <ele>1050.71</ele>
        <time>2020-08-01T07:51:33.000Z</time>
      </trkpt>
      <trkpt lat="45.15501" lon="5.87165">
        <ele>1053.79</ele>
        <time>2020-08-01T07:51:38.000Z</time>
      </trkpt>
      <trkpt lat="45.15487" lon="5.87142">
        <ele>1059.3</ele>
        <time>2020-08-01T07:51:43.000Z</time>
      </trkpt>
      <trkpt lat="45.15476" lon="5.87126">
        <ele>1060.98</ele>
        <time>2020-08-01T07:51:48.000Z</time>
      </trkpt>
      <trkpt lat="45.15468" lon="5.87122">
        <ele>1064.12</ele>
        <time>2020-08-01T07:51:53.000Z</time>
      </trkpt>
      <trkpt lat="45.15458" lon="5.87119">
        <ele>1069</ele>
        <time>2020-08-01T07:52:10.000Z</time>
      </trkpt>
      <trkpt lat="45.15463" lon="5.8713">
        <ele>1059.34</ele>
        <time>2020-08-01T07:55:35.000Z</time>
      </trkpt>
      <trkpt lat="45.15451" lon="5.87125">
        <ele>1060.51</ele>
        <time>2020-08-01T07:56:32.000Z</time>
      </trkpt>
      <trkpt lat="45.15427" lon="5.87152">
        <ele>1063.78</ele>
        <time>2020-08-01T07:56:37.000Z</time>
      </trkpt>
      <trkpt lat="45.15419" lon="5.8717">
        <ele>1061.23</ele>
        <time>2020-08-01T07:56:42.000Z</time>
      </trkpt>
      <trkpt lat="45.15415" lon="5.87184">
        <ele>1062.1</ele>
        <time>2020-08-01T07:56:47.000Z</time>
      </trkpt>
      <trkpt lat="45.15409" lon="5.87203">
        <ele>1061.77</ele>
        <time>2020-08-01T07:56:52.000Z</time>
      </trkpt>
      <trkpt lat="45.15408" lon="5.8723">
        <ele>1060.77</ele>
        <time>2020-08-01T07:56:57.000Z</time>
      </trkpt>
      <trkpt lat="45.15408" lon="5.87257">
        <ele>1057.96</ele>
        <time>2020-08-01T07:57:02.000Z</time>
      </trkpt>
      <trkpt lat="45.15406" lon="5.87283">
        <ele>1057.71</ele>
        <time>2020-08-01T07:57:07.000Z</time>
      </trkpt>
      <trkpt lat="45.15408" lon="5.8731">
        <ele>1058.22</ele>
        <time>2020-08-01T07:57:12.000Z</time>
      </trkpt>
      <trkpt lat="45.15406" lon="5.87337">
        <ele>1059.72</ele>
        <time>2020-08-01T07:57:17.000Z</time>
      </trkpt>
      <trkpt lat="45.15403" lon="5.87365">
        <ele>1059.5</ele>
        <time>2020-08-01T07:57:22.000Z</time>
      </trkpt>
      <trkpt lat="45.15395" lon="5.87394">
        <ele>1058.73</ele>
        <time>2020-08-01T07:57:27.000Z</time>
      </trkpt>
      <trkpt lat="45.15387" lon="5.87422">
        <ele>1059.76</ele>
        <time>2020-08-01T07:57:32.000Z</time>
      </trkpt>
      <trkpt lat="45.1538" lon="5.87454">
        <ele>1058.58</ele>
        <time>2020-08-01T07:57:37.000Z</time>
      </trkpt>
      <trkpt lat="45.15375" lon="5.87483">
        <ele>1058.43</ele>
        <time>2020-08-01T07:57:42.000Z</time>
      </trkpt>
      <trkpt lat="45.15372" lon="5.87507">
        <ele>1057.76</ele>
        <time>2020-08-01T07:57:47.000Z</time>
      </trkpt>
      <trkpt lat="45.15374" lon="5.87533">
        <ele>1058.97</ele>
        <time>2020-08-01T07:57:52.000Z</time>
      </trkpt>
      <trkpt lat="45.15382" lon="5.87558">
        <ele>1064.14</ele>
        <time>2020-08-01T07:57:57.000Z</time>
      </trkpt>
      <trkpt lat="45.15388" lon="5.87585">
        <ele>1062.51</ele>
        <time>2020-08-01T07:58:02.000Z</time>
      </trkpt>
      <trkpt lat="45.15391" lon="5.87609">
        <ele>1060.62</ele>
        <time>2020-08-01T07:58:07.000Z</time>
      </trkpt>
      <trkpt lat="45.15396" lon="5.87633">
        <ele>1061.31</ele>
        <time>2020-08-01T07:58:12.000Z</time>
      </trkpt>
      <trkpt lat="45.15399" lon="5.8766">
        <ele>1063.36</ele>
        <time>2020-08-01T07:58:17.000Z</time>
      </trkpt>
      <trkpt lat="45.15398" lon="5.87689">
        <ele>1065.02</ele>
        <time>2020-08-01T07:58:22.000Z</time>
      </trkpt>
      <trkpt lat="45.15397" lon="5.87716">
        <ele>1066.42</ele>
        <time>2020-08-01T07:58:27.000Z</time>
      </trkpt>
      <trkpt lat="45.15398" lon="5.87743">
        <ele>1070.28</ele>
        <time>2020-08-01T07:58:32.000Z</time>
      </trkpt>
      <trkpt lat="45.15402" lon="5.87774">
        <ele>1067.38</ele>
        <time>2020-08-01T07:58:37.000Z</time>
      </trkpt>
      <trkpt lat="45.15403" lon="5.87805">
        <ele>1067.39</ele>
        <time>2020-08-01T07:58:42.000Z</time>
      </trkpt>
      <trkpt lat="45.15401" lon="5.87834">
        <ele>1069.64</ele>
        <time>2020-08-01T07:58:47.000Z</time>
      </trkpt>
      <trkpt lat="45.15402" lon="5.87864">
        <ele>1072.63</ele>
        <time>2020-08-01T07:58:52.000Z</time>
      </trkpt>
      <trkpt lat="45.15404" lon="5.87894">
        <ele>1070.76</ele>
        <time>2020-08-01T07:58:57.000Z</time>
      </trkpt>
      <trkpt lat="45.15406" lon="5.87924">
        <ele>1072.18</ele>
        <time>2020-08-01T07:59:02.000Z</time>
      </trkpt>
      <trkpt lat="45.15408" lon="5.87954">
        <ele>1073.8</ele>
        <time>2020-08-01T07:59:07.000Z</time>
      </trkpt>
      <trkpt lat="45.15407" lon="5.87982">
        <ele>1073.9</ele>
        <time>2020-08-01T07:59:12.000Z</time>
      </trkpt>
      <trkpt lat="45.15394" lon="5.88008">
        <ele>1075.72</ele>
        <time>2020-08-01T07:59:17.000Z</time>
      </trkpt>
      <trkpt lat="45.15373" lon="5.88023">
        <ele>1080.56</ele>
        <time>2020-08-01T07:59:22.000Z</time>
      </trkpt>
      <trkpt lat="45.15357" lon="5.88042">
        <ele>1085.56</ele>
        <time>2020-08-01T07:59:27.000Z</time>
      </trkpt>
      <trkpt lat="45.15344" lon="5.88072">
        <ele>1087.48</ele>
        <time>2020-08-01T07:59:32.000Z</time>
      </trkpt>
      <trkpt lat="45.1534" lon="5.88094">
        <ele>1087.67</ele>
        <time>2020-08-01T07:59:37.000Z</time>
      </trkpt>
      <trkpt lat="45.1534" lon="5.88117">
        <ele>1088.49</ele>
        <time>2020-08-01T07:59:42.000Z</time>
      </trkpt>
      <trkpt lat="45.15341" lon="5.88152">
        <ele>1087.76</ele>
        <time>2020-08-01T07:59:47.000Z</time>
      </trkpt>
      <trkpt lat="45.1534" lon="5.88178">
        <ele>1086.27</ele>
        <time>2020-08-01T07:59:52.000Z</time>
      </trkpt>
      <trkpt lat="45.15334" lon="5.88206">
        <ele>1087.48</ele>
        <time>2020-08-01T07:59:57.000Z</time>
      </trkpt>
      <trkpt lat="45.15324" lon="5.88233">
        <ele>1084.96</ele>
        <time>2020-08-01T08:00:02.000Z</time>
      </trkpt>
      <trkpt lat="45.15314" lon="5.8826">
        <ele>1087.21</ele>
        <time>2020-08-01T08:00:07.000Z</time>
      </trkpt>
      <trkpt lat="45.15308" lon="5.88284">
        <ele>1088.68</ele>
        <time>2020-08-01T08:00:12.000Z</time>
      </trkpt>
      <trkpt lat="45.15302" lon="5.88314">
        <ele>1091.39</ele>
        <time>2020-08-01T08:00:17.000Z</time>
      </trkpt>
      <trkpt lat="45.15294" lon="5.8834">
        <ele>1094.09</ele>
        <time>2020-08-01T08:00:22.000Z</time>
      </trkpt>
      <trkpt lat="45.15284" lon="5.88367">
        <ele>1096.66</ele>
        <time>2020-08-01T08:00:27.000Z</time>
      </trkpt>
      <trkpt lat="45.15276" lon="5.88392">
        <ele>1098.81</ele>
        <time>2020-08-01T08:00:32.000Z</time>
      </trkpt>
      <trkpt lat="45.15266" lon="5.88416">
        <ele>1099.38</ele>
        <time>2020-08-01T08:00:37.000Z</time>
      </trkpt>
      <trkpt lat="45.15256" lon="5.88438">
        <ele>1101.35</ele>
        <time>2020-08-01T08:00:42.000Z</time>
      </trkpt>
      <trkpt lat="45.15246" lon="5.88459">
        <ele>1106</ele>
        <time>2020-08-01T08:00:47.000Z</time>
      </trkpt>
      <trkpt lat="45.15235" lon="5.88476">
        <ele>1105.65</ele>
        <time>2020-08-01T08:00:52.000Z</time>
      </trkpt>
      <trkpt lat="45.1522" lon="5.88493">
        <ele>1106.13</ele>
        <time>2020-08-01T08:00:57.000Z</time>
      </trkpt>
      <trkpt lat="45.15207" lon="5.88513">
        <ele>1106.19</ele>
        <time>2020-08-01T08:01:02.000Z</time>
      </trkpt>
      <trkpt lat="45.15202" lon="5.88537">
        <ele>1110.04</ele>
        <time>2020-08-01T08:01:07.000Z</time>
      </trkpt>
      <trkpt lat="45.15183" lon="5.88565">
        <ele>1110.92</ele>
        <time>2020-08-01T08:01:12.000Z</time>
      </trkpt>
      <trkpt lat="45.15172" lon="5.88601">
        <ele>1108.28</ele>
        <time>2020-08-01T08:01:17.000Z</time>
      </trkpt>
      <trkpt lat="45.15164" lon="5.88637">
        <ele>1108.4</ele>
        <time>2020-08-01T08:01:22.000Z</time>
      </trkpt>
      <trkpt lat="45.15157" lon="5.88661">
        <ele>1109.42</ele>
        <time>2020-08-01T08:01:27.000Z</time>
      </trkpt>
      <trkpt lat="45.15153" lon="5.88683">
        <ele>1113.52</ele>
        <time>2020-08-01T08:01:32.000Z</time>
      </trkpt>
      <trkpt lat="45.15144" lon="5.8869">
        <ele>1116.91</ele>
        <time>2020-08-01T08:01:37.000Z</time>
      </trkpt>
      <trkpt lat="45.15136" lon="5.88673">
        <ele>1121.81</ele>
        <time>2020-08-01T08:01:42.000Z</time>
      </trkpt>
      <trkpt lat="45.15139" lon="5.88647">
        <ele>1122.93</ele>
        <time>2020-08-01T08:01:47.000Z</time>
      </trkpt>
      <trkpt lat="45.15145" lon="5.88623">
        <ele>1124.18</ele>
        <time>2020-08-01T08:01:52.000Z</time>
      </trkpt>
      <trkpt lat="45.15148" lon="5.88605">
        <ele>1125.15</ele>
        <time>2020-08-01T08:01:57.000Z</time>
      </trkpt>
      <trkpt lat="45.15153" lon="5.88587">
        <ele>1127.98</ele>
        <time>2020-08-01T08:02:02.000Z</time>
      </trkpt>
      <trkpt lat="45.15156" lon="5.88565">
        <ele>1131.41</ele>
        <time>2020-08-01T08:02:07.000Z</time>
      </trkpt>
      <trkpt lat="45.15167" lon="5.8854">
        <ele>1131.1</ele>
        <time>2020-08-01T08:02:12.000Z</time>
      </trkpt>
      <trkpt lat="45.15175" lon="5.88514">
        <ele>1131.89</ele>
        <time>2020-08-01T08:02:17.000Z</time>
      </trkpt>
      <trkpt lat="45.15178" lon="5.88488">
        <ele>1133.15</ele>
        <time>2020-08-01T08:02:22.000Z</time>
      </trkpt>
      <trkpt lat="45.15177" lon="5.88465">
        <ele>1132.94</ele>
        <time>2020-08-01T08:02:27.000Z</time>
      </trkpt>
      <trkpt lat="45.15185" lon="5.88438">
        <ele>1132.2</ele>
        <time>2020-08-01T08:02:32.000Z</time>
      </trkpt>
      <trkpt lat="45.15192" lon="5.88414">
        <ele>1135.54</ele>
        <time>2020-08-01T08:02:37.000Z</time>
      </trkpt>
      <trkpt lat="45.15204" lon="5.88396">
        <ele>1137.5</ele>
        <time>2020-08-01T08:02:42.000Z</time>
      </trkpt>
      <trkpt lat="45.15209" lon="5.88372">
        <ele>1135.8</ele>
        <time>2020-08-01T08:02:47.000Z</time>
      </trkpt>
      <trkpt lat="45.15214" lon="5.88341">
        <ele>1140.94</ele>
        <time>2020-08-01T08:02:52.000Z</time>
      </trkpt>
      <trkpt lat="45.15215" lon="5.88315">
        <ele>1143.49</ele>
        <time>2020-08-01T08:02:57.000Z</time>
      </trkpt>
      <trkpt lat="45.15207" lon="5.88291">
        <ele>1142.52</ele>
        <time>2020-08-01T08:03:02.000Z</time>
      </trkpt>
      <trkpt lat="45.15202" lon="5.88263">
        <ele>1143.14</ele>
        <time>2020-08-01T08:03:07.000Z</time>
      </trkpt>
      <trkpt lat="45.15204" lon="5.88234">
        <ele>1144.65</ele>
        <time>2020-08-01T08:03:12.000Z</time>
      </trkpt>
      <trkpt lat="45.15207" lon="5.88209">
        <ele>1149.18</ele>
        <time>2020-08-01T08:03:17.000Z</time>
      </trkpt>
      <trkpt lat="45.15196" lon="5.88182">
        <ele>1145.91</ele>
        <time>2020-08-01T08:03:22.000Z</time>
      </trkpt>
      <trkpt lat="45.15187" lon="5.88159">
        <ele>1143.14</ele>
        <time>2020-08-01T08:03:27.000Z</time>
      </trkpt>
      <trkpt lat="45.15183" lon="5.88136">
        <ele>1146.4</ele>
        <time>2020-08-01T08:03:32.000Z</time>
      </trkpt>
      <trkpt lat="45.15183" lon="5.88114">
        <ele>1146.2</ele>
        <time>2020-08-01T08:03:37.000Z</time>
      </trkpt>
      <trkpt lat="45.15186" lon="5.8809">
        <ele>1149.44</ele>
        <time>2020-08-01T08:03:42.000Z</time>
      </trkpt>
      <trkpt lat="45.15182" lon="5.88065">
        <ele>1152.54</ele>
        <time>2020-08-01T08:03:47.000Z</time>
      </trkpt>
      <trkpt lat="45.15178" lon="5.88041">
        <ele>1153.65</ele>
        <time>2020-08-01T08:03:52.000Z</time>
      </trkpt>
      <trkpt lat="45.15179" lon="5.88014">
        <ele>1153.98</ele>
        <time>2020-08-01T08:03:57.000Z</time>
      </trkpt>
      <trkpt lat="45.15175" lon="5.87988">
        <ele>1159.23</ele>
        <time>2020-08-01T08:04:02.000Z</time>
      </trkpt>
      <trkpt lat="45.15169" lon="5.87967">
        <ele>1163.64</ele>
        <time>2020-08-01T08:04:07.000Z</time>
      </trkpt>
      <trkpt lat="45.1516" lon="5.87945">
        <ele>1165.73</ele>
        <time>2020-08-01T08:04:12.000Z</time>
      </trkpt>
      <trkpt lat="45.15154" lon="5.87922">
        <ele>1167.23</ele>
        <time>2020-08-01T08:04:17.000Z</time>
      </trkpt>
      <trkpt lat="45.1515" lon="5.87902">
        <ele>1168.13</ele>
        <time>2020-08-01T08:04:22.000Z</time>
      </trkpt>
      <trkpt lat="45.15143" lon="5.87876">
        <ele>1172.92</ele>
        <time>2020-08-01T08:04:27.000Z</time>
      </trkpt>
      <trkpt lat="45.15134" lon="5.87854">
        <ele>1173.4</ele>
        <time>2020-08-01T08:04:32.000Z</time>
      </trkpt>
      <trkpt lat="45.1512" lon="5.8783">
        <ele>1174.41</ele>
        <time>2020-08-01T08:04:37.000Z</time>
      </trkpt>
      <trkpt lat="45.15109" lon="5.87809">
        <ele>1174.34</ele>
        <time>2020-08-01T08:04:42.000Z</time>
      </trkpt>
      <trkpt lat="45.15111" lon="5.8779">
        <ele>1173.78</ele>
        <time>2020-08-01T08:04:47.000Z</time>
      </trkpt>
      <trkpt lat="45.15108" lon="5.87766">
        <ele>1174.86</ele>
        <time>2020-08-01T08:04:52.000Z</time>
      </trkpt>
      <trkpt lat="45.15099" lon="5.87743">
        <ele>1177.1</ele>
        <time>2020-08-01T08:04:57.000Z</time>
      </trkpt>
      <trkpt lat="45.15084" lon="5.87718">
        <ele>1177</ele>
        <time>2020-08-01T08:05:02.000Z</time>
      </trkpt>
      <trkpt lat="45.15072" lon="5.8769">
        <ele>1179.54</ele>
        <time>2020-08-01T08:05:07.000Z</time>
      </trkpt>
      <trkpt lat="45.1507" lon="5.87662">
        <ele>1178.78</ele>
        <time>2020-08-01T08:05:12.000Z</time>
      </trkpt>
      <trkpt lat="45.15066" lon="5.8764">
        <ele>1176.14</ele>
        <time>2020-08-01T08:05:17.000Z</time>
      </trkpt>
      <trkpt lat="45.15067" lon="5.87617">
        <ele>1176.44</ele>
        <time>2020-08-01T08:05:22.000Z</time>
      </trkpt>
      <trkpt lat="45.15071" lon="5.87593">
        <ele>1178.73</ele>
        <time>2020-08-01T08:05:27.000Z</time>
      </trkpt>
      <trkpt lat="45.15071" lon="5.87573">
        <ele>1178.99</ele>
        <time>2020-08-01T08:05:32.000Z</time>
      </trkpt>
      <trkpt lat="45.1507" lon="5.87548">
        <ele>1178.63</ele>
        <time>2020-08-01T08:05:37.000Z</time>
      </trkpt>
      <trkpt lat="45.15067" lon="5.87523">
        <ele>1183.01</ele>
        <time>2020-08-01T08:05:42.000Z</time>
      </trkpt>
      <trkpt lat="45.15064" lon="5.87493">
        <ele>1187.94</ele>
        <time>2020-08-01T08:05:47.000Z</time>
      </trkpt>
      <trkpt lat="45.15054" lon="5.8747">
        <ele>1188.26</ele>
        <time>2020-08-01T08:05:52.000Z</time>
      </trkpt>
      <trkpt lat="45.15038" lon="5.87451">
        <ele>1188.38</ele>
        <time>2020-08-01T08:05:57.000Z</time>
      </trkpt>
      <trkpt lat="45.15019" lon="5.87452">
        <ele>1190.25</ele>
        <time>2020-08-01T08:06:02.000Z</time>
      </trkpt>
      <trkpt lat="45.15" lon="5.87468">
        <ele>1193.02</ele>
        <time>2020-08-01T08:06:07.000Z</time>
      </trkpt>
      <trkpt lat="45.1499" lon="5.87486">
        <ele>1193.99</ele>
        <time>2020-08-01T08:06:12.000Z</time>
      </trkpt>
      <trkpt lat="45.14975" lon="5.87506">
        <ele>1190.41</ele>
        <time>2020-08-01T08:06:17.000Z</time>
      </trkpt>
      <trkpt lat="45.14963" lon="5.87517">
        <ele>1191.24</ele>
        <time>2020-08-01T08:06:22.000Z</time>
      </trkpt>
      <trkpt lat="45.1495" lon="5.87527">
        <ele>1192.18</ele>
        <time>2020-08-01T08:06:27.000Z</time>
      </trkpt>
      <trkpt lat="45.14932" lon="5.87538">
        <ele>1194.96</ele>
        <time>2020-08-01T08:06:32.000Z</time>
      </trkpt>
      <trkpt lat="45.14918" lon="5.87544">
        <ele>1197.18</ele>
        <time>2020-08-01T08:06:37.000Z</time>
      </trkpt>
      <trkpt lat="45.14902" lon="5.87556">
        <ele>1198.29</ele>
        <time>2020-08-01T08:06:42.000Z</time>
      </trkpt>
      <trkpt lat="45.14877" lon="5.87561">
        <ele>1199.51</ele>
        <time>2020-08-01T08:06:47.000Z</time>
      </trkpt>
      <trkpt lat="45.14863" lon="5.87563">
        <ele>1201.08</ele>
        <time>2020-08-01T08:06:52.000Z</time>
      </trkpt>
      <trkpt lat="45.14843" lon="5.87563">
        <ele>1201.61</ele>
        <time>2020-08-01T08:06:57.000Z</time>
      </trkpt>
      <trkpt lat="45.14826" lon="5.87562">
        <ele>1201.39</ele>
        <time>2020-08-01T08:07:02.000Z</time>
      </trkpt>
      <trkpt lat="45.14811" lon="5.87558">
        <ele>1200.87</ele>
        <time>2020-08-01T08:07:07.000Z</time>
      </trkpt>
      <trkpt lat="45.14786" lon="5.8755">
        <ele>1199.36</ele>
        <time>2020-08-01T08:07:12.000Z</time>
      </trkpt>
      <trkpt lat="45.14775" lon="5.87543">
        <ele>1197.44</ele>
        <time>2020-08-01T08:07:17.000Z</time>
      </trkpt>
      <trkpt lat="45.14757" lon="5.87536">
        <ele>1197.94</ele>
        <time>2020-08-01T08:07:22.000Z</time>
      </trkpt>
      <trkpt lat="45.1474" lon="5.87533">
        <ele>1199.45</ele>
        <time>2020-08-01T08:07:27.000Z</time>
      </trkpt>
      <trkpt lat="45.1473" lon="5.87524">
        <ele>1204.21</ele>
        <time>2020-08-01T08:07:32.000Z</time>
      </trkpt>
      <trkpt lat="45.1472" lon="5.87521">
        <ele>1207.77</ele>
        <time>2020-08-01T08:07:37.000Z</time>
      </trkpt>
      <trkpt lat="45.14695" lon="5.8752">
        <ele>1209.68</ele>
        <time>2020-08-01T08:07:42.000Z</time>
      </trkpt>
      <trkpt lat="45.1467" lon="5.87512">
        <ele>1209.95</ele>
        <time>2020-08-01T08:07:47.000Z</time>
      </trkpt>
      <trkpt lat="45.14657" lon="5.87517">
        <ele>1204.32</ele>
        <time>2020-08-01T08:07:52.000Z</time>
      </trkpt>
      <trkpt lat="45.14638" lon="5.87509">
        <ele>1205.99</ele>
        <time>2020-08-01T08:07:57.000Z</time>
      </trkpt>
      <trkpt lat="45.1462" lon="5.87501">
        <ele>1212.2</ele>
        <time>2020-08-01T08:08:02.000Z</time>
      </trkpt>
      <trkpt lat="45.146" lon="5.87492">
        <ele>1211.54</ele>
        <time>2020-08-01T08:08:07.000Z</time>
      </trkpt>
      <trkpt lat="45.14577" lon="5.87493">
        <ele>1214.04</ele>
        <time>2020-08-01T08:08:12.000Z</time>
      </trkpt>
      <trkpt lat="45.14558" lon="5.87491">
        <ele>1212.63</ele>
        <time>2020-08-01T08:08:17.000Z</time>
      </trkpt>
      <trkpt lat="45.14545" lon="5.87487">
        <ele>1210.04</ele>
        <time>2020-08-01T08:08:22.000Z</time>
      </trkpt>
      <trkpt lat="45.1453" lon="5.87486">
        <ele>1206.63</ele>
        <time>2020-08-01T08:08:27.000Z</time>
      </trkpt>
      <trkpt lat="45.14514" lon="5.87478">
        <ele>1210.23</ele>
        <time>2020-08-01T08:08:32.000Z</time>
      </trkpt>
      <trkpt lat="45.14497" lon="5.8747">
        <ele>1211.27</ele>
        <time>2020-08-01T08:08:37.000Z</time>
      </trkpt>
      <trkpt lat="45.14482" lon="5.87458">
        <ele>1216.65</ele>
        <time>2020-08-01T08:08:42.000Z</time>
      </trkpt>
      <trkpt lat="45.14462" lon="5.87445">
        <ele>1216.45</ele>
        <time>2020-08-01T08:08:47.000Z</time>
      </trkpt>
      <trkpt lat="45.14445" lon="5.87429">
        <ele>1215.7</ele>
        <time>2020-08-01T08:08:52.000Z</time>
      </trkpt>
      <trkpt lat="45.14429" lon="5.87421">
        <ele>1216.78</ele>
        <time>2020-08-01T08:08:57.000Z</time>
      </trkpt>
      <trkpt lat="45.14381" lon="5.87427">
        <ele>1218.4</ele>
        <time>2020-08-01T08:09:13.000Z</time>
      </trkpt>
      <trkpt lat="45.14362" lon="5.87431">
        <ele>1218.76</ele>
        <time>2020-08-01T08:09:18.000Z</time>
      </trkpt>
      <trkpt lat="45.14347" lon="5.87437">
        <ele>1222.22</ele>
        <time>2020-08-01T08:09:23.000Z</time>
      </trkpt>
      <trkpt lat="45.14334" lon="5.87443">
        <ele>1221.72</ele>
        <time>2020-08-01T08:09:28.000Z</time>
      </trkpt>
      <trkpt lat="45.14319" lon="5.87454">
        <ele>1220.35</ele>
        <time>2020-08-01T08:09:33.000Z</time>
      </trkpt>
      <trkpt lat="45.14302" lon="5.87459">
        <ele>1220.14</ele>
        <time>2020-08-01T08:09:38.000Z</time>
      </trkpt>
      <trkpt lat="45.14288" lon="5.8746">
        <ele>1223.34</ele>
        <time>2020-08-01T08:09:43.000Z</time>
      </trkpt>
      <trkpt lat="45.14271" lon="5.87466">
        <ele>1221.97</ele>
        <time>2020-08-01T08:09:48.000Z</time>
      </trkpt>
      <trkpt lat="45.14255" lon="5.87474">
        <ele>1219.42</ele>
        <time>2020-08-01T08:09:53.000Z</time>
      </trkpt>
      <trkpt lat="45.14239" lon="5.87479">
        <ele>1219.97</ele>
        <time>2020-08-01T08:09:58.000Z</time>
      </trkpt>
      <trkpt lat="45.14222" lon="5.87476">
        <ele>1225.41</ele>
        <time>2020-08-01T08:10:03.000Z</time>
      </trkpt>
      <trkpt lat="45.14196" lon="5.87476">
        <ele>1227.15</ele>
        <time>2020-08-01T08:10:11.000Z</time>
      </trkpt>
      <trkpt lat="45.14177" lon="5.87479">
        <ele>1224.64</ele>
        <time>2020-08-01T08:10:16.000Z</time>
      </trkpt>
      <trkpt lat="45.14159" lon="5.87482">
        <ele>1226.69</ele>
        <time>2020-08-01T08:10:21.000Z</time>
      </trkpt>
      <trkpt lat="45.14143" lon="5.87483">
        <ele>1225.54</ele>
        <time>2020-08-01T08:10:26.000Z</time>
      </trkpt>
      <trkpt lat="45.14129" lon="5.87485">
        <ele>1225.46</ele>
        <time>2020-08-01T08:10:31.000Z</time>
      </trkpt>
      <trkpt lat="45.14113" lon="5.87491">
        <ele>1224.66</ele>
        <time>2020-08-01T08:10:36.000Z</time>
      </trkpt>
      <trkpt lat="45.14096" lon="5.875">
        <ele>1226.65</ele>
        <time>2020-08-01T08:10:41.000Z</time>
      </trkpt>
      <trkpt lat="45.14081" lon="5.87512">
        <ele>1226.89</ele>
        <time>2020-08-01T08:10:46.000Z</time>
      </trkpt>
      <trkpt lat="45.14066" lon="5.87524">
        <ele>1224.56</ele>
        <time>2020-08-01T08:10:51.000Z</time>
      </trkpt>
      <trkpt lat="45.14051" lon="5.87534">
        <ele>1224.23</ele>
        <time>2020-08-01T08:10:56.000Z</time>
      </trkpt>
      <trkpt lat="45.14036" lon="5.87542">
        <ele>1225.71</ele>
        <time>2020-08-01T08:11:01.000Z</time>
      </trkpt>
      <trkpt lat="45.1402" lon="5.87549">
        <ele>1224.1</ele>
        <time>2020-08-01T08:11:06.000Z</time>
      </trkpt>
      <trkpt lat="45.14004" lon="5.87559">
        <ele>1225.62</ele>
        <time>2020-08-01T08:11:11.000Z</time>
      </trkpt>
      <trkpt lat="45.13991" lon="5.87561">
        <ele>1225.06</ele>
        <time>2020-08-01T08:11:16.000Z</time>
      </trkpt>
      <trkpt lat="45.13979" lon="5.87542">
        <ele>1226.08</ele>
        <time>2020-08-01T08:11:21.000Z</time>
      </trkpt>
      <trkpt lat="45.13961" lon="5.87518">
        <ele>1229.31</ele>
        <time>2020-08-01T08:11:26.000Z</time>
      </trkpt>
      <trkpt lat="45.13937" lon="5.87473">
        <ele>1232.91</ele>
        <time>2020-08-01T08:11:37.000Z</time>
      </trkpt>
      <trkpt lat="45.13924" lon="5.87453">
        <ele>1236.63</ele>
        <time>2020-08-01T08:11:42.000Z</time>
      </trkpt>
      <trkpt lat="45.13913" lon="5.87435">
        <ele>1239.71</ele>
        <time>2020-08-01T08:11:47.000Z</time>
      </trkpt>
      <trkpt lat="45.13902" lon="5.87419">
        <ele>1242.12</ele>
        <time>2020-08-01T08:11:52.000Z</time>
      </trkpt>
      <trkpt lat="45.1388" lon="5.87403">
        <ele>1252.07</ele>
        <time>2020-08-01T08:11:57.000Z</time>
      </trkpt>
      <trkpt lat="45.1386" lon="5.87375">
        <ele>1256.63</ele>
        <time>2020-08-01T08:12:02.000Z</time>
      </trkpt>
      <trkpt lat="45.13834" lon="5.87374">
        <ele>1258.76</ele>
        <time>2020-08-01T08:12:07.000Z</time>
      </trkpt>
      <trkpt lat="45.13822" lon="5.87383">
        <ele>1262.07</ele>
        <time>2020-08-01T08:12:12.000Z</time>
      </trkpt>
      <trkpt lat="45.13813" lon="5.87391">
        <ele>1270.23</ele>
        <time>2020-08-01T08:12:17.000Z</time>
      </trkpt>
      <trkpt lat="45.13805" lon="5.87414">
        <ele>1273.93</ele>
        <time>2020-08-01T08:12:22.000Z</time>
      </trkpt>
      <trkpt lat="45.13807" lon="5.87437">
        <ele>1271.67</ele>
        <time>2020-08-01T08:12:27.000Z</time>
      </trkpt>
      <trkpt lat="45.13827" lon="5.87447">
        <ele>1270.7</ele>
        <time>2020-08-01T08:12:32.000Z</time>
      </trkpt>
      <trkpt lat="45.13851" lon="5.87439">
        <ele>1276.29</ele>
        <time>2020-08-01T08:12:37.000Z</time>
      </trkpt>
      <trkpt lat="45.13876" lon="5.87439">
        <ele>1276.06</ele>
        <time>2020-08-01T08:12:42.000Z</time>
      </trkpt>
      <trkpt lat="45.13891" lon="5.87465">
        <ele>1277.71</ele>
        <time>2020-08-01T08:12:47.000Z</time>
      </trkpt>
      <trkpt lat="45.13903" lon="5.87499">
        <ele>1274.81</ele>
        <time>2020-08-01T08:12:52.000Z</time>
      </trkpt>
      <trkpt lat="45.13914" lon="5.87526">
        <ele>1274.43</ele>
        <time>2020-08-01T08:12:57.000Z</time>
      </trkpt>
      <trkpt lat="45.13918" lon="5.87559">
        <ele>1273.16</ele>
        <time>2020-08-01T08:13:02.000Z</time>
      </trkpt>
      <trkpt lat="45.13917" lon="5.87586">
        <ele>1270.41</ele>
        <time>2020-08-01T08:13:07.000Z</time>
      </trkpt>
      <trkpt lat="45.13925" lon="5.87621">
        <ele>1266.75</ele>
        <time>2020-08-01T08:13:12.000Z</time>
      </trkpt>
      <trkpt lat="45.13938" lon="5.87641">
        <ele>1270.49</ele>
        <time>2020-08-01T08:13:17.000Z</time>
      </trkpt>
      <trkpt lat="45.13987" lon="5.87642">
        <ele>1272.58</ele>
        <time>2020-08-01T08:13:28.000Z</time>
      </trkpt>
      <trkpt lat="45.14011" lon="5.87631">
        <ele>1276.36</ele>
        <time>2020-08-01T08:13:33.000Z</time>
      </trkpt>
      <trkpt lat="45.14035" lon="5.8762">
        <ele>1279.56</ele>
        <time>2020-08-01T08:13:38.000Z</time>
      </trkpt>
      <trkpt lat="45.14053" lon="5.87603">
        <ele>1279.15</ele>
        <time>2020-08-01T08:13:43.000Z</time>
      </trkpt>
      <trkpt lat="45.14077" lon="5.87592">
        <ele>1277.71</ele>
        <time>2020-08-01T08:13:48.000Z</time>
      </trkpt>
      <trkpt lat="45.14102" lon="5.87574">
        <ele>1279.61</ele>
        <time>2020-08-01T08:13:53.000Z</time>
      </trkpt>
      <trkpt lat="45.14121" lon="5.87585">
        <ele>1281.72</ele>
        <time>2020-08-01T08:13:58.000Z</time>
      </trkpt>
      <trkpt lat="45.14143" lon="5.87586">
        <ele>1285.07</ele>
        <time>2020-08-01T08:14:03.000Z</time>
      </trkpt>
      <trkpt lat="45.14165" lon="5.87584">
        <ele>1287.62</ele>
        <time>2020-08-01T08:14:08.000Z</time>
      </trkpt>
      <trkpt lat="45.1419" lon="5.87599">
        <ele>1289.39</ele>
        <time>2020-08-01T08:14:13.000Z</time>
      </trkpt>
      <trkpt lat="45.1421" lon="5.8761">
        <ele>1289.86</ele>
        <time>2020-08-01T08:14:18.000Z</time>
      </trkpt>
      <trkpt lat="45.14233" lon="5.87625">
        <ele>1290.77</ele>
        <time>2020-08-01T08:14:23.000Z</time>
      </trkpt>
      <trkpt lat="45.14254" lon="5.87635">
        <ele>1291.65</ele>
        <time>2020-08-01T08:14:28.000Z</time>
      </trkpt>
      <trkpt lat="45.14273" lon="5.87641">
        <ele>1292.96</ele>
        <time>2020-08-01T08:14:33.000Z</time>
      </trkpt>
      <trkpt lat="45.14291" lon="5.87654">
        <ele>1295.82</ele>
        <time>2020-08-01T08:14:38.000Z</time>
      </trkpt>
      <trkpt lat="45.14313" lon="5.87667">
        <ele>1298.54</ele>
        <time>2020-08-01T08:14:43.000Z</time>
      </trkpt>
      <trkpt lat="45.14334" lon="5.87687">
        <ele>1298.55</ele>
        <time>2020-08-01T08:14:48.000Z</time>
      </trkpt>
      <trkpt lat="45.14358" lon="5.87698">
        <ele>1300.99</ele>
        <time>2020-08-01T08:14:53.000Z</time>
      </trkpt>
      <trkpt lat="45.14379" lon="5.87708">
        <ele>1303.2</ele>
        <time>2020-08-01T08:14:58.000Z</time>
      </trkpt>
      <trkpt lat="45.14399" lon="5.87715">
        <ele>1304.78</ele>
        <time>2020-08-01T08:15:03.000Z</time>
      </trkpt>
      <trkpt lat="45.14418" lon="5.87732">
        <ele>1307.24</ele>
        <time>2020-08-01T08:15:08.000Z</time>
      </trkpt>
      <trkpt lat="45.14433" lon="5.87751">
        <ele>1310.55</ele>
        <time>2020-08-01T08:15:13.000Z</time>
      </trkpt>
      <trkpt lat="45.14457" lon="5.87773">
        <ele>1308.01</ele>
        <time>2020-08-01T08:15:18.000Z</time>
      </trkpt>
      <trkpt lat="45.14473" lon="5.87795">
        <ele>1306.54</ele>
        <time>2020-08-01T08:15:23.000Z</time>
      </trkpt>
      <trkpt lat="45.1449" lon="5.87807">
        <ele>1310.62</ele>
        <time>2020-08-01T08:15:28.000Z</time>
      </trkpt>
      <trkpt lat="45.1451" lon="5.8782">
        <ele>1311.92</ele>
        <time>2020-08-01T08:15:33.000Z</time>
      </trkpt>
      <trkpt lat="45.14533" lon="5.87824">
        <ele>1313.7</ele>
        <time>2020-08-01T08:15:38.000Z</time>
      </trkpt>
      <trkpt lat="45.14555" lon="5.87827">
        <ele>1315.84</ele>
        <time>2020-08-01T08:15:43.000Z</time>
      </trkpt>
      <trkpt lat="45.14577" lon="5.87843">
        <ele>1315.89</ele>
        <time>2020-08-01T08:15:48.000Z</time>
      </trkpt>
      <trkpt lat="45.14596" lon="5.87859">
        <ele>1323.58</ele>
        <time>2020-08-01T08:15:53.000Z</time>
      </trkpt>
      <trkpt lat="45.14612" lon="5.87883">
        <ele>1324.88</ele>
        <time>2020-08-01T08:15:58.000Z</time>
      </trkpt>
      <trkpt lat="45.14613" lon="5.87911">
        <ele>1327.2</ele>
        <time>2020-08-01T08:16:03.000Z</time>
      </trkpt>
      <trkpt lat="45.14607" lon="5.87938">
        <ele>1331.38</ele>
        <time>2020-08-01T08:16:08.000Z</time>
      </trkpt>
      <trkpt lat="45.14612" lon="5.87972">
        <ele>1330.37</ele>
        <time>2020-08-01T08:16:13.000Z</time>
      </trkpt>
      <trkpt lat="45.14615" lon="5.87999">
        <ele>1331.03</ele>
        <time>2020-08-01T08:16:18.000Z</time>
      </trkpt>
      <trkpt lat="45.14626" lon="5.88029">
        <ele>1331.7</ele>
        <time>2020-08-01T08:16:23.000Z</time>
      </trkpt>
      <trkpt lat="45.14638" lon="5.88064">
        <ele>1330.86</ele>
        <time>2020-08-01T08:16:28.000Z</time>
      </trkpt>
      <trkpt lat="45.14634" lon="5.88091">
        <ele>1329.38</ele>
        <time>2020-08-01T08:16:33.000Z</time>
      </trkpt>
      <trkpt lat="45.1464" lon="5.8813">
        <ele>1329.28</ele>
        <time>2020-08-01T08:16:38.000Z</time>
      </trkpt>
      <trkpt lat="45.1464" lon="5.88169">
        <ele>1329.66</ele>
        <time>2020-08-01T08:16:43.000Z</time>
      </trkpt>
      <trkpt lat="45.14629" lon="5.88197">
        <ele>1331.17</ele>
        <time>2020-08-01T08:16:48.000Z</time>
      </trkpt>
      <trkpt lat="45.14635" lon="5.88228">
        <ele>1332.07</ele>
        <time>2020-08-01T08:16:53.000Z</time>
      </trkpt>
      <trkpt lat="45.14629" lon="5.88248">
        <ele>1334.95</ele>
        <time>2020-08-01T08:16:58.000Z</time>
      </trkpt>
      <trkpt lat="45.14617" lon="5.88274">
        <ele>1338.01</ele>
        <time>2020-08-01T08:17:03.000Z</time>
      </trkpt>
      <trkpt lat="45.14606" lon="5.88324">
        <ele>1335.7</ele>
        <time>2020-08-01T08:17:11.000Z</time>
      </trkpt>
      <trkpt lat="45.14602" lon="5.88356">
        <ele>1341.74</ele>
        <time>2020-08-01T08:17:16.000Z</time>
      </trkpt>
      <trkpt lat="45.14593" lon="5.88385">
        <ele>1343.06</ele>
        <time>2020-08-01T08:17:21.000Z</time>
      </trkpt>
      <trkpt lat="45.14586" lon="5.88417">
        <ele>1345.17</ele>
        <time>2020-08-01T08:17:26.000Z</time>
      </trkpt>
      <trkpt lat="45.14577" lon="5.88444">
        <ele>1346.06</ele>
        <time>2020-08-01T08:17:31.000Z</time>
      </trkpt>
      <trkpt lat="45.14563" lon="5.88474">
        <ele>1350.27</ele>
        <time>2020-08-01T08:17:36.000Z</time>
      </trkpt>
      <trkpt lat="45.1455" lon="5.88494">
        <ele>1353.15</ele>
        <time>2020-08-01T08:17:41.000Z</time>
      </trkpt>
      <trkpt lat="45.1453" lon="5.88514">
        <ele>1355.73</ele>
        <time>2020-08-01T08:17:46.000Z</time>
      </trkpt>
      <trkpt lat="45.14511" lon="5.88539">
        <ele>1356.24</ele>
        <time>2020-08-01T08:17:51.000Z</time>
      </trkpt>
      <trkpt lat="45.14496" lon="5.88562">
        <ele>1352.26</ele>
        <time>2020-08-01T08:17:56.000Z</time>
      </trkpt>
      <trkpt lat="45.14487" lon="5.88592">
        <ele>1349.97</ele>
        <time>2020-08-01T08:18:01.000Z</time>
      </trkpt>
      <trkpt lat="45.14483" lon="5.88622">
        <ele>1352.5</ele>
        <time>2020-08-01T08:18:06.000Z</time>
      </trkpt>
      <trkpt lat="45.14472" lon="5.88652">
        <ele>1354.57</ele>
        <time>2020-08-01T08:18:11.000Z</time>
      </trkpt>
      <trkpt lat="45.14463" lon="5.88678">
        <ele>1357.95</ele>
        <time>2020-08-01T08:18:16.000Z</time>
      </trkpt>
      <trkpt lat="45.14453" lon="5.88702">
        <ele>1360.19</ele>
        <time>2020-08-01T08:18:21.000Z</time>
      </trkpt>
      <trkpt lat="45.14431" lon="5.88716">
        <ele>1362.03</ele>
        <time>2020-08-01T08:18:26.000Z</time>
      </trkpt>
      <trkpt lat="45.14409" lon="5.88724">
        <ele>1362.05</ele>
        <time>2020-08-01T08:18:31.000Z</time>
      </trkpt>
      <trkpt lat="45.1439" lon="5.88734">
        <ele>1364.61</ele>
        <time>2020-08-01T08:18:36.000Z</time>
      </trkpt>
      <trkpt lat="45.14371" lon="5.88742">
        <ele>1364.07</ele>
        <time>2020-08-01T08:18:41.000Z</time>
      </trkpt>
      <trkpt lat="45.14348" lon="5.8875">
        <ele>1366.73</ele>
        <time>2020-08-01T08:18:46.000Z</time>
      </trkpt>
      <trkpt lat="45.14323" lon="5.88748">
        <ele>1368.24</ele>
        <time>2020-08-01T08:18:51.000Z</time>
      </trkpt>
      <trkpt lat="45.14301" lon="5.88764">
        <ele>1373.11</ele>
        <time>2020-08-01T08:18:56.000Z</time>
      </trkpt>
      <trkpt lat="45.14275" lon="5.88767">
        <ele>1378.02</ele>
        <time>2020-08-01T08:19:01.000Z</time>
      </trkpt>
      <trkpt lat="45.14252" lon="5.88772">
        <ele>1381.28</ele>
        <time>2020-08-01T08:19:06.000Z</time>
      </trkpt>
      <trkpt lat="45.14232" lon="5.88764">
        <ele>1379.28</ele>
        <time>2020-08-01T08:19:11.000Z</time>
      </trkpt>
      <trkpt lat="45.14214" lon="5.88766">
        <ele>1380.35</ele>
        <time>2020-08-01T08:19:16.000Z</time>
      </trkpt>
      <trkpt lat="45.14191" lon="5.88774">
        <ele>1379.29</ele>
        <time>2020-08-01T08:19:21.000Z</time>
      </trkpt>
      <trkpt lat="45.14172" lon="5.88783">
        <ele>1379.82</ele>
        <time>2020-08-01T08:19:26.000Z</time>
      </trkpt>
      <trkpt lat="45.14152" lon="5.8879">
        <ele>1381.02</ele>
        <time>2020-08-01T08:19:31.000Z</time>
      </trkpt>
      <trkpt lat="45.14138" lon="5.88809">
        <ele>1383.39</ele>
        <time>2020-08-01T08:19:36.000Z</time>
      </trkpt>
      <trkpt lat="45.14125" lon="5.88825">
        <ele>1382.71</ele>
        <time>2020-08-01T08:19:41.000Z</time>
      </trkpt>
      <trkpt lat="45.14116" lon="5.88826">
        <ele>1384.74</ele>
        <time>2020-08-01T08:19:56.000Z</time>
      </trkpt>
      <trkpt lat="45.14117" lon="5.88813">
        <ele>1390.49</ele>
        <time>2020-08-01T08:21:01.000Z</time>
      </trkpt>
      <trkpt lat="45.14122" lon="5.888">
        <ele>1395.24</ele>
        <time>2020-08-01T08:22:41.000Z</time>
      </trkpt>
      <trkpt lat="45.1413" lon="5.88779">
        <ele>1388.11</ele>
        <time>2020-08-01T08:22:46.000Z</time>
      </trkpt>
      <trkpt lat="45.14144" lon="5.88763">
        <ele>1390.8</ele>
        <time>2020-08-01T08:22:51.000Z</time>
      </trkpt>
      <trkpt lat="45.14165" lon="5.88762">
        <ele>1392.85</ele>
        <time>2020-08-01T08:22:56.000Z</time>
      </trkpt>
      <trkpt lat="45.14183" lon="5.8876">
        <ele>1394.15</ele>
        <time>2020-08-01T08:23:01.000Z</time>
      </trkpt>
      <trkpt lat="45.14201" lon="5.88755">
        <ele>1395.31</ele>
        <time>2020-08-01T08:23:06.000Z</time>
      </trkpt>
      <trkpt lat="45.14219" lon="5.88749">
        <ele>1395.81</ele>
        <time>2020-08-01T08:23:11.000Z</time>
      </trkpt>
      <trkpt lat="45.14242" lon="5.88743">
        <ele>1396.11</ele>
        <time>2020-08-01T08:23:16.000Z</time>
      </trkpt>
      <trkpt lat="45.1426" lon="5.88738">
        <ele>1395.99</ele>
        <time>2020-08-01T08:23:21.000Z</time>
      </trkpt>
      <trkpt lat="45.14278" lon="5.88731">
        <ele>1396.01</ele>
        <time>2020-08-01T08:23:26.000Z</time>
      </trkpt>
      <trkpt lat="45.14294" lon="5.88719">
        <ele>1397.8</ele>
        <time>2020-08-01T08:23:31.000Z</time>
      </trkpt>
      <trkpt lat="45.14311" lon="5.88705">
        <ele>1399</ele>
        <time>2020-08-01T08:23:36.000Z</time>
      </trkpt>
      <trkpt lat="45.1433" lon="5.88693">
        <ele>1400.06</ele>
        <time>2020-08-01T08:23:41.000Z</time>
      </trkpt>
      <trkpt lat="45.14348" lon="5.88682">
        <ele>1399.84</ele>
        <time>2020-08-01T08:23:46.000Z</time>
      </trkpt>
      <trkpt lat="45.14368" lon="5.88675">
        <ele>1397.73</ele>
        <time>2020-08-01T08:23:51.000Z</time>
      </trkpt>
      <trkpt lat="45.14389" lon="5.88665">
        <ele>1399.47</ele>
        <time>2020-08-01T08:23:56.000Z</time>
      </trkpt>
      <trkpt lat="45.14403" lon="5.8865">
        <ele>1401.11</ele>
        <time>2020-08-01T08:24:01.000Z</time>
      </trkpt>
      <trkpt lat="45.14418" lon="5.88633">
        <ele>1405.92</ele>
        <time>2020-08-01T08:24:06.000Z</time>
      </trkpt>
      <trkpt lat="45.1443" lon="5.88611">
        <ele>1404.4</ele>
        <time>2020-08-01T08:24:11.000Z</time>
      </trkpt>
      <trkpt lat="45.14437" lon="5.88588">
        <ele>1404.44</ele>
        <time>2020-08-01T08:24:16.000Z</time>
      </trkpt>
      <trkpt lat="45.14443" lon="5.88562">
        <ele>1404.09</ele>
        <time>2020-08-01T08:24:21.000Z</time>
      </trkpt>
      <trkpt lat="45.14447" lon="5.88538">
        <ele>1404.36</ele>
        <time>2020-08-01T08:24:26.000Z</time>
      </trkpt>
      <trkpt lat="45.14451" lon="5.88512">
        <ele>1406.06</ele>
        <time>2020-08-01T08:24:31.000Z</time>
      </trkpt>
      <trkpt lat="45.14456" lon="5.88486">
        <ele>1404.77</ele>
        <time>2020-08-01T08:24:36.000Z</time>
      </trkpt>
      <trkpt lat="45.14459" lon="5.8846">
        <ele>1406.6</ele>
        <time>2020-08-01T08:24:41.000Z</time>
      </trkpt>
      <trkpt lat="45.14464" lon="5.8843">
        <ele>1410.57</ele>
        <time>2020-08-01T08:24:46.000Z</time>
      </trkpt>
      <trkpt lat="45.14468" lon="5.88401">
        <ele>1412.97</ele>
        <time>2020-08-01T08:24:51.000Z</time>
      </trkpt>
      <trkpt lat="45.14472" lon="5.88376">
        <ele>1413.02</ele>
        <time>2020-08-01T08:24:56.000Z</time>
      </trkpt>
      <trkpt lat="45.14479" lon="5.88349">
        <ele>1412.6</ele>
        <time>2020-08-01T08:25:01.000Z</time>
      </trkpt>
      <trkpt lat="45.14492" lon="5.8832">
        <ele>1413.53</ele>
        <time>2020-08-01T08:25:06.000Z</time>
      </trkpt>
      <trkpt lat="45.14503" lon="5.88296">
        <ele>1413.53</ele>
        <time>2020-08-01T08:25:11.000Z</time>
      </trkpt>
      <trkpt lat="45.14512" lon="5.88269">
        <ele>1422.02</ele>
        <time>2020-08-01T08:25:16.000Z</time>
      </trkpt>
      <trkpt lat="45.14516" lon="5.88241">
        <ele>1422.43</ele>
        <time>2020-08-01T08:25:21.000Z</time>
      </trkpt>
      <trkpt lat="45.14515" lon="5.88214">
        <ele>1423.85</ele>
        <time>2020-08-01T08:25:26.000Z</time>
      </trkpt>
      <trkpt lat="45.14513" lon="5.88184">
        <ele>1425.98</ele>
        <time>2020-08-01T08:25:31.000Z</time>
      </trkpt>
      <trkpt lat="45.14511" lon="5.88157">
        <ele>1428.8</ele>
        <time>2020-08-01T08:25:36.000Z</time>
      </trkpt>
      <trkpt lat="45.14505" lon="5.88129">
        <ele>1427.48</ele>
        <time>2020-08-01T08:25:41.000Z</time>
      </trkpt>
      <trkpt lat="45.14494" lon="5.88104">
        <ele>1425.97</ele>
        <time>2020-08-01T08:25:46.000Z</time>
      </trkpt>
      <trkpt lat="45.14483" lon="5.88081">
        <ele>1426.95</ele>
        <time>2020-08-01T08:25:51.000Z</time>
      </trkpt>
      <trkpt lat="45.14469" lon="5.88059">
        <ele>1425.93</ele>
        <time>2020-08-01T08:25:56.000Z</time>
      </trkpt>
      <trkpt lat="45.14451" lon="5.88038">
        <ele>1425.06</ele>
        <time>2020-08-01T08:26:01.000Z</time>
      </trkpt>
      <trkpt lat="45.14435" lon="5.88024">
        <ele>1427.97</ele>
        <time>2020-08-01T08:26:06.000Z</time>
      </trkpt>
      <trkpt lat="45.14417" lon="5.88014">
        <ele>1431.93</ele>
        <time>2020-08-01T08:26:11.000Z</time>
      </trkpt>
      <trkpt lat="45.14398" lon="5.88003">
        <ele>1433.52</ele>
        <time>2020-08-01T08:26:16.000Z</time>
      </trkpt>
      <trkpt lat="45.1438" lon="5.87999">
        <ele>1435.04</ele>
        <time>2020-08-01T08:26:21.000Z</time>
      </trkpt>
      <trkpt lat="45.14362" lon="5.87989">
        <ele>1439.5</ele>
        <time>2020-08-01T08:26:26.000Z</time>
      </trkpt>
      <trkpt lat="45.14346" lon="5.8798">
        <ele>1440.2</ele>
        <time>2020-08-01T08:26:31.000Z</time>
      </trkpt>
      <trkpt lat="45.14327" lon="5.87975">
        <ele>1440.73</ele>
        <time>2020-08-01T08:26:36.000Z</time>
      </trkpt>
      <trkpt lat="45.14308" lon="5.87973">
        <ele>1445.02</ele>
        <time>2020-08-01T08:26:41.000Z</time>
      </trkpt>
      <trkpt lat="45.14289" lon="5.87975">
        <ele>1439.57</ele>
        <time>2020-08-01T08:26:46.000Z</time>
      </trkpt>
      <trkpt lat="45.14269" lon="5.8797">
        <ele>1440.57</ele>
        <time>2020-08-01T08:26:51.000Z</time>
      </trkpt>
      <trkpt lat="45.14249" lon="5.8796">
        <ele>1445.77</ele>
        <time>2020-08-01T08:26:56.000Z</time>
      </trkpt>
      <trkpt lat="45.1423" lon="5.87949">
        <ele>1450.32</ele>
        <time>2020-08-01T08:27:01.000Z</time>
      </trkpt>
      <trkpt lat="45.14211" lon="5.8794">
        <ele>1453.12</ele>
        <time>2020-08-01T08:27:06.000Z</time>
      </trkpt>
      <trkpt lat="45.14191" lon="5.87934">
        <ele>1453.15</ele>
        <time>2020-08-01T08:27:11.000Z</time>
      </trkpt>
      <trkpt lat="45.14172" lon="5.87932">
        <ele>1454.07</ele>
        <time>2020-08-01T08:27:16.000Z</time>
      </trkpt>
      <trkpt lat="45.14154" lon="5.87931">
        <ele>1455.83</ele>
        <time>2020-08-01T08:27:21.000Z</time>
      </trkpt>
      <trkpt lat="45.14128" lon="5.87942">
        <ele>1457.3</ele>
        <time>2020-08-01T08:27:29.000Z</time>
      </trkpt>
      <trkpt lat="45.14112" lon="5.87953">
        <ele>1460.22</ele>
        <time>2020-08-01T08:27:34.000Z</time>
      </trkpt>
      <trkpt lat="45.14096" lon="5.8796">
        <ele>1464.95</ele>
        <time>2020-08-01T08:27:39.000Z</time>
      </trkpt>
      <trkpt lat="45.14077" lon="5.8797">
        <ele>1466.58</ele>
        <time>2020-08-01T08:27:44.000Z</time>
      </trkpt>
      <trkpt lat="45.14058" lon="5.8798">
        <ele>1466.72</ele>
        <time>2020-08-01T08:27:49.000Z</time>
      </trkpt>
      <trkpt lat="45.1404" lon="5.87989">
        <ele>1463.82</ele>
        <time>2020-08-01T08:27:54.000Z</time>
      </trkpt>
      <trkpt lat="45.14014" lon="5.88">
        <ele>1460.8</ele>
        <time>2020-08-01T08:28:01.000Z</time>
      </trkpt>
      <trkpt lat="45.13993" lon="5.88007">
        <ele>1462.94</ele>
        <time>2020-08-01T08:28:06.000Z</time>
      </trkpt>
      <trkpt lat="45.13973" lon="5.88015">
        <ele>1468.51</ele>
        <time>2020-08-01T08:28:11.000Z</time>
      </trkpt>
      <trkpt lat="45.13955" lon="5.88022">
        <ele>1471.55</ele>
        <time>2020-08-01T08:28:16.000Z</time>
      </trkpt>
      <trkpt lat="45.13936" lon="5.88033">
        <ele>1471.59</ele>
        <time>2020-08-01T08:28:21.000Z</time>
      </trkpt>
      <trkpt lat="45.13916" lon="5.88042">
        <ele>1472.06</ele>
        <time>2020-08-01T08:28:26.000Z</time>
      </trkpt>
      <trkpt lat="45.13896" lon="5.88044">
        <ele>1476.14</ele>
        <time>2020-08-01T08:28:31.000Z</time>
      </trkpt>
      <trkpt lat="45.13878" lon="5.88048">
        <ele>1474.1</ele>
        <time>2020-08-01T08:28:36.000Z</time>
      </trkpt>
      <trkpt lat="45.13859" lon="5.88058">
        <ele>1476.15</ele>
        <time>2020-08-01T08:28:41.000Z</time>
      </trkpt>
      <trkpt lat="45.13838" lon="5.88062">
        <ele>1478.58</ele>
        <time>2020-08-01T08:28:46.000Z</time>
      </trkpt>
      <trkpt lat="45.13819" lon="5.88059">
        <ele>1479.11</ele>
        <time>2020-08-01T08:28:51.000Z</time>
      </trkpt>
      <trkpt lat="45.13799" lon="5.88055">
        <ele>1480.57</ele>
        <time>2020-08-01T08:28:56.000Z</time>
      </trkpt>
      <trkpt lat="45.1378" lon="5.88062">
        <ele>1477.17</ele>
        <time>2020-08-01T08:29:01.000Z</time>
      </trkpt>
      <trkpt lat="45.13763" lon="5.88069">
        <ele>1477.24</ele>
        <time>2020-08-01T08:29:06.000Z</time>
      </trkpt>
      <trkpt lat="45.13745" lon="5.88074">
        <ele>1479.01</ele>
        <time>2020-08-01T08:29:11.000Z</time>
      </trkpt>
      <trkpt lat="45.13727" lon="5.88082">
        <ele>1481.92</ele>
        <time>2020-08-01T08:29:16.000Z</time>
      </trkpt>
      <trkpt lat="45.13709" lon="5.88089">
        <ele>1481.35</ele>
        <time>2020-08-01T08:29:21.000Z</time>
      </trkpt>
      <trkpt lat="45.13689" lon="5.88085">
        <ele>1484.74</ele>
        <time>2020-08-01T08:29:26.000Z</time>
      </trkpt>
      <trkpt lat="45.13669" lon="5.88075">
        <ele>1486.88</ele>
        <time>2020-08-01T08:29:31.000Z</time>
      </trkpt>
      <trkpt lat="45.1365" lon="5.88072">
        <ele>1487.79</ele>
        <time>2020-08-01T08:29:36.000Z</time>
      </trkpt>
      <trkpt lat="45.13631" lon="5.88067">
        <ele>1488.8</ele>
        <time>2020-08-01T08:29:41.000Z</time>
      </trkpt>
      <trkpt lat="45.13613" lon="5.88064">
        <ele>1489.14</ele>
        <time>2020-08-01T08:29:46.000Z</time>
      </trkpt>
      <trkpt lat="45.13595" lon="5.88056">
        <ele>1491.42</ele>
        <time>2020-08-01T08:29:51.000Z</time>
      </trkpt>
      <trkpt lat="45.13573" lon="5.88047">
        <ele>1489.95</ele>
        <time>2020-08-01T08:29:56.000Z</time>
      </trkpt>
      <trkpt lat="45.13549" lon="5.88036">
        <ele>1493.88</ele>
        <time>2020-08-01T08:30:01.000Z</time>
      </trkpt>
      <trkpt lat="45.1353" lon="5.88026">
        <ele>1499.28</ele>
        <time>2020-08-01T08:30:06.000Z</time>
      </trkpt>
      <trkpt lat="45.13512" lon="5.88014">
        <ele>1504.39</ele>
        <time>2020-08-01T08:30:11.000Z</time>
      </trkpt>
      <trkpt lat="45.13494" lon="5.8801">
        <ele>1505.18</ele>
        <time>2020-08-01T08:30:16.000Z</time>
      </trkpt>
      <trkpt lat="45.13473" lon="5.88004">
        <ele>1507.72</ele>
        <time>2020-08-01T08:30:21.000Z</time>
      </trkpt>
      <trkpt lat="45.13452" lon="5.87988">
        <ele>1511.04</ele>
        <time>2020-08-01T08:30:26.000Z</time>
      </trkpt>
      <trkpt lat="45.13435" lon="5.87971">
        <ele>1512.96</ele>
        <time>2020-08-01T08:30:31.000Z</time>
      </trkpt>
      <trkpt lat="45.13418" lon="5.87956">
        <ele>1511.81</ele>
        <time>2020-08-01T08:30:36.000Z</time>
      </trkpt>
      <trkpt lat="45.13401" lon="5.87942">
        <ele>1513.11</ele>
        <time>2020-08-01T08:30:41.000Z</time>
      </trkpt>
      <trkpt lat="45.13385" lon="5.87923">
        <ele>1510.97</ele>
        <time>2020-08-01T08:30:46.000Z</time>
      </trkpt>
      <trkpt lat="45.13372" lon="5.879">
        <ele>1516.47</ele>
        <time>2020-08-01T08:30:51.000Z</time>
      </trkpt>
      <trkpt lat="45.13365" lon="5.87871">
        <ele>1518.8</ele>
        <time>2020-08-01T08:30:56.000Z</time>
      </trkpt>
      <trkpt lat="45.13363" lon="5.8784">
        <ele>1523.11</ele>
        <time>2020-08-01T08:31:01.000Z</time>
      </trkpt>
      <trkpt lat="45.13367" lon="5.87812">
        <ele>1525.21</ele>
        <time>2020-08-01T08:31:06.000Z</time>
      </trkpt>
      <trkpt lat="45.13375" lon="5.87786">
        <ele>1525.84</ele>
        <time>2020-08-01T08:31:11.000Z</time>
      </trkpt>
      <trkpt lat="45.13382" lon="5.87762">
        <ele>1525.97</ele>
        <time>2020-08-01T08:31:16.000Z</time>
      </trkpt>
      <trkpt lat="45.1339" lon="5.87736">
        <ele>1525.72</ele>
        <time>2020-08-01T08:31:21.000Z</time>
      </trkpt>
      <trkpt lat="45.13405" lon="5.87723">
        <ele>1525.7</ele>
        <time>2020-08-01T08:31:26.000Z</time>
      </trkpt>
      <trkpt lat="45.13413" lon="5.87703">
        <ele>1524.05</ele>
        <time>2020-08-01T08:31:31.000Z</time>
      </trkpt>
      <trkpt lat="45.13414" lon="5.87679">
        <ele>1522.11</ele>
        <time>2020-08-01T08:31:36.000Z</time>
      </trkpt>
      <trkpt lat="45.13402" lon="5.87654">
        <ele>1524.33</ele>
        <time>2020-08-01T08:31:41.000Z</time>
      </trkpt>
      <trkpt lat="45.13394" lon="5.87635">
        <ele>1527.3</ele>
        <time>2020-08-01T08:31:46.000Z</time>
      </trkpt>
      <trkpt lat="45.13384" lon="5.87616">
        <ele>1534.9</ele>
        <time>2020-08-01T08:31:51.000Z</time>
      </trkpt>
      <trkpt lat="45.13369" lon="5.876">
        <ele>1536.9</ele>
        <time>2020-08-01T08:31:56.000Z</time>
      </trkpt>
      <trkpt lat="45.1335" lon="5.87598">
        <ele>1537.55</ele>
        <time>2020-08-01T08:32:01.000Z</time>
      </trkpt>
      <trkpt lat="45.13331" lon="5.87597">
        <ele>1540.64</ele>
        <time>2020-08-01T08:32:06.000Z</time>
      </trkpt>
      <trkpt lat="45.13312" lon="5.87596">
        <ele>1543.69</ele>
        <time>2020-08-01T08:32:11.000Z</time>
      </trkpt>
      <trkpt lat="45.13296" lon="5.87598">
        <ele>1542.97</ele>
        <time>2020-08-01T08:32:16.000Z</time>
      </trkpt>
      <trkpt lat="45.13276" lon="5.87607">
        <ele>1538.93</ele>
        <time>2020-08-01T08:32:21.000Z</time>
      </trkpt>
      <trkpt lat="45.13257" lon="5.87612">
        <ele>1540.94</ele>
        <time>2020-08-01T08:32:26.000Z</time>
      </trkpt>
      <trkpt lat="45.13239" lon="5.87614">
        <ele>1539.4</ele>
        <time>2020-08-01T08:32:31.000Z</time>
      </trkpt>
      <trkpt lat="45.13219" lon="5.87609">
        <ele>1542.29</ele>
        <time>2020-08-01T08:32:36.000Z</time>
      </trkpt>
      <trkpt lat="45.13203" lon="5.87586">
        <ele>1543.75</ele>
        <time>2020-08-01T08:32:41.000Z</time>
      </trkpt>
      <trkpt lat="45.13192" lon="5.87559">
        <ele>1544.64</ele>
        <time>2020-08-01T08:32:46.000Z</time>
      </trkpt>
      <trkpt lat="45.13178" lon="5.87539">
        <ele>1543.3</ele>
        <time>2020-08-01T08:32:51.000Z</time>
      </trkpt>
      <trkpt lat="45.13163" lon="5.87512">
        <ele>1547.45</ele>
        <time>2020-08-01T08:32:56.000Z</time>
      </trkpt>
      <trkpt lat="45.13154" lon="5.87479">
        <ele>1550.53</ele>
        <time>2020-08-01T08:33:01.000Z</time>
      </trkpt>
      <trkpt lat="45.1315" lon="5.87457">
        <ele>1555.91</ele>
        <time>2020-08-01T08:33:06.000Z</time>
      </trkpt>
      <trkpt lat="45.13135" lon="5.87441">
        <ele>1555.7</ele>
        <time>2020-08-01T08:33:11.000Z</time>
      </trkpt>
      <trkpt lat="45.13116" lon="5.87435">
        <ele>1556.02</ele>
        <time>2020-08-01T08:33:16.000Z</time>
      </trkpt>
      <trkpt lat="45.13097" lon="5.87432">
        <ele>1556.32</ele>
        <time>2020-08-01T08:33:21.000Z</time>
      </trkpt>
      <trkpt lat="45.13077" lon="5.87425">
        <ele>1556.8</ele>
        <time>2020-08-01T08:33:26.000Z</time>
      </trkpt>
      <trkpt lat="45.13064" lon="5.87411">
        <ele>1556.79</ele>
        <time>2020-08-01T08:33:31.000Z</time>
      </trkpt>
      <trkpt lat="45.13057" lon="5.8738">
        <ele>1560.53</ele>
        <time>2020-08-01T08:33:36.000Z</time>
      </trkpt>
      <trkpt lat="45.13049" lon="5.87348">
        <ele>1561.96</ele>
        <time>2020-08-01T08:33:41.000Z</time>
      </trkpt>
      <trkpt lat="45.13037" lon="5.87328">
        <ele>1560.76</ele>
        <time>2020-08-01T08:33:46.000Z</time>
      </trkpt>
      <trkpt lat="45.13018" lon="5.87317">
        <ele>1562.14</ele>
        <time>2020-08-01T08:33:51.000Z</time>
      </trkpt>
      <trkpt lat="45.13" lon="5.87308">
        <ele>1562.27</ele>
        <time>2020-08-01T08:33:56.000Z</time>
      </trkpt>
      <trkpt lat="45.1298" lon="5.87302">
        <ele>1563.28</ele>
        <time>2020-08-01T08:34:01.000Z</time>
      </trkpt>
      <trkpt lat="45.12961" lon="5.87293">
        <ele>1561.29</ele>
        <time>2020-08-01T08:34:06.000Z</time>
      </trkpt>
      <trkpt lat="45.12942" lon="5.87281">
        <ele>1560.03</ele>
        <time>2020-08-01T08:34:11.000Z</time>
      </trkpt>
      <trkpt lat="45.12924" lon="5.87265">
        <ele>1562.55</ele>
        <time>2020-08-01T08:34:16.000Z</time>
      </trkpt>
      <trkpt lat="45.12908" lon="5.87246">
        <ele>1566.31</ele>
        <time>2020-08-01T08:34:21.000Z</time>
      </trkpt>
      <trkpt lat="45.12891" lon="5.87229">
        <ele>1568.23</ele>
        <time>2020-08-01T08:34:26.000Z</time>
      </trkpt>
      <trkpt lat="45.1287" lon="5.87224">
        <ele>1572.8</ele>
        <time>2020-08-01T08:34:31.000Z</time>
      </trkpt>
      <trkpt lat="45.12852" lon="5.87231">
        <ele>1574.54</ele>
        <time>2020-08-01T08:34:36.000Z</time>
      </trkpt>
      <trkpt lat="45.12834" lon="5.87238">
        <ele>1574.79</ele>
        <time>2020-08-01T08:34:41.000Z</time>
      </trkpt>
      <trkpt lat="45.12815" lon="5.87246">
        <ele>1577.76</ele>
        <time>2020-08-01T08:34:46.000Z</time>
      </trkpt>
      <trkpt lat="45.12797" lon="5.87251">
        <ele>1576.22</ele>
        <time>2020-08-01T08:34:51.000Z</time>
      </trkpt>
      <trkpt lat="45.12778" lon="5.87249">
        <ele>1576.3</ele>
        <time>2020-08-01T08:34:56.000Z</time>
      </trkpt>
      <trkpt lat="45.12759" lon="5.87235">
        <ele>1582.66</ele>
        <time>2020-08-01T08:35:01.000Z</time>
      </trkpt>
      <trkpt lat="45.12743" lon="5.87214">
        <ele>1585.68</ele>
        <time>2020-08-01T08:35:06.000Z</time>
      </trkpt>
      <trkpt lat="45.12729" lon="5.87191">
        <ele>1586.74</ele>
        <time>2020-08-01T08:35:11.000Z</time>
      </trkpt>
      <trkpt lat="45.12717" lon="5.8717">
        <ele>1589.58</ele>
        <time>2020-08-01T08:35:16.000Z</time>
      </trkpt>
      <trkpt lat="45.12705" lon="5.87149">
        <ele>1594.96</ele>
        <time>2020-08-01T08:35:21.000Z</time>
      </trkpt>
      <trkpt lat="45.12688" lon="5.87135">
        <ele>1599.23</ele>
        <time>2020-08-01T08:35:26.000Z</time>
      </trkpt>
      <trkpt lat="45.1267" lon="5.87132">
        <ele>1598.98</ele>
        <time>2020-08-01T08:35:31.000Z</time>
      </trkpt>
      <trkpt lat="45.12651" lon="5.8713">
        <ele>1598.26</ele>
        <time>2020-08-01T08:35:36.000Z</time>
      </trkpt>
      <trkpt lat="45.12634" lon="5.87123">
        <ele>1595.45</ele>
        <time>2020-08-01T08:35:41.000Z</time>
      </trkpt>
      <trkpt lat="45.12615" lon="5.87115">
        <ele>1597.86</ele>
        <time>2020-08-01T08:35:46.000Z</time>
      </trkpt>
      <trkpt lat="45.12596" lon="5.87108">
        <ele>1601.93</ele>
        <time>2020-08-01T08:35:51.000Z</time>
      </trkpt>
      <trkpt lat="45.12578" lon="5.87104">
        <ele>1600.5</ele>
        <time>2020-08-01T08:35:56.000Z</time>
      </trkpt>
      <trkpt lat="45.1256" lon="5.87101">
        <ele>1604.06</ele>
        <time>2020-08-01T08:36:01.000Z</time>
      </trkpt>
      <trkpt lat="45.12541" lon="5.87097">
        <ele>1607.02</ele>
        <time>2020-08-01T08:36:06.000Z</time>
      </trkpt>
      <trkpt lat="45.12521" lon="5.87093">
        <ele>1611.38</ele>
        <time>2020-08-01T08:36:11.000Z</time>
      </trkpt>
      <trkpt lat="45.12501" lon="5.87098">
        <ele>1610.91</ele>
        <time>2020-08-01T08:36:16.000Z</time>
      </trkpt>
      <trkpt lat="45.12484" lon="5.87109">
        <ele>1610.72</ele>
        <time>2020-08-01T08:36:21.000Z</time>
      </trkpt>
      <trkpt lat="45.12468" lon="5.87119">
        <ele>1609.39</ele>
        <time>2020-08-01T08:36:26.000Z</time>
      </trkpt>
      <trkpt lat="45.1245" lon="5.87129">
        <ele>1614.07</ele>
        <time>2020-08-01T08:36:31.000Z</time>
      </trkpt>
      <trkpt lat="45.12434" lon="5.87143">
        <ele>1614.74</ele>
        <time>2020-08-01T08:36:36.000Z</time>
      </trkpt>
      <trkpt lat="45.12422" lon="5.87162">
        <ele>1619.87</ele>
        <time>2020-08-01T08:36:41.000Z</time>
      </trkpt>
      <trkpt lat="45.12416" lon="5.8719">
        <ele>1621.76</ele>
        <time>2020-08-01T08:36:46.000Z</time>
      </trkpt>
      <trkpt lat="45.12417" lon="5.8722">
        <ele>1623.07</ele>
        <time>2020-08-01T08:36:51.000Z</time>
      </trkpt>
      <trkpt lat="45.12424" lon="5.87247">
        <ele>1625.33</ele>
        <time>2020-08-01T08:36:56.000Z</time>
      </trkpt>
      <trkpt lat="45.12437" lon="5.87269">
        <ele>1624.83</ele>
        <time>2020-08-01T08:37:01.000Z</time>
      </trkpt>
      <trkpt lat="45.12448" lon="5.87289">
        <ele>1626.6</ele>
        <time>2020-08-01T08:37:06.000Z</time>
      </trkpt>
      <trkpt lat="45.12464" lon="5.87308">
        <ele>1624.88</ele>
        <time>2020-08-01T08:37:11.000Z</time>
      </trkpt>
      <trkpt lat="45.12479" lon="5.87326">
        <ele>1624.42</ele>
        <time>2020-08-01T08:37:16.000Z</time>
      </trkpt>
      <trkpt lat="45.12494" lon="5.87349">
        <ele>1626.52</ele>
        <time>2020-08-01T08:37:21.000Z</time>
      </trkpt>
      <trkpt lat="45.12505" lon="5.87371">
        <ele>1628.14</ele>
        <time>2020-08-01T08:37:26.000Z</time>
      </trkpt>
      <trkpt lat="45.12513" lon="5.87395">
        <ele>1633.02</ele>
        <time>2020-08-01T08:37:31.000Z</time>
      </trkpt>
      <trkpt lat="45.12521" lon="5.87418">
        <ele>1632.7</ele>
        <time>2020-08-01T08:37:36.000Z</time>
      </trkpt>
      <trkpt lat="45.12531" lon="5.87445">
        <ele>1631.82</ele>
        <time>2020-08-01T08:37:41.000Z</time>
      </trkpt>
      <trkpt lat="45.12538" lon="5.87471">
        <ele>1633.5</ele>
        <time>2020-08-01T08:37:46.000Z</time>
      </trkpt>
      <trkpt lat="45.12545" lon="5.87494">
        <ele>1638.25</ele>
        <time>2020-08-01T08:37:51.000Z</time>
      </trkpt>
      <trkpt lat="45.12552" lon="5.87515">
        <ele>1638.17</ele>
        <time>2020-08-01T08:37:56.000Z</time>
      </trkpt>
      <trkpt lat="45.1255" lon="5.87538">
        <ele>1640.3</ele>
        <time>2020-08-01T08:38:01.000Z</time>
      </trkpt>
      <trkpt lat="45.1255" lon="5.87555">
        <ele>1639.82</ele>
        <time>2020-08-01T08:38:06.000Z</time>
      </trkpt>
      <trkpt lat="45.12553" lon="5.87567">
        <ele>1640.07</ele>
        <time>2020-08-01T08:41:27.000Z</time>
      </trkpt>
      <trkpt lat="45.12544" lon="5.87582">
        <ele>1642.73</ele>
        <time>2020-08-01T08:53:12.000Z</time>
      </trkpt>
      <trkpt lat="45.12522" lon="5.87621">
        <ele>1638.52</ele>
        <time>2020-08-01T08:53:17.000Z</time>
      </trkpt>
      <trkpt lat="45.12503" lon="5.87661">
        <ele>1636.6</ele>
        <time>2020-08-01T08:53:22.000Z</time>
      </trkpt>
      <trkpt lat="45.12474" lon="5.87696">
        <ele>1636.08</ele>
        <time>2020-08-01T08:53:27.000Z</time>
      </trkpt>
      <trkpt lat="45.1245" lon="5.87719">
        <ele>1636.5</ele>
        <time>2020-08-01T08:53:32.000Z</time>
      </trkpt>
      <trkpt lat="45.12433" lon="5.87731">
        <ele>1640.31</ele>
        <time>2020-08-01T08:53:37.000Z</time>
      </trkpt>
      <trkpt lat="45.12413" lon="5.87746">
        <ele>1644.42</ele>
        <time>2020-08-01T08:53:42.000Z</time>
      </trkpt>
      <trkpt lat="45.12396" lon="5.87762">
        <ele>1645.23</ele>
        <time>2020-08-01T08:53:47.000Z</time>
      </trkpt>
      <trkpt lat="45.12377" lon="5.87778">
        <ele>1646.56</ele>
        <time>2020-08-01T08:53:52.000Z</time>
      </trkpt>
      <trkpt lat="45.12357" lon="5.87788">
        <ele>1647.78</ele>
        <time>2020-08-01T08:53:57.000Z</time>
      </trkpt>
      <trkpt lat="45.12337" lon="5.87792">
        <ele>1648.56</ele>
        <time>2020-08-01T08:54:02.000Z</time>
      </trkpt>
      <trkpt lat="45.12317" lon="5.87785">
        <ele>1648.73</ele>
        <time>2020-08-01T08:54:07.000Z</time>
      </trkpt>
      <trkpt lat="45.12298" lon="5.87775">
        <ele>1648.77</ele>
        <time>2020-08-01T08:54:12.000Z</time>
      </trkpt>
      <trkpt lat="45.1228" lon="5.8776">
        <ele>1649.33</ele>
        <time>2020-08-01T08:54:17.000Z</time>
      </trkpt>
      <trkpt lat="45.12259" lon="5.87743">
        <ele>1648.34</ele>
        <time>2020-08-01T08:54:22.000Z</time>
      </trkpt>
      <trkpt lat="45.12236" lon="5.87723">
        <ele>1650.82</ele>
        <time>2020-08-01T08:54:27.000Z</time>
      </trkpt>
      <trkpt lat="45.12216" lon="5.87698">
        <ele>1650.61</ele>
        <time>2020-08-01T08:54:32.000Z</time>
      </trkpt>
      <trkpt lat="45.12194" lon="5.87672">
        <ele>1653.17</ele>
        <time>2020-08-01T08:54:37.000Z</time>
      </trkpt>
      <trkpt lat="45.12169" lon="5.87652">
        <ele>1650.5</ele>
        <time>2020-08-01T08:54:42.000Z</time>
      </trkpt>
      <trkpt lat="45.12147" lon="5.87621">
        <ele>1654.93</ele>
        <time>2020-08-01T08:54:47.000Z</time>
      </trkpt>
      <trkpt lat="45.12124" lon="5.87595">
        <ele>1657.97</ele>
        <time>2020-08-01T08:54:52.000Z</time>
      </trkpt>
      <trkpt lat="45.12103" lon="5.87565">
        <ele>1659.19</ele>
        <time>2020-08-01T08:54:57.000Z</time>
      </trkpt>
      <trkpt lat="45.12077" lon="5.87543">
        <ele>1658.43</ele>
        <time>2020-08-01T08:55:02.000Z</time>
      </trkpt>
      <trkpt lat="45.12045" lon="5.87542">
        <ele>1659.29</ele>
        <time>2020-08-01T08:55:07.000Z</time>
      </trkpt>
      <trkpt lat="45.12019" lon="5.87559">
        <ele>1661.24</ele>
        <time>2020-08-01T08:55:12.000Z</time>
      </trkpt>
      <trkpt lat="45.11993" lon="5.87566">
        <ele>1662.27</ele>
        <time>2020-08-01T08:55:17.000Z</time>
      </trkpt>
      <trkpt lat="45.11972" lon="5.87558">
        <ele>1663.25</ele>
        <time>2020-08-01T08:55:22.000Z</time>
      </trkpt>
      <trkpt lat="45.1195" lon="5.87546">
        <ele>1663.9</ele>
        <time>2020-08-01T08:55:27.000Z</time>
      </trkpt>
      <trkpt lat="45.11933" lon="5.87541">
        <ele>1663.74</ele>
        <time>2020-08-01T08:55:32.000Z</time>
      </trkpt>
      <trkpt lat="45.11907" lon="5.87535">
        <ele>1663.65</ele>
        <time>2020-08-01T08:55:37.000Z</time>
      </trkpt>
      <trkpt lat="45.11891" lon="5.87526">
        <ele>1664.13</ele>
        <time>2020-08-01T08:55:42.000Z</time>
      </trkpt>
      <trkpt lat="45.11874" lon="5.87511">
        <ele>1665.32</ele>
        <time>2020-08-01T08:55:47.000Z</time>
      </trkpt>
      <trkpt lat="45.11859" lon="5.87496">
        <ele>1665.3</ele>
        <time>2020-08-01T08:55:52.000Z</time>
      </trkpt>
      <trkpt lat="45.11838" lon="5.87486">
        <ele>1666.35</ele>
        <time>2020-08-01T08:55:57.000Z</time>
      </trkpt>
      <trkpt lat="45.11819" lon="5.87481">
        <ele>1667.2</ele>
        <time>2020-08-01T08:56:02.000Z</time>
      </trkpt>
      <trkpt lat="45.118" lon="5.87476">
        <ele>1668.34</ele>
        <time>2020-08-01T08:56:07.000Z</time>
      </trkpt>
      <trkpt lat="45.11783" lon="5.87465">
        <ele>1669.46</ele>
        <time>2020-08-01T08:56:12.000Z</time>
      </trkpt>
      <trkpt lat="45.11768" lon="5.8745">
        <ele>1669.81</ele>
        <time>2020-08-01T08:56:17.000Z</time>
      </trkpt>
      <trkpt lat="45.11758" lon="5.87429">
        <ele>1674.73</ele>
        <time>2020-08-01T08:56:22.000Z</time>
      </trkpt>
      <trkpt lat="45.1175" lon="5.87407">
        <ele>1676.5</ele>
        <time>2020-08-01T08:56:27.000Z</time>
      </trkpt>
      <trkpt lat="45.11743" lon="5.87384">
        <ele>1682</ele>
        <time>2020-08-01T08:56:32.000Z</time>
      </trkpt>
      <trkpt lat="45.11732" lon="5.87361">
        <ele>1678.96</ele>
        <time>2020-08-01T08:56:37.000Z</time>
      </trkpt>
      <trkpt lat="45.11716" lon="5.87347">
        <ele>1678.09</ele>
        <time>2020-08-01T08:56:42.000Z</time>
      </trkpt>
      <trkpt lat="45.11696" lon="5.87337">
        <ele>1683.89</ele>
        <time>2020-08-01T08:56:47.000Z</time>
      </trkpt>
      <trkpt lat="45.11677" lon="5.87327">
        <ele>1686.64</ele>
        <time>2020-08-01T08:56:52.000Z</time>
      </trkpt>
      <trkpt lat="45.11658" lon="5.8732">
        <ele>1688.33</ele>
        <time>2020-08-01T08:56:57.000Z</time>
      </trkpt>
      <trkpt lat="45.1164" lon="5.87313">
        <ele>1688.79</ele>
        <time>2020-08-01T08:57:02.000Z</time>
      </trkpt>
      <trkpt lat="45.11624" lon="5.87303">
        <ele>1692.92</ele>
        <time>2020-08-01T08:57:07.000Z</time>
      </trkpt>
      <trkpt lat="45.1161" lon="5.87294">
        <ele>1695.31</ele>
        <time>2020-08-01T08:57:12.000Z</time>
      </trkpt>
      <trkpt lat="45.11595" lon="5.873">
        <ele>1696.4</ele>
        <time>2020-08-01T08:57:17.000Z</time>
      </trkpt>
      <trkpt lat="45.1158" lon="5.87313">
        <ele>1698.28</ele>
        <time>2020-08-01T08:57:22.000Z</time>
      </trkpt>
      <trkpt lat="45.1157" lon="5.87329">
        <ele>1699.98</ele>
        <time>2020-08-01T08:57:27.000Z</time>
      </trkpt>
      <trkpt lat="45.11559" lon="5.87346">
        <ele>1702.24</ele>
        <time>2020-08-01T08:57:32.000Z</time>
      </trkpt>
      <trkpt lat="45.1155" lon="5.87365">
        <ele>1704.11</ele>
        <time>2020-08-01T08:57:37.000Z</time>
      </trkpt>
      <trkpt lat="45.11539" lon="5.87386">
        <ele>1703.61</ele>
        <time>2020-08-01T08:57:42.000Z</time>
      </trkpt>
      <trkpt lat="45.11523" lon="5.87404">
        <ele>1702.28</ele>
        <time>2020-08-01T08:57:47.000Z</time>
      </trkpt>
      <trkpt lat="45.115" lon="5.87416">
        <ele>1701.37</ele>
        <time>2020-08-01T08:57:52.000Z</time>
      </trkpt>
      <trkpt lat="45.11479" lon="5.87427">
        <ele>1697.7</ele>
        <time>2020-08-01T08:57:57.000Z</time>
      </trkpt>
      <trkpt lat="45.11461" lon="5.8744">
        <ele>1701.05</ele>
        <time>2020-08-01T08:58:02.000Z</time>
      </trkpt>
      <trkpt lat="45.11444" lon="5.87453">
        <ele>1701.48</ele>
        <time>2020-08-01T08:58:07.000Z</time>
      </trkpt>
      <trkpt lat="45.11423" lon="5.87459">
        <ele>1704.06</ele>
        <time>2020-08-01T08:58:12.000Z</time>
      </trkpt>
      <trkpt lat="45.11397" lon="5.87462">
        <ele>1709.52</ele>
        <time>2020-08-01T08:58:17.000Z</time>
      </trkpt>
      <trkpt lat="45.11374" lon="5.87469">
        <ele>1711.49</ele>
        <time>2020-08-01T08:58:22.000Z</time>
      </trkpt>
      <trkpt lat="45.11348" lon="5.87476">
        <ele>1713.52</ele>
        <time>2020-08-01T08:58:27.000Z</time>
      </trkpt>
      <trkpt lat="45.11321" lon="5.87474">
        <ele>1716.07</ele>
        <time>2020-08-01T08:58:32.000Z</time>
      </trkpt>
      <trkpt lat="45.11292" lon="5.8747">
        <ele>1721.69</ele>
        <time>2020-08-01T08:58:37.000Z</time>
      </trkpt>
      <trkpt lat="45.11264" lon="5.87463">
        <ele>1716.68</ele>
        <time>2020-08-01T08:58:42.000Z</time>
      </trkpt>
      <trkpt lat="45.11241" lon="5.87461">
        <ele>1718.71</ele>
        <time>2020-08-01T08:58:47.000Z</time>
      </trkpt>
      <trkpt lat="45.11218" lon="5.87457">
        <ele>1717.43</ele>
        <time>2020-08-01T08:58:52.000Z</time>
      </trkpt>
      <trkpt lat="45.11201" lon="5.87459">
        <ele>1718.99</ele>
        <time>2020-08-01T08:58:57.000Z</time>
      </trkpt>
      <trkpt lat="45.11184" lon="5.87459">
        <ele>1718.8</ele>
        <time>2020-08-01T08:59:02.000Z</time>
      </trkpt>
      <trkpt lat="45.11173" lon="5.8747">
        <ele>1717.59</ele>
        <time>2020-08-01T08:59:07.000Z</time>
      </trkpt>
      <trkpt lat="45.11169" lon="5.87483">
        <ele>1716.36</ele>
        <time>2020-08-01T08:59:12.000Z</time>
      </trkpt>
      <trkpt lat="45.11162" lon="5.87491">
        <ele>1718.09</ele>
        <time>2020-08-01T08:59:17.000Z</time>
      </trkpt>
      <trkpt lat="45.11152" lon="5.87491">
        <ele>1723.95</ele>
        <time>2020-08-01T08:59:57.000Z</time>
      </trkpt>
      <trkpt lat="45.11141" lon="5.87488">
        <ele>1717.81</ele>
        <time>2020-08-01T09:04:37.000Z</time>
      </trkpt>
      <trkpt lat="45.11122" lon="5.87481">
        <ele>1719.75</ele>
        <time>2020-08-01T09:04:42.000Z</time>
      </trkpt>
      <trkpt lat="45.11112" lon="5.87477">
        <ele>1715.85</ele>
        <time>2020-08-01T09:04:47.000Z</time>
      </trkpt>
      <trkpt lat="45.11103" lon="5.8747">
        <ele>1721.71</ele>
        <time>2020-08-01T09:04:53.000Z</time>
      </trkpt>
      <trkpt lat="45.11089" lon="5.87463">
        <ele>1722.12</ele>
        <time>2020-08-01T09:04:58.000Z</time>
      </trkpt>
      <trkpt lat="45.11072" lon="5.87454">
        <ele>1718.21</ele>
        <time>2020-08-01T09:05:03.000Z</time>
      </trkpt>
      <trkpt lat="45.11055" lon="5.87441">
        <ele>1716.72</ele>
        <time>2020-08-01T09:05:08.000Z</time>
      </trkpt>
      <trkpt lat="45.11037" lon="5.87418">
        <ele>1719.98</ele>
        <time>2020-08-01T09:05:13.000Z</time>
      </trkpt>
      <trkpt lat="45.11008" lon="5.87395">
        <ele>1719.89</ele>
        <time>2020-08-01T09:05:18.000Z</time>
      </trkpt>
      <trkpt lat="45.10967" lon="5.87372">
        <ele>1718.94</ele>
        <time>2020-08-01T09:05:23.000Z</time>
      </trkpt>
      <trkpt lat="45.10921" lon="5.87336">
        <ele>1719.51</ele>
        <time>2020-08-01T09:05:28.000Z</time>
      </trkpt>
      <trkpt lat="45.10871" lon="5.87284">
        <ele>1714.01</ele>
        <time>2020-08-01T09:05:33.000Z</time>
      </trkpt>
      <trkpt lat="45.10817" lon="5.8723">
        <ele>1715.3</ele>
        <time>2020-08-01T09:05:38.000Z</time>
      </trkpt>
      <trkpt lat="45.10759" lon="5.87178">
        <ele>1710.09</ele>
        <time>2020-08-01T09:05:43.000Z</time>
      </trkpt>
      <trkpt lat="45.10701" lon="5.87136">
        <ele>1706.04</ele>
        <time>2020-08-01T09:05:48.000Z</time>
      </trkpt>
      <trkpt lat="45.10631" lon="5.87126">
        <ele>1698.05</ele>
        <time>2020-08-01T09:05:53.000Z</time>
      </trkpt>
      <trkpt lat="45.10564" lon="5.87142">
        <ele>1692.77</ele>
        <time>2020-08-01T09:05:58.000Z</time>
      </trkpt>
      <trkpt lat="45.10488" lon="5.87119">
        <ele>1685.19</ele>
        <time>2020-08-01T09:06:03.000Z</time>
      </trkpt>
      <trkpt lat="45.10424" lon="5.87068">
        <ele>1686.9</ele>
        <time>2020-08-01T09:06:08.000Z</time>
      </trkpt>
      <trkpt lat="45.10371" lon="5.87073">
        <ele>1684.73</ele>
        <time>2020-08-01T09:06:13.000Z</time>
      </trkpt>
      <trkpt lat="45.10321" lon="5.87102">
        <ele>1680.99</ele>
        <time>2020-08-01T09:06:18.000Z</time>
      </trkpt>
      <trkpt lat="45.10255" lon="5.87079">
        <ele>1674.48</ele>
        <time>2020-08-01T09:06:23.000Z</time>
      </trkpt>
      <trkpt lat="45.1019" lon="5.87049">
        <ele>1672.22</ele>
        <time>2020-08-01T09:06:28.000Z</time>
      </trkpt>
      <trkpt lat="45.10121" lon="5.87013">
        <ele>1668.49</ele>
        <time>2020-08-01T09:06:33.000Z</time>
      </trkpt>
      <trkpt lat="45.10045" lon="5.87025">
        <ele>1663.66</ele>
        <time>2020-08-01T09:06:38.000Z</time>
      </trkpt>
      <trkpt lat="45.09972" lon="5.87026">
        <ele>1656.04</ele>
        <time>2020-08-01T09:06:43.000Z</time>
      </trkpt>
      <trkpt lat="45.09938" lon="5.86944">
        <ele>1649.31</ele>
        <time>2020-08-01T09:06:48.000Z</time>
      </trkpt>
      <trkpt lat="45.09944" lon="5.8685">
        <ele>1643.41</ele>
        <time>2020-08-01T09:06:53.000Z</time>
      </trkpt>
      <trkpt lat="45.09956" lon="5.86764">
        <ele>1640.06</ele>
        <time>2020-08-01T09:06:58.000Z</time>
      </trkpt>
      <trkpt lat="45.09911" lon="5.86728">
        <ele>1636.13</ele>
        <time>2020-08-01T09:07:03.000Z</time>
      </trkpt>
      <trkpt lat="45.09853" lon="5.86758">
        <ele>1631.54</ele>
        <time>2020-08-01T09:07:08.000Z</time>
      </trkpt>
      <trkpt lat="45.09806" lon="5.86824">
        <ele>1626.57</ele>
        <time>2020-08-01T09:07:13.000Z</time>
      </trkpt>
      <trkpt lat="45.09753" lon="5.86869">
        <ele>1621.59</ele>
        <time>2020-08-01T09:07:18.000Z</time>
      </trkpt>
      <trkpt lat="45.09725" lon="5.8686">
        <ele>1617.11</ele>
        <time>2020-08-01T09:07:23.000Z</time>
      </trkpt>
      <trkpt lat="45.09724" lon="5.86843">
        <ele>1606.33</ele>
        <time>2020-08-01T09:07:28.000Z</time>
      </trkpt>
      <trkpt lat="45.09725" lon="5.86823">
        <ele>1599.84</ele>
        <time>2020-08-01T09:07:33.000Z</time>
      </trkpt>
      <trkpt lat="45.09726" lon="5.86803">
        <ele>1595.34</ele>
        <time>2020-08-01T09:07:38.000Z</time>
      </trkpt>
      <trkpt lat="45.09725" lon="5.86782">
        <ele>1595.25</ele>
        <time>2020-08-01T09:07:43.000Z</time>
      </trkpt>
      <trkpt lat="45.09716" lon="5.86755">
        <ele>1594.92</ele>
        <time>2020-08-01T09:07:48.000Z</time>
      </trkpt>
      <trkpt lat="45.09696" lon="5.86715">
        <ele>1591.54</ele>
        <time>2020-08-01T09:07:53.000Z</time>
      </trkpt>
      <trkpt lat="45.09681" lon="5.86647">
        <ele>1595.4</ele>
        <time>2020-08-01T09:07:58.000Z</time>
      </trkpt>
      <trkpt lat="45.09706" lon="5.86582">
        <ele>1589.58</ele>
        <time>2020-08-01T09:08:03.000Z</time>
      </trkpt>
      <trkpt lat="45.09756" lon="5.86526">
        <ele>1588.16</ele>
        <time>2020-08-01T09:08:08.000Z</time>
      </trkpt>
      <trkpt lat="45.098" lon="5.86458">
        <ele>1575.5</ele>
        <time>2020-08-01T09:08:13.000Z</time>
      </trkpt>
      <trkpt lat="45.09872" lon="5.86422">
        <ele>1572.47</ele>
        <time>2020-08-01T09:08:18.000Z</time>
      </trkpt>
      <trkpt lat="45.09912" lon="5.86351">
        <ele>1569.59</ele>
        <time>2020-08-01T09:08:23.000Z</time>
      </trkpt>
      <trkpt lat="45.09974" lon="5.86315">
        <ele>1560.86</ele>
        <time>2020-08-01T09:08:28.000Z</time>
      </trkpt>
      <trkpt lat="45.10031" lon="5.86266">
        <ele>1559.08</ele>
        <time>2020-08-01T09:08:33.000Z</time>
      </trkpt>
      <trkpt lat="45.10097" lon="5.86255">
        <ele>1555.44</ele>
        <time>2020-08-01T09:08:38.000Z</time>
      </trkpt>
      <trkpt lat="45.10124" lon="5.86202">
        <ele>1548.89</ele>
        <time>2020-08-01T09:08:43.000Z</time>
      </trkpt>
      <trkpt lat="45.10117" lon="5.86102">
        <ele>1546.72</ele>
        <time>2020-08-01T09:08:48.000Z</time>
      </trkpt>
      <trkpt lat="45.10138" lon="5.86037">
        <ele>1541.46</ele>
        <time>2020-08-01T09:08:53.000Z</time>
      </trkpt>
      <trkpt lat="45.1019" lon="5.86028">
        <ele>1538.4</ele>
        <time>2020-08-01T09:08:58.000Z</time>
      </trkpt>
      <trkpt lat="45.10249" lon="5.86051">
        <ele>1537.44</ele>
        <time>2020-08-01T09:09:03.000Z</time>
      </trkpt>
      <trkpt lat="45.10287" lon="5.86027">
        <ele>1529.6</ele>
        <time>2020-08-01T09:09:08.000Z</time>
      </trkpt>
      <trkpt lat="45.10253" lon="5.85996">
        <ele>1522.33</ele>
        <time>2020-08-01T09:09:13.000Z</time>
      </trkpt>
      <trkpt lat="45.1021" lon="5.85942">
        <ele>1521.43</ele>
        <time>2020-08-01T09:09:18.000Z</time>
      </trkpt>
      <trkpt lat="45.1015" lon="5.85908">
        <ele>1517.4</ele>
        <time>2020-08-01T09:09:23.000Z</time>
      </trkpt>
      <trkpt lat="45.10084" lon="5.85866">
        <ele>1513.7</ele>
        <time>2020-08-01T09:09:28.000Z</time>
      </trkpt>
      <trkpt lat="45.10012" lon="5.85861">
        <ele>1508.66</ele>
        <time>2020-08-01T09:09:33.000Z</time>
      </trkpt>
      <trkpt lat="45.09942" lon="5.85849">
        <ele>1494.43</ele>
        <time>2020-08-01T09:09:38.000Z</time>
      </trkpt>
      <trkpt lat="45.0991" lon="5.85923">
        <ele>1490.24</ele>
        <time>2020-08-01T09:09:43.000Z</time>
      </trkpt>
      <trkpt lat="45.09887" lon="5.85984">
        <ele>1481.09</ele>
        <time>2020-08-01T09:09:48.000Z</time>
      </trkpt>
      <trkpt lat="45.09806" lon="5.85952">
        <ele>1481.82</ele>
        <time>2020-08-01T09:09:53.000Z</time>
      </trkpt>
      <trkpt lat="45.09749" lon="5.85909">
        <ele>1484.48</ele>
        <time>2020-08-01T09:09:58.000Z</time>
      </trkpt>
      <trkpt lat="45.09698" lon="5.85848">
        <ele>1483.8</ele>
        <time>2020-08-01T09:10:03.000Z</time>
      </trkpt>
      <trkpt lat="45.09634" lon="5.85809">
        <ele>1479.67</ele>
        <time>2020-08-01T09:10:08.000Z</time>
      </trkpt>
      <trkpt lat="45.09558" lon="5.85797">
        <ele>1468.24</ele>
        <time>2020-08-01T09:10:13.000Z</time>
      </trkpt>
      <trkpt lat="45.09486" lon="5.85791">
        <ele>1465.51</ele>
        <time>2020-08-01T09:10:18.000Z</time>
      </trkpt>
      <trkpt lat="45.09419" lon="5.85793">
        <ele>1462.26</ele>
        <time>2020-08-01T09:10:23.000Z</time>
      </trkpt>
      <trkpt lat="45.09348" lon="5.85791">
        <ele>1457.39</ele>
        <time>2020-08-01T09:10:28.000Z</time>
      </trkpt>
      <trkpt lat="45.09287" lon="5.8576">
        <ele>1445.76</ele>
        <time>2020-08-01T09:10:33.000Z</time>
      </trkpt>
      <trkpt lat="45.09219" lon="5.8576">
        <ele>1441.78</ele>
        <time>2020-08-01T09:10:38.000Z</time>
      </trkpt>
      <trkpt lat="45.09146" lon="5.85757">
        <ele>1439.26</ele>
        <time>2020-08-01T09:10:43.000Z</time>
      </trkpt>
      <trkpt lat="45.09076" lon="5.85749">
        <ele>1437.68</ele>
        <time>2020-08-01T09:10:48.000Z</time>
      </trkpt>
      <trkpt lat="45.08999" lon="5.85736">
        <ele>1437.45</ele>
        <time>2020-08-01T09:10:53.000Z</time>
      </trkpt>
      <trkpt lat="45.08927" lon="5.85746">
        <ele>1434.06</ele>
        <time>2020-08-01T09:10:58.000Z</time>
      </trkpt>
      <trkpt lat="45.08895" lon="5.85775">
        <ele>1421.46</ele>
        <time>2020-08-01T09:11:03.000Z</time>
      </trkpt>
      <trkpt lat="45.08894" lon="5.85751">
        <ele>1414.38</ele>
        <time>2020-08-01T09:11:08.000Z</time>
      </trkpt>
      <trkpt lat="45.08917" lon="5.85731">
        <ele>1409.77</ele>
        <time>2020-08-01T09:11:13.000Z</time>
      </trkpt>
      <trkpt lat="45.08952" lon="5.85709">
        <ele>1406.01</ele>
        <time>2020-08-01T09:11:18.000Z</time>
      </trkpt>
      <trkpt lat="45.0898" lon="5.85668">
        <ele>1402.28</ele>
        <time>2020-08-01T09:11:23.000Z</time>
      </trkpt>
      <trkpt lat="45.09013" lon="5.85628">
        <ele>1398.3</ele>
        <time>2020-08-01T09:11:28.000Z</time>
      </trkpt>
      <trkpt lat="45.09033" lon="5.85587">
        <ele>1395.14</ele>
        <time>2020-08-01T09:11:33.000Z</time>
      </trkpt>
      <trkpt lat="45.09065" lon="5.8554">
        <ele>1395.2</ele>
        <time>2020-08-01T09:11:38.000Z</time>
      </trkpt>
      <trkpt lat="45.09105" lon="5.85496">
        <ele>1393.15</ele>
        <time>2020-08-01T09:11:43.000Z</time>
      </trkpt>
      <trkpt lat="45.09144" lon="5.85458">
        <ele>1385.13</ele>
        <time>2020-08-01T09:11:48.000Z</time>
      </trkpt>
      <trkpt lat="45.09178" lon="5.8543">
        <ele>1383.39</ele>
        <time>2020-08-01T09:11:53.000Z</time>
      </trkpt>
      <trkpt lat="45.09185" lon="5.85422">
        <ele>1375.25</ele>
        <time>2020-08-01T09:12:17.000Z</time>
      </trkpt>
      <trkpt lat="45.09183" lon="5.85408">
        <ele>1378.72</ele>
        <time>2020-08-01T09:12:25.000Z</time>
      </trkpt>
      <trkpt lat="45.09164" lon="5.85391">
        <ele>1379.95</ele>
        <time>2020-08-01T09:12:30.000Z</time>
      </trkpt>
      <trkpt lat="45.09134" lon="5.85391">
        <ele>1378.34</ele>
        <time>2020-08-01T09:12:35.000Z</time>
      </trkpt>
      <trkpt lat="45.09101" lon="5.85404">
        <ele>1374.75</ele>
        <time>2020-08-01T09:12:40.000Z</time>
      </trkpt>
      <trkpt lat="45.09055" lon="5.85424">
        <ele>1369.65</ele>
        <time>2020-08-01T09:12:45.000Z</time>
      </trkpt>
      <trkpt lat="45.09014" lon="5.85461">
        <ele>1365.18</ele>
        <time>2020-08-01T09:12:50.000Z</time>
      </trkpt>
      <trkpt lat="45.08972" lon="5.85473">
        <ele>1359.08</ele>
        <time>2020-08-01T09:12:55.000Z</time>
      </trkpt>
      <trkpt lat="45.09006" lon="5.85406">
        <ele>1348.4</ele>
        <time>2020-08-01T09:13:00.000Z</time>
      </trkpt>
      <trkpt lat="45.0906" lon="5.85366">
        <ele>1335.65</ele>
        <time>2020-08-01T09:13:05.000Z</time>
      </trkpt>
      <trkpt lat="45.09098" lon="5.85308">
        <ele>1333.76</ele>
        <time>2020-08-01T09:13:10.000Z</time>
      </trkpt>
      <trkpt lat="45.09153" lon="5.85275">
        <ele>1334.09</ele>
        <time>2020-08-01T09:13:15.000Z</time>
      </trkpt>
      <trkpt lat="45.09211" lon="5.85237">
        <ele>1331.75</ele>
        <time>2020-08-01T09:13:20.000Z</time>
      </trkpt>
      <trkpt lat="45.09268" lon="5.85193">
        <ele>1328.27</ele>
        <time>2020-08-01T09:13:25.000Z</time>
      </trkpt>
      <trkpt lat="45.09316" lon="5.85194">
        <ele>1324.94</ele>
        <time>2020-08-01T09:13:30.000Z</time>
      </trkpt>
      <trkpt lat="45.09311" lon="5.85168">
        <ele>1321.04</ele>
        <time>2020-08-01T09:13:35.000Z</time>
      </trkpt>
      <trkpt lat="45.09274" lon="5.85171">
        <ele>1314.22</ele>
        <time>2020-08-01T09:13:40.000Z</time>
      </trkpt>
      <trkpt lat="45.0923" lon="5.8517">
        <ele>1314.26</ele>
        <time>2020-08-01T09:13:45.000Z</time>
      </trkpt>
      <trkpt lat="45.0918" lon="5.85159">
        <ele>1312.55</ele>
        <time>2020-08-01T09:13:50.000Z</time>
      </trkpt>
      <trkpt lat="45.09119" lon="5.85157">
        <ele>1310.97</ele>
        <time>2020-08-01T09:13:55.000Z</time>
      </trkpt>
      <trkpt lat="45.09063" lon="5.85128">
        <ele>1310.17</ele>
        <time>2020-08-01T09:14:00.000Z</time>
      </trkpt>
      <trkpt lat="45.09018" lon="5.85079">
        <ele>1312.81</ele>
        <time>2020-08-01T09:14:05.000Z</time>
      </trkpt>
      <trkpt lat="45.09012" lon="5.8502">
        <ele>1305.35</ele>
        <time>2020-08-01T09:14:10.000Z</time>
      </trkpt>
      <trkpt lat="45.09056" lon="5.85012">
        <ele>1300.71</ele>
        <time>2020-08-01T09:14:15.000Z</time>
      </trkpt>
      <trkpt lat="45.09112" lon="5.85032">
        <ele>1297.22</ele>
        <time>2020-08-01T09:14:20.000Z</time>
      </trkpt>
      <trkpt lat="45.09141" lon="5.85013">
        <ele>1297.9</ele>
        <time>2020-08-01T09:14:25.000Z</time>
      </trkpt>
      <trkpt lat="45.09155" lon="5.84959">
        <ele>1294.31</ele>
        <time>2020-08-01T09:14:30.000Z</time>
      </trkpt>
      <trkpt lat="45.09154" lon="5.84893">
        <ele>1288.2</ele>
        <time>2020-08-01T09:14:35.000Z</time>
      </trkpt>
      <trkpt lat="45.09168" lon="5.84826">
        <ele>1283.13</ele>
        <time>2020-08-01T09:14:40.000Z</time>
      </trkpt>
      <trkpt lat="45.09185" lon="5.84767">
        <ele>1282.64</ele>
        <time>2020-08-01T09:14:45.000Z</time>
      </trkpt>
      <trkpt lat="45.09219" lon="5.84821">
        <ele>1277.86</ele>
        <time>2020-08-01T09:14:50.000Z</time>
      </trkpt>
      <trkpt lat="45.09263" lon="5.84883">
        <ele>1267.91</ele>
        <time>2020-08-01T09:14:55.000Z</time>
      </trkpt>
      <trkpt lat="45.09311" lon="5.84936">
        <ele>1261.47</ele>
        <time>2020-08-01T09:15:00.000Z</time>
      </trkpt>
      <trkpt lat="45.09368" lon="5.84988">
        <ele>1256.2</ele>
        <time>2020-08-01T09:15:05.000Z</time>
      </trkpt>
      <trkpt lat="45.09435" lon="5.85019">
        <ele>1256.47</ele>
        <time>2020-08-01T09:15:10.000Z</time>
      </trkpt>
      <trkpt lat="45.09503" lon="5.85021">
        <ele>1257.31</ele>
        <time>2020-08-01T09:15:15.000Z</time>
      </trkpt>
      <trkpt lat="45.09561" lon="5.85039">
        <ele>1252.59</ele>
        <time>2020-08-01T09:15:20.000Z</time>
      </trkpt>
      <trkpt lat="45.09622" lon="5.85017">
        <ele>1242.57</ele>
        <time>2020-08-01T09:15:25.000Z</time>
      </trkpt>
      <trkpt lat="45.09694" lon="5.85013">
        <ele>1237.33</ele>
        <time>2020-08-01T09:15:30.000Z</time>
      </trkpt>
      <trkpt lat="45.09767" lon="5.85026">
        <ele>1236.52</ele>
        <time>2020-08-01T09:15:35.000Z</time>
      </trkpt>
      <trkpt lat="45.09842" lon="5.85068">
        <ele>1229.41</ele>
        <time>2020-08-01T09:15:40.000Z</time>
      </trkpt>
      <trkpt lat="45.09915" lon="5.85085">
        <ele>1224.25</ele>
        <time>2020-08-01T09:15:45.000Z</time>
      </trkpt>
      <trkpt lat="45.0998" lon="5.8513">
        <ele>1222.53</ele>
        <time>2020-08-01T09:15:50.000Z</time>
      </trkpt>
      <trkpt lat="45.10044" lon="5.85128">
        <ele>1215.92</ele>
        <time>2020-08-01T09:15:55.000Z</time>
      </trkpt>
      <trkpt lat="45.1011" lon="5.85113">
        <ele>1206.41</ele>
        <time>2020-08-01T09:16:00.000Z</time>
      </trkpt>
      <trkpt lat="45.10169" lon="5.85094">
        <ele>1197.1</ele>
        <time>2020-08-01T09:16:05.000Z</time>
      </trkpt>
      <trkpt lat="45.10238" lon="5.85107">
        <ele>1193.58</ele>
        <time>2020-08-01T09:16:10.000Z</time>
      </trkpt>
      <trkpt lat="45.10302" lon="5.85106">
        <ele>1188.24</ele>
        <time>2020-08-01T09:16:15.000Z</time>
      </trkpt>
      <trkpt lat="45.10344" lon="5.85097">
        <ele>1187.79</ele>
        <time>2020-08-01T09:16:20.000Z</time>
      </trkpt>
      <trkpt lat="45.10337" lon="5.85086">
        <ele>1179.52</ele>
        <time>2020-08-01T09:16:25.000Z</time>
      </trkpt>
      <trkpt lat="45.10329" lon="5.8508">
        <ele>1175.44</ele>
        <time>2020-08-01T09:16:30.000Z</time>
      </trkpt>
      <trkpt lat="45.10317" lon="5.8508">
        <ele>1176.91</ele>
        <time>2020-08-01T09:16:35.000Z</time>
      </trkpt>
      <trkpt lat="45.10292" lon="5.85084">
        <ele>1177.7</ele>
        <time>2020-08-01T09:16:40.000Z</time>
      </trkpt>
      <trkpt lat="45.10256" lon="5.85071">
        <ele>1176.45</ele>
        <time>2020-08-01T09:16:45.000Z</time>
      </trkpt>
      <trkpt lat="45.10213" lon="5.85042">
        <ele>1172.77</ele>
        <time>2020-08-01T09:16:50.000Z</time>
      </trkpt>
      <trkpt lat="45.10172" lon="5.85009">
        <ele>1171.62</ele>
        <time>2020-08-01T09:16:55.000Z</time>
      </trkpt>
      <trkpt lat="45.10115" lon="5.84991">
        <ele>1169.56</ele>
        <time>2020-08-01T09:17:00.000Z</time>
      </trkpt>
      <trkpt lat="45.10052" lon="5.84969">
        <ele>1165.35</ele>
        <time>2020-08-01T09:17:05.000Z</time>
      </trkpt>
      <trkpt lat="45.09994" lon="5.84952">
        <ele>1164.52</ele>
        <time>2020-08-01T09:17:10.000Z</time>
      </trkpt>
      <trkpt lat="45.09939" lon="5.84898">
        <ele>1166.38</ele>
        <time>2020-08-01T09:17:15.000Z</time>
      </trkpt>
      <trkpt lat="45.09885" lon="5.84859">
        <ele>1166.14</ele>
        <time>2020-08-01T09:17:20.000Z</time>
      </trkpt>
      <trkpt lat="45.09869" lon="5.84828">
        <ele>1166.96</ele>
        <time>2020-08-01T09:17:25.000Z</time>
      </trkpt>
      <trkpt lat="45.09904" lon="5.84836">
        <ele>1163.54</ele>
        <time>2020-08-01T09:17:30.000Z</time>
      </trkpt>
      <trkpt lat="45.09999" lon="5.84844">
        <ele>1154.73</ele>
        <time>2020-08-01T09:17:40.000Z</time>
      </trkpt>
      <trkpt lat="45.1005" lon="5.84836">
        <ele>1144</ele>
        <time>2020-08-01T09:17:45.000Z</time>
      </trkpt>
      <trkpt lat="45.10113" lon="5.84841">
        <ele>1137.08</ele>
        <time>2020-08-01T09:17:50.000Z</time>
      </trkpt>
      <trkpt lat="45.10184" lon="5.84744">
        <ele>1129.16</ele>
        <time>2020-08-01T09:17:59.000Z</time>
      </trkpt>
      <trkpt lat="45.10202" lon="5.8469">
        <ele>1116.83</ele>
        <time>2020-08-01T09:18:04.000Z</time>
      </trkpt>
      <trkpt lat="45.10198" lon="5.84634">
        <ele>1112.44</ele>
        <time>2020-08-01T09:18:09.000Z</time>
      </trkpt>
      <trkpt lat="45.10196" lon="5.84582">
        <ele>1107.88</ele>
        <time>2020-08-01T09:18:14.000Z</time>
      </trkpt>
      <trkpt lat="45.10201" lon="5.84538">
        <ele>1105.26</ele>
        <time>2020-08-01T09:18:19.000Z</time>
      </trkpt>
      <trkpt lat="45.1021" lon="5.84482">
        <ele>1106.22</ele>
        <time>2020-08-01T09:18:24.000Z</time>
      </trkpt>
      <trkpt lat="45.10231" lon="5.84419">
        <ele>1101.21</ele>
        <time>2020-08-01T09:18:29.000Z</time>
      </trkpt>
      <trkpt lat="45.10257" lon="5.84334">
        <ele>1093.61</ele>
        <time>2020-08-01T09:18:34.000Z</time>
      </trkpt>
      <trkpt lat="45.10298" lon="5.84261">
        <ele>1089.79</ele>
        <time>2020-08-01T09:18:39.000Z</time>
      </trkpt>
      <trkpt lat="45.10344" lon="5.84207">
        <ele>1085.46</ele>
        <time>2020-08-01T09:18:44.000Z</time>
      </trkpt>
      <trkpt lat="45.10407" lon="5.84227">
        <ele>1080.14</ele>
        <time>2020-08-01T09:18:49.000Z</time>
      </trkpt>
      <trkpt lat="45.10475" lon="5.8426">
        <ele>1075.81</ele>
        <time>2020-08-01T09:18:54.000Z</time>
      </trkpt>
      <trkpt lat="45.10545" lon="5.84293">
        <ele>1073.99</ele>
        <time>2020-08-01T09:18:59.000Z</time>
      </trkpt>
      <trkpt lat="45.10614" lon="5.84262">
        <ele>1072.73</ele>
        <time>2020-08-01T09:19:04.000Z</time>
      </trkpt>
      <trkpt lat="45.1068" lon="5.84234">
        <ele>1071.24</ele>
        <time>2020-08-01T09:19:09.000Z</time>
      </trkpt>
      <trkpt lat="45.10751" lon="5.842">
        <ele>1064.7</ele>
        <time>2020-08-01T09:19:14.000Z</time>
      </trkpt>
      <trkpt lat="45.10889" lon="5.84203">
        <ele>1055.92</ele>
        <time>2020-08-01T09:19:23.000Z</time>
      </trkpt>
      <trkpt lat="45.10969" lon="5.84189">
        <ele>1047.04</ele>
        <time>2020-08-01T09:19:28.000Z</time>
      </trkpt>
      <trkpt lat="45.11044" lon="5.84216">
        <ele>1024.39</ele>
        <time>2020-08-01T09:19:33.000Z</time>
      </trkpt>
      <trkpt lat="45.1111" lon="5.84237">
        <ele>1017.84</ele>
        <time>2020-08-01T09:19:38.000Z</time>
      </trkpt>
      <trkpt lat="45.11181" lon="5.84209">
        <ele>1013.17</ele>
        <time>2020-08-01T09:19:43.000Z</time>
      </trkpt>
      <trkpt lat="45.11274" lon="5.84179">
        <ele>1005.07</ele>
        <time>2020-08-01T09:19:50.000Z</time>
      </trkpt>
      <trkpt lat="45.1135" lon="5.84177">
        <ele>994.77</ele>
        <time>2020-08-01T09:19:55.000Z</time>
      </trkpt>
      <trkpt lat="45.11429" lon="5.84227">
        <ele>984.24</ele>
        <time>2020-08-01T09:20:00.000Z</time>
      </trkpt>
      <trkpt lat="45.11586" lon="5.84239">
        <ele>980.78</ele>
        <time>2020-08-01T09:20:10.000Z</time>
      </trkpt>
      <trkpt lat="45.11654" lon="5.84286">
        <ele>963.52</ele>
        <time>2020-08-01T09:20:15.000Z</time>
      </trkpt>
      <trkpt lat="45.11769" lon="5.8424">
        <ele>957.38</ele>
        <time>2020-08-01T09:20:24.000Z</time>
      </trkpt>
      <trkpt lat="45.11831" lon="5.84206">
        <ele>948.28</ele>
        <time>2020-08-01T09:20:29.000Z</time>
      </trkpt>
      <trkpt lat="45.1191" lon="5.8421">
        <ele>928.9</ele>
        <time>2020-08-01T09:20:34.000Z</time>
      </trkpt>
      <trkpt lat="45.11981" lon="5.8419">
        <ele>922.43</ele>
        <time>2020-08-01T09:20:39.000Z</time>
      </trkpt>
      <trkpt lat="45.1204" lon="5.84232">
        <ele>918.09</ele>
        <time>2020-08-01T09:20:44.000Z</time>
      </trkpt>
      <trkpt lat="45.12073" lon="5.84285">
        <ele>912.64</ele>
        <time>2020-08-01T09:20:49.000Z</time>
      </trkpt>
      <trkpt lat="45.12096" lon="5.84301">
        <ele>904.72</ele>
        <time>2020-08-01T09:20:54.000Z</time>
      </trkpt>
      <trkpt lat="45.12099" lon="5.84317">
        <ele>891.93</ele>
        <time>2020-08-01T09:21:47.000Z</time>
      </trkpt>
      <trkpt lat="45.12099" lon="5.84337">
        <ele>889.29</ele>
        <time>2020-08-01T09:21:52.000Z</time>
      </trkpt>
      <trkpt lat="45.12096" lon="5.84357">
        <ele>885.41</ele>
        <time>2020-08-01T09:21:57.000Z</time>
      </trkpt>
      <trkpt lat="45.12092" lon="5.84372">
        <ele>884.13</ele>
        <time>2020-08-01T09:22:02.000Z</time>
      </trkpt>
      <trkpt lat="45.12089" lon="5.84386">
        <ele>887.1</ele>
        <time>2020-08-01T09:22:08.000Z</time>
      </trkpt>
      <trkpt lat="45.12098" lon="5.84405">
        <ele>885.73</ele>
        <time>2020-08-01T09:22:16.000Z</time>
      </trkpt>
      <trkpt lat="45.12106" lon="5.84413">
        <ele>887.65</ele>
        <time>2020-08-01T09:22:26.000Z</time>
      </trkpt>
      <trkpt lat="45.12105" lon="5.84426">
        <ele>884.62</ele>
        <time>2020-08-01T09:22:34.000Z</time>
      </trkpt>
      <trkpt lat="45.12111" lon="5.84436">
        <ele>886.58</ele>
        <time>2020-08-01T09:22:44.000Z</time>
      </trkpt>
      <trkpt lat="45.12115" lon="5.84449">
        <ele>890.27</ele>
        <time>2020-08-01T09:22:57.000Z</time>
      </trkpt>
      <trkpt lat="45.12112" lon="5.84462">
        <ele>888.83</ele>
        <time>2020-08-01T09:23:04.000Z</time>
      </trkpt>
      <trkpt lat="45.12113" lon="5.84475">
        <ele>892.42</ele>
        <time>2020-08-01T09:24:53.000Z</time>
      </trkpt>
      <trkpt lat="45.12117" lon="5.84495">
        <ele>897.14</ele>
        <time>2020-08-01T09:24:58.000Z</time>
      </trkpt>
      <trkpt lat="45.12118" lon="5.84521">
        <ele>898.16</ele>
        <time>2020-08-01T09:25:03.000Z</time>
      </trkpt>
      <trkpt lat="45.12123" lon="5.84539">
        <ele>898.82</ele>
        <time>2020-08-01T09:25:08.000Z</time>
      </trkpt>
      <trkpt lat="45.1213" lon="5.84559">
        <ele>893.09</ele>
        <time>2020-08-01T09:25:13.000Z</time>
      </trkpt>
      <trkpt lat="45.1214" lon="5.84578">
        <ele>893.14</ele>
        <time>2020-08-01T09:25:18.000Z</time>
      </trkpt>
      <trkpt lat="45.12148" lon="5.84589">
        <ele>898.61</ele>
        <time>2020-08-01T09:25:23.000Z</time>
      </trkpt>
      <trkpt lat="45.12157" lon="5.84593">
        <ele>903.53</ele>
        <time>2020-08-01T09:25:28.000Z</time>
      </trkpt>
      <trkpt lat="45.1217" lon="5.84597">
        <ele>904.4</ele>
        <time>2020-08-01T09:25:33.000Z</time>
      </trkpt>
      <trkpt lat="45.12183" lon="5.84607">
        <ele>903.22</ele>
        <time>2020-08-01T09:25:38.000Z</time>
      </trkpt>
      <trkpt lat="45.12196" lon="5.84619">
        <ele>903.46</ele>
        <time>2020-08-01T09:25:43.000Z</time>
      </trkpt>
      <trkpt lat="45.12208" lon="5.84622">
        <ele>903.95</ele>
        <time>2020-08-01T09:25:48.000Z</time>
      </trkpt>
      <trkpt lat="45.12225" lon="5.84624">
        <ele>905.22</ele>
        <time>2020-08-01T09:25:53.000Z</time>
      </trkpt>
      <trkpt lat="45.12238" lon="5.84626">
        <ele>905.86</ele>
        <time>2020-08-01T09:25:58.000Z</time>
      </trkpt>
      <trkpt lat="45.12248" lon="5.84624">
        <ele>909.04</ele>
        <time>2020-08-01T09:26:05.000Z</time>
      </trkpt>
      <trkpt lat="45.12258" lon="5.84626">
        <ele>910.31</ele>
        <time>2020-08-01T09:26:11.000Z</time>
      </trkpt>
      <trkpt lat="45.1227" lon="5.84631">
        <ele>913.59</ele>
        <time>2020-08-01T09:26:16.000Z</time>
      </trkpt>
      <trkpt lat="45.1228" lon="5.84634">
        <ele>912.72</ele>
        <time>2020-08-01T09:26:21.000Z</time>
      </trkpt>
      <trkpt lat="45.12288" lon="5.84645">
        <ele>910.56</ele>
        <time>2020-08-01T09:26:26.000Z</time>
      </trkpt>
      <trkpt lat="45.12297" lon="5.84651">
        <ele>909.22</ele>
        <time>2020-08-01T09:26:31.000Z</time>
      </trkpt>
      <trkpt lat="45.12306" lon="5.84654">
        <ele>912.96</ele>
        <time>2020-08-01T09:26:36.000Z</time>
      </trkpt>
      <trkpt lat="45.12316" lon="5.84661">
        <ele>913.94</ele>
        <time>2020-08-01T09:26:41.000Z</time>
      </trkpt>
      <trkpt lat="45.12325" lon="5.84666">
        <ele>914.34</ele>
        <time>2020-08-01T09:26:50.000Z</time>
      </trkpt>
      <trkpt lat="45.12335" lon="5.84665">
        <ele>918.45</ele>
        <time>2020-08-01T09:27:36.000Z</time>
      </trkpt>
      <trkpt lat="45.12345" lon="5.84661">
        <ele>921.22</ele>
        <time>2020-08-01T09:27:41.000Z</time>
      </trkpt>
      <trkpt lat="45.12356" lon="5.84657">
        <ele>923.64</ele>
        <time>2020-08-01T09:27:46.000Z</time>
      </trkpt>
      <trkpt lat="45.12368" lon="5.84654">
        <ele>925.49</ele>
        <time>2020-08-01T09:27:51.000Z</time>
      </trkpt>
      <trkpt lat="45.1238" lon="5.84654">
        <ele>924.78</ele>
        <time>2020-08-01T09:27:56.000Z</time>
      </trkpt>
      <trkpt lat="45.12393" lon="5.84661">
        <ele>919.14</ele>
        <time>2020-08-01T09:28:01.000Z</time>
      </trkpt>
      <trkpt lat="45.12405" lon="5.84672">
        <ele>919.7</ele>
        <time>2020-08-01T09:28:06.000Z</time>
      </trkpt>
      <trkpt lat="45.12416" lon="5.84683">
        <ele>919.4</ele>
        <time>2020-08-01T09:28:11.000Z</time>
      </trkpt>
      <trkpt lat="45.12427" lon="5.84693">
        <ele>922.37</ele>
        <time>2020-08-01T09:28:16.000Z</time>
      </trkpt>
      <trkpt lat="45.12439" lon="5.84699">
        <ele>920.93</ele>
        <time>2020-08-01T09:28:21.000Z</time>
      </trkpt>
      <trkpt lat="45.12452" lon="5.84704">
        <ele>920.77</ele>
        <time>2020-08-01T09:28:26.000Z</time>
      </trkpt>
      <trkpt lat="45.12462" lon="5.84708">
        <ele>916.66</ele>
        <time>2020-08-01T09:28:31.000Z</time>
      </trkpt>
      <trkpt lat="45.12472" lon="5.84715">
        <ele>914.92</ele>
        <time>2020-08-01T09:28:36.000Z</time>
      </trkpt>
      <trkpt lat="45.12481" lon="5.84723">
        <ele>913.26</ele>
        <time>2020-08-01T09:28:41.000Z</time>
      </trkpt>
      <trkpt lat="45.12491" lon="5.84729">
        <ele>911.57</ele>
        <time>2020-08-01T09:28:46.000Z</time>
      </trkpt>
      <trkpt lat="45.12501" lon="5.84737">
        <ele>912.99</ele>
        <time>2020-08-01T09:28:51.000Z</time>
      </trkpt>
      <trkpt lat="45.12512" lon="5.84744">
        <ele>913.7</ele>
        <time>2020-08-01T09:28:56.000Z</time>
      </trkpt>
      <trkpt lat="45.12525" lon="5.84749">
        <ele>913.44</ele>
        <time>2020-08-01T09:29:01.000Z</time>
      </trkpt>
      <trkpt lat="45.12539" lon="5.84757">
        <ele>918.9</ele>
        <time>2020-08-01T09:29:06.000Z</time>
      </trkpt>
      <trkpt lat="45.1255" lon="5.84771">
        <ele>919.87</ele>
        <time>2020-08-01T09:29:11.000Z</time>
      </trkpt>
      <trkpt lat="45.12558" lon="5.84782">
        <ele>918.01</ele>
        <time>2020-08-01T09:29:16.000Z</time>
      </trkpt>
      <trkpt lat="45.12564" lon="5.84795">
        <ele>918</ele>
        <time>2020-08-01T09:29:22.000Z</time>
      </trkpt>
      <trkpt lat="45.12567" lon="5.8481">
        <ele>916.66</ele>
        <time>2020-08-01T09:29:27.000Z</time>
      </trkpt>
      <trkpt lat="45.12569" lon="5.84828">
        <ele>917.63</ele>
        <time>2020-08-01T09:29:32.000Z</time>
      </trkpt>
      <trkpt lat="45.12574" lon="5.84845">
        <ele>920.43</ele>
        <time>2020-08-01T09:29:37.000Z</time>
      </trkpt>
      <trkpt lat="45.12577" lon="5.84862">
        <ele>918.34</ele>
        <time>2020-08-01T09:29:42.000Z</time>
      </trkpt>
      <trkpt lat="45.12578" lon="5.84879">
        <ele>919.62</ele>
        <time>2020-08-01T09:29:47.000Z</time>
      </trkpt>
      <trkpt lat="45.12582" lon="5.84896">
        <ele>920.77</ele>
        <time>2020-08-01T09:29:52.000Z</time>
      </trkpt>
      <trkpt lat="45.12586" lon="5.84915">
        <ele>922.87</ele>
        <time>2020-08-01T09:29:57.000Z</time>
      </trkpt>
      <trkpt lat="45.12589" lon="5.8493">
        <ele>920.4</ele>
        <time>2020-08-01T09:30:02.000Z</time>
      </trkpt>
      <trkpt lat="45.12592" lon="5.84945">
        <ele>920.86</ele>
        <time>2020-08-01T09:30:07.000Z</time>
      </trkpt>
      <trkpt lat="45.12594" lon="5.84962">
        <ele>921.51</ele>
        <time>2020-08-01T09:30:12.000Z</time>
      </trkpt>
      <trkpt lat="45.12593" lon="5.84979">
        <ele>925.4</ele>
        <time>2020-08-01T09:30:17.000Z</time>
      </trkpt>
      <trkpt lat="45.12592" lon="5.84998">
        <ele>925.29</ele>
        <time>2020-08-01T09:30:22.000Z</time>
      </trkpt>
      <trkpt lat="45.12592" lon="5.85015">
        <ele>925.56</ele>
        <time>2020-08-01T09:30:27.000Z</time>
      </trkpt>
      <trkpt lat="45.12594" lon="5.85031">
        <ele>923.23</ele>
        <time>2020-08-01T09:30:32.000Z</time>
      </trkpt>
      <trkpt lat="45.12603" lon="5.85045">
        <ele>927.89</ele>
        <time>2020-08-01T09:30:37.000Z</time>
      </trkpt>
      <trkpt lat="45.12611" lon="5.85056">
        <ele>928.27</ele>
        <time>2020-08-01T09:30:42.000Z</time>
      </trkpt>
      <trkpt lat="45.1262" lon="5.85069">
        <ele>930.47</ele>
        <time>2020-08-01T09:30:47.000Z</time>
      </trkpt>
      <trkpt lat="45.1263" lon="5.85077">
        <ele>933.46</ele>
        <time>2020-08-01T09:30:52.000Z</time>
      </trkpt>
      <trkpt lat="45.12639" lon="5.85089">
        <ele>933.04</ele>
        <time>2020-08-01T09:30:57.000Z</time>
      </trkpt>
      <trkpt lat="45.12643" lon="5.85102">
        <ele>930.04</ele>
        <time>2020-08-01T09:31:03.000Z</time>
      </trkpt>
      <trkpt lat="45.12644" lon="5.85118">
        <ele>927.96</ele>
        <time>2020-08-01T09:31:08.000Z</time>
      </trkpt>
      <trkpt lat="45.12643" lon="5.85132">
        <ele>926.43</ele>
        <time>2020-08-01T09:31:13.000Z</time>
      </trkpt>
      <trkpt lat="45.1264" lon="5.85148">
        <ele>927.46</ele>
        <time>2020-08-01T09:31:18.000Z</time>
      </trkpt>
      <trkpt lat="45.12636" lon="5.85162">
        <ele>925.18</ele>
        <time>2020-08-01T09:31:23.000Z</time>
      </trkpt>
      <trkpt lat="45.12632" lon="5.85175">
        <ele>921.91</ele>
        <time>2020-08-01T09:31:28.000Z</time>
      </trkpt>
      <trkpt lat="45.12633" lon="5.8519">
        <ele>921.85</ele>
        <time>2020-08-01T09:31:33.000Z</time>
      </trkpt>
      <trkpt lat="45.12634" lon="5.85204">
        <ele>923.82</ele>
        <time>2020-08-01T09:31:38.000Z</time>
      </trkpt>
      <trkpt lat="45.12633" lon="5.8522">
        <ele>927.23</ele>
        <time>2020-08-01T09:31:44.000Z</time>
      </trkpt>
      <trkpt lat="45.12634" lon="5.85232">
        <ele>927.26</ele>
        <time>2020-08-01T09:31:55.000Z</time>
      </trkpt>
      <trkpt lat="45.12626" lon="5.85242">
        <ele>929.2</ele>
        <time>2020-08-01T09:32:11.000Z</time>
      </trkpt>
      <trkpt lat="45.12626" lon="5.85256">
        <ele>930.28</ele>
        <time>2020-08-01T09:32:17.000Z</time>
      </trkpt>
      <trkpt lat="45.12631" lon="5.85268">
        <ele>937.69</ele>
        <time>2020-08-01T09:32:24.000Z</time>
      </trkpt>
      <trkpt lat="45.12626" lon="5.8528">
        <ele>939.32</ele>
        <time>2020-08-01T09:32:33.000Z</time>
      </trkpt>
      <trkpt lat="45.12624" lon="5.85293">
        <ele>942.42</ele>
        <time>2020-08-01T09:32:41.000Z</time>
      </trkpt>
      <trkpt lat="45.12617" lon="5.85304">
        <ele>940.99</ele>
        <time>2020-08-01T09:32:47.000Z</time>
      </trkpt>
      <trkpt lat="45.12608" lon="5.8531">
        <ele>941.31</ele>
        <time>2020-08-01T09:32:59.000Z</time>
      </trkpt>
      <trkpt lat="45.12605" lon="5.85323">
        <ele>939.84</ele>
        <time>2020-08-01T09:33:08.000Z</time>
      </trkpt>
      <trkpt lat="45.12606" lon="5.85337">
        <ele>946.32</ele>
        <time>2020-08-01T09:33:14.000Z</time>
      </trkpt>
      <trkpt lat="45.12604" lon="5.85351">
        <ele>949.26</ele>
        <time>2020-08-01T09:33:24.000Z</time>
      </trkpt>
      <trkpt lat="45.12602" lon="5.85364">
        <ele>952.45</ele>
        <time>2020-08-01T09:33:31.000Z</time>
      </trkpt>
      <trkpt lat="45.12598" lon="5.85376">
        <ele>956.59</ele>
        <time>2020-08-01T09:33:38.000Z</time>
      </trkpt>
      <trkpt lat="45.12591" lon="5.85387">
        <ele>951.9</ele>
        <time>2020-08-01T09:33:43.000Z</time>
      </trkpt>
      <trkpt lat="45.12584" lon="5.85397">
        <ele>955.02</ele>
        <time>2020-08-01T09:33:49.000Z</time>
      </trkpt>
      <trkpt lat="45.1258" lon="5.8541">
        <ele>950.77</ele>
        <time>2020-08-01T09:33:56.000Z</time>
      </trkpt>
      <trkpt lat="45.1258" lon="5.85424">
        <ele>953.09</ele>
        <time>2020-08-01T09:34:04.000Z</time>
      </trkpt>
      <trkpt lat="45.12579" lon="5.85438">
        <ele>959.52</ele>
        <time>2020-08-01T09:34:12.000Z</time>
      </trkpt>
      <trkpt lat="45.12582" lon="5.85452">
        <ele>962.96</ele>
        <time>2020-08-01T09:34:17.000Z</time>
      </trkpt>
      <trkpt lat="45.12584" lon="5.85465">
        <ele>963.62</ele>
        <time>2020-08-01T09:34:24.000Z</time>
      </trkpt>
      <trkpt lat="45.12581" lon="5.85477">
        <ele>964.31</ele>
        <time>2020-08-01T09:34:32.000Z</time>
      </trkpt>
      <trkpt lat="45.12583" lon="5.85491">
        <ele>963.37</ele>
        <time>2020-08-01T09:34:39.000Z</time>
      </trkpt>
      <trkpt lat="45.12583" lon="5.85505">
        <ele>961.77</ele>
        <time>2020-08-01T09:34:45.000Z</time>
      </trkpt>
      <trkpt lat="45.12581" lon="5.85519">
        <ele>962.79</ele>
        <time>2020-08-01T09:34:53.000Z</time>
      </trkpt>
      <trkpt lat="45.12579" lon="5.85533">
        <ele>962.71</ele>
        <time>2020-08-01T09:35:00.000Z</time>
      </trkpt>
      <trkpt lat="45.1258" lon="5.85546">
        <ele>963.53</ele>
        <time>2020-08-01T09:35:09.000Z</time>
      </trkpt>
      <trkpt lat="45.1258" lon="5.85559">
        <ele>961.63</ele>
        <time>2020-08-01T09:35:17.000Z</time>
      </trkpt>
      <trkpt lat="45.12574" lon="5.85569">
        <ele>963.63</ele>
        <time>2020-08-01T09:35:23.000Z</time>
      </trkpt>
      <trkpt lat="45.12576" lon="5.85582">
        <ele>965.72</ele>
        <time>2020-08-01T09:35:37.000Z</time>
      </trkpt>
      <trkpt lat="45.12585" lon="5.8559">
        <ele>960.86</ele>
        <time>2020-08-01T09:39:21.000Z</time>
      </trkpt>
      <trkpt lat="45.12595" lon="5.85591">
        <ele>956.74</ele>
        <time>2020-08-01T09:39:26.000Z</time>
      </trkpt>
      <trkpt lat="45.12605" lon="5.85592">
        <ele>952.39</ele>
        <time>2020-08-01T09:39:31.000Z</time>
      </trkpt>
      <trkpt lat="45.12616" lon="5.85591">
        <ele>952.47</ele>
        <time>2020-08-01T09:39:36.000Z</time>
      </trkpt>
      <trkpt lat="45.12628" lon="5.85592">
        <ele>952.44</ele>
        <time>2020-08-01T09:39:41.000Z</time>
      </trkpt>
      <trkpt lat="45.12642" lon="5.85591">
        <ele>950.12</ele>
        <time>2020-08-01T09:39:46.000Z</time>
      </trkpt>
      <trkpt lat="45.12653" lon="5.85593">
        <ele>949.6</ele>
        <time>2020-08-01T09:39:51.000Z</time>
      </trkpt>
      <trkpt lat="45.12665" lon="5.85593">
        <ele>950.59</ele>
        <time>2020-08-01T09:39:56.000Z</time>
      </trkpt>
      <trkpt lat="45.12675" lon="5.85596">
        <ele>952.26</ele>
        <time>2020-08-01T09:40:01.000Z</time>
      </trkpt>
      <trkpt lat="45.12685" lon="5.85592">
        <ele>955.95</ele>
        <time>2020-08-01T09:40:06.000Z</time>
      </trkpt>
      <trkpt lat="45.12694" lon="5.85587">
        <ele>953.52</ele>
        <time>2020-08-01T09:40:11.000Z</time>
      </trkpt>
      <trkpt lat="45.12705" lon="5.85585">
        <ele>952.98</ele>
        <time>2020-08-01T09:40:16.000Z</time>
      </trkpt>
      <trkpt lat="45.12714" lon="5.8558">
        <ele>955.02</ele>
        <time>2020-08-01T09:40:22.000Z</time>
      </trkpt>
      <trkpt lat="45.12722" lon="5.85572">
        <ele>956.4</ele>
        <time>2020-08-01T09:40:27.000Z</time>
      </trkpt>
      <trkpt lat="45.12731" lon="5.85569">
        <ele>958.41</ele>
        <time>2020-08-01T09:40:32.000Z</time>
      </trkpt>
      <trkpt lat="45.12741" lon="5.8556">
        <ele>953.75</ele>
        <time>2020-08-01T09:40:39.000Z</time>
      </trkpt>
      <trkpt lat="45.12752" lon="5.85553">
        <ele>951.25</ele>
        <time>2020-08-01T09:40:44.000Z</time>
      </trkpt>
      <trkpt lat="45.12763" lon="5.8554">
        <ele>952.95</ele>
        <time>2020-08-01T09:40:49.000Z</time>
      </trkpt>
      <trkpt lat="45.12771" lon="5.85529">
        <ele>950.05</ele>
        <time>2020-08-01T09:40:54.000Z</time>
      </trkpt>
      <trkpt lat="45.12779" lon="5.85519">
        <ele>949.45</ele>
        <time>2020-08-01T09:41:00.000Z</time>
      </trkpt>
      <trkpt lat="45.12789" lon="5.85516">
        <ele>944.63</ele>
        <time>2020-08-01T09:41:07.000Z</time>
      </trkpt>
      <trkpt lat="45.12799" lon="5.85514">
        <ele>944.28</ele>
        <time>2020-08-01T09:41:12.000Z</time>
      </trkpt>
      <trkpt lat="45.12809" lon="5.85513">
        <ele>947.18</ele>
        <time>2020-08-01T09:41:18.000Z</time>
      </trkpt>
      <trkpt lat="45.12818" lon="5.85513">
        <ele>946.44</ele>
        <time>2020-08-01T09:41:23.000Z</time>
      </trkpt>
      <trkpt lat="45.12827" lon="5.85505">
        <ele>947.18</ele>
        <time>2020-08-01T09:41:29.000Z</time>
      </trkpt>
      <trkpt lat="45.12836" lon="5.85493">
        <ele>945.54</ele>
        <time>2020-08-01T09:41:34.000Z</time>
      </trkpt>
      <trkpt lat="45.12842" lon="5.85481">
        <ele>947.29</ele>
        <time>2020-08-01T09:41:39.000Z</time>
      </trkpt>
      <trkpt lat="45.12849" lon="5.85468">
        <ele>948.65</ele>
        <time>2020-08-01T09:41:44.000Z</time>
      </trkpt>
      <trkpt lat="45.12858" lon="5.85458">
        <ele>949.96</ele>
        <time>2020-08-01T09:41:49.000Z</time>
      </trkpt>
      <trkpt lat="45.12864" lon="5.85442">
        <ele>947.03</ele>
        <time>2020-08-01T09:41:54.000Z</time>
      </trkpt>
      <trkpt lat="45.12868" lon="5.85427">
        <ele>949.71</ele>
        <time>2020-08-01T09:41:59.000Z</time>
      </trkpt>
      <trkpt lat="45.12873" lon="5.85413">
        <ele>951.72</ele>
        <time>2020-08-01T09:42:04.000Z</time>
      </trkpt>
      <trkpt lat="45.12882" lon="5.85402">
        <ele>948.96</ele>
        <time>2020-08-01T09:42:09.000Z</time>
      </trkpt>
      <trkpt lat="45.12892" lon="5.85397">
        <ele>948.81</ele>
        <time>2020-08-01T09:42:14.000Z</time>
      </trkpt>
      <trkpt lat="45.12903" lon="5.85393">
        <ele>947.96</ele>
        <time>2020-08-01T09:42:19.000Z</time>
      </trkpt>
      <trkpt lat="45.12912" lon="5.85387">
        <ele>944.9</ele>
        <time>2020-08-01T09:42:25.000Z</time>
      </trkpt>
      <trkpt lat="45.12924" lon="5.85383">
        <ele>946.26</ele>
        <time>2020-08-01T09:42:30.000Z</time>
      </trkpt>
      <trkpt lat="45.12935" lon="5.85375">
        <ele>949.51</ele>
        <time>2020-08-01T09:42:35.000Z</time>
      </trkpt>
      <trkpt lat="45.12947" lon="5.85369">
        <ele>947.6</ele>
        <time>2020-08-01T09:42:40.000Z</time>
      </trkpt>
      <trkpt lat="45.12954" lon="5.85361">
        <ele>946.62</ele>
        <time>2020-08-01T09:42:45.000Z</time>
      </trkpt>
      <trkpt lat="45.12962" lon="5.85357">
        <ele>948.16</ele>
        <time>2020-08-01T09:42:50.000Z</time>
      </trkpt>
      <trkpt lat="45.12967" lon="5.85343">
        <ele>947.76</ele>
        <time>2020-08-01T09:42:55.000Z</time>
      </trkpt>
      <trkpt lat="45.1297" lon="5.85321">
        <ele>946.52</ele>
        <time>2020-08-01T09:43:00.000Z</time>
      </trkpt>
      <trkpt lat="45.1297" lon="5.85298">
        <ele>948.62</ele>
        <time>2020-08-01T09:43:05.000Z</time>
      </trkpt>
      <trkpt lat="45.12968" lon="5.85275">
        <ele>949.64</ele>
        <time>2020-08-01T09:43:10.000Z</time>
      </trkpt>
      <trkpt lat="45.12966" lon="5.85252">
        <ele>946.24</ele>
        <time>2020-08-01T09:43:15.000Z</time>
      </trkpt>
      <trkpt lat="45.12981" lon="5.85205">
        <ele>943.8</ele>
        <time>2020-08-01T09:43:30.000Z</time>
      </trkpt>
      <trkpt lat="45.12991" lon="5.85195">
        <ele>939.56</ele>
        <time>2020-08-01T09:43:35.000Z</time>
      </trkpt>
      <trkpt lat="45.13002" lon="5.85187">
        <ele>937.63</ele>
        <time>2020-08-01T09:43:40.000Z</time>
      </trkpt>
      <trkpt lat="45.13013" lon="5.85185">
        <ele>937.06</ele>
        <time>2020-08-01T09:43:46.000Z</time>
      </trkpt>
      <trkpt lat="45.13022" lon="5.85184">
        <ele>933.59</ele>
        <time>2020-08-01T09:43:52.000Z</time>
      </trkpt>
      <trkpt lat="45.13035" lon="5.85187">
        <ele>934.6</ele>
        <time>2020-08-01T09:43:57.000Z</time>
      </trkpt>
      <trkpt lat="45.13052" lon="5.85189">
        <ele>934.51</ele>
        <time>2020-08-01T09:44:02.000Z</time>
      </trkpt>
      <trkpt lat="45.13066" lon="5.85192">
        <ele>932.57</ele>
        <time>2020-08-01T09:44:07.000Z</time>
      </trkpt>
      <trkpt lat="45.13077" lon="5.85195">
        <ele>931.71</ele>
        <time>2020-08-01T09:44:12.000Z</time>
      </trkpt>
      <trkpt lat="45.13087" lon="5.85193">
        <ele>930.35</ele>
        <time>2020-08-01T09:44:17.000Z</time>
      </trkpt>
      <trkpt lat="45.13098" lon="5.85193">
        <ele>928.51</ele>
        <time>2020-08-01T09:44:22.000Z</time>
      </trkpt>
      <trkpt lat="45.13108" lon="5.85194">
        <ele>927.31</ele>
        <time>2020-08-01T09:44:27.000Z</time>
      </trkpt>
      <trkpt lat="45.13119" lon="5.85192">
        <ele>924.52</ele>
        <time>2020-08-01T09:44:32.000Z</time>
      </trkpt>
      <trkpt lat="45.13129" lon="5.85194">
        <ele>922.88</ele>
        <time>2020-08-01T09:44:37.000Z</time>
      </trkpt>
      <trkpt lat="45.1314" lon="5.85199">
        <ele>918.94</ele>
        <time>2020-08-01T09:44:42.000Z</time>
      </trkpt>
      <trkpt lat="45.13151" lon="5.85208">
        <ele>918.04</ele>
        <time>2020-08-01T09:44:47.000Z</time>
      </trkpt>
      <trkpt lat="45.13162" lon="5.85213">
        <ele>918.42</ele>
        <time>2020-08-01T09:44:52.000Z</time>
      </trkpt>
      <trkpt lat="45.13178" lon="5.85214">
        <ele>919.69</ele>
        <time>2020-08-01T09:44:59.000Z</time>
      </trkpt>
      <trkpt lat="45.1319" lon="5.85215">
        <ele>920.49</ele>
        <time>2020-08-01T09:45:04.000Z</time>
      </trkpt>
      <trkpt lat="45.13205" lon="5.85218">
        <ele>922.84</ele>
        <time>2020-08-01T09:45:09.000Z</time>
      </trkpt>
      <trkpt lat="45.13219" lon="5.85215">
        <ele>923.73</ele>
        <time>2020-08-01T09:45:14.000Z</time>
      </trkpt>
      <trkpt lat="45.13235" lon="5.85209">
        <ele>926.46</ele>
        <time>2020-08-01T09:45:19.000Z</time>
      </trkpt>
      <trkpt lat="45.13247" lon="5.85197">
        <ele>928.38</ele>
        <time>2020-08-01T09:45:24.000Z</time>
      </trkpt>
      <trkpt lat="45.13259" lon="5.85186">
        <ele>927.23</ele>
        <time>2020-08-01T09:45:29.000Z</time>
      </trkpt>
      <trkpt lat="45.1327" lon="5.85181">
        <ele>923.35</ele>
        <time>2020-08-01T09:45:34.000Z</time>
      </trkpt>
      <trkpt lat="45.13283" lon="5.8518">
        <ele>922.88</ele>
        <time>2020-08-01T09:45:39.000Z</time>
      </trkpt>
      <trkpt lat="45.13295" lon="5.85181">
        <ele>920.94</ele>
        <time>2020-08-01T09:45:44.000Z</time>
      </trkpt>
      <trkpt lat="45.1331" lon="5.85186">
        <ele>920.85</ele>
        <time>2020-08-01T09:45:49.000Z</time>
      </trkpt>
      <trkpt lat="45.1332" lon="5.8519">
        <ele>921.36</ele>
        <time>2020-08-01T09:45:54.000Z</time>
      </trkpt>
      <trkpt lat="45.1333" lon="5.85192">
        <ele>918.3</ele>
        <time>2020-08-01T09:45:59.000Z</time>
      </trkpt>
      <trkpt lat="45.13341" lon="5.85195">
        <ele>917.35</ele>
        <time>2020-08-01T09:46:04.000Z</time>
      </trkpt>
      <trkpt lat="45.13352" lon="5.85199">
        <ele>917.79</ele>
        <time>2020-08-01T09:46:09.000Z</time>
      </trkpt>
      <trkpt lat="45.1336" lon="5.85203">
        <ele>917.41</ele>
        <time>2020-08-01T09:46:14.000Z</time>
      </trkpt>
      <trkpt lat="45.13372" lon="5.8521">
        <ele>917.42</ele>
        <time>2020-08-01T09:46:19.000Z</time>
      </trkpt>
      <trkpt lat="45.13382" lon="5.85217">
        <ele>916.6</ele>
        <time>2020-08-01T09:46:24.000Z</time>
      </trkpt>
      <trkpt lat="45.13391" lon="5.8522">
        <ele>916.84</ele>
        <time>2020-08-01T09:46:29.000Z</time>
      </trkpt>
      <trkpt lat="45.13401" lon="5.85222">
        <ele>917.76</ele>
        <time>2020-08-01T09:46:35.000Z</time>
      </trkpt>
      <trkpt lat="45.1341" lon="5.85226">
        <ele>917.43</ele>
        <time>2020-08-01T09:46:40.000Z</time>
      </trkpt>
      <trkpt lat="45.1342" lon="5.85234">
        <ele>917.81</ele>
        <time>2020-08-01T09:46:45.000Z</time>
      </trkpt>
      <trkpt lat="45.13428" lon="5.85242">
        <ele>920.58</ele>
        <time>2020-08-01T09:46:50.000Z</time>
      </trkpt>
      <trkpt lat="45.13437" lon="5.8525">
        <ele>921.68</ele>
        <time>2020-08-01T09:46:55.000Z</time>
      </trkpt>
      <trkpt lat="45.13446" lon="5.85264">
        <ele>920.84</ele>
        <time>2020-08-01T09:47:00.000Z</time>
      </trkpt>
      <trkpt lat="45.13459" lon="5.85277">
        <ele>921.8</ele>
        <time>2020-08-01T09:47:05.000Z</time>
      </trkpt>
      <trkpt lat="45.13473" lon="5.85293">
        <ele>922.32</ele>
        <time>2020-08-01T09:47:10.000Z</time>
      </trkpt>
      <trkpt lat="45.13485" lon="5.8531">
        <ele>921.25</ele>
        <time>2020-08-01T09:47:15.000Z</time>
      </trkpt>
      <trkpt lat="45.13497" lon="5.85324">
        <ele>920.06</ele>
        <time>2020-08-01T09:47:20.000Z</time>
      </trkpt>
      <trkpt lat="45.13509" lon="5.85338">
        <ele>920.25</ele>
        <time>2020-08-01T09:47:25.000Z</time>
      </trkpt>
      <trkpt lat="45.13521" lon="5.85354">
        <ele>920.67</ele>
        <time>2020-08-01T09:47:30.000Z</time>
      </trkpt>
      <trkpt lat="45.13529" lon="5.85368">
        <ele>919.53</ele>
        <time>2020-08-01T09:47:35.000Z</time>
      </trkpt>
      <trkpt lat="45.13534" lon="5.85379">
        <ele>919.14</ele>
        <time>2020-08-01T09:47:41.000Z</time>
      </trkpt>
      <trkpt lat="45.13542" lon="5.8539">
        <ele>919.77</ele>
        <time>2020-08-01T09:47:46.000Z</time>
      </trkpt>
      <trkpt lat="45.13556" lon="5.85399">
        <ele>919.24</ele>
        <time>2020-08-01T09:47:51.000Z</time>
      </trkpt>
      <trkpt lat="45.13572" lon="5.85407">
        <ele>919.25</ele>
        <time>2020-08-01T09:47:56.000Z</time>
      </trkpt>
      <trkpt lat="45.13587" lon="5.85416">
        <ele>919.52</ele>
        <time>2020-08-01T09:48:01.000Z</time>
      </trkpt>
      <trkpt lat="45.13603" lon="5.85423">
        <ele>918.61</ele>
        <time>2020-08-01T09:48:06.000Z</time>
      </trkpt>
      <trkpt lat="45.13623" lon="5.85437">
        <ele>917.19</ele>
        <time>2020-08-01T09:48:11.000Z</time>
      </trkpt>
      <trkpt lat="45.13641" lon="5.85436">
        <ele>918.56</ele>
        <time>2020-08-01T09:48:16.000Z</time>
      </trkpt>
      <trkpt lat="45.13658" lon="5.8543">
        <ele>916.06</ele>
        <time>2020-08-01T09:48:21.000Z</time>
      </trkpt>
      <trkpt lat="45.13687" lon="5.85427">
        <ele>909.87</ele>
        <time>2020-08-01T09:48:26.000Z</time>
      </trkpt>
      <trkpt lat="45.13709" lon="5.85409">
        <ele>908.49</ele>
        <time>2020-08-01T09:48:31.000Z</time>
      </trkpt>
      <trkpt lat="45.13727" lon="5.85387">
        <ele>905.56</ele>
        <time>2020-08-01T09:48:36.000Z</time>
      </trkpt>
      <trkpt lat="45.13766" lon="5.85362">
        <ele>903.01</ele>
        <time>2020-08-01T09:48:41.000Z</time>
      </trkpt>
      <trkpt lat="45.13797" lon="5.85355">
        <ele>903.36</ele>
        <time>2020-08-01T09:48:46.000Z</time>
      </trkpt>
      <trkpt lat="45.13829" lon="5.85355">
        <ele>905.58</ele>
        <time>2020-08-01T09:48:51.000Z</time>
      </trkpt>
      <trkpt lat="45.13858" lon="5.85363">
        <ele>902.13</ele>
        <time>2020-08-01T09:48:56.000Z</time>
      </trkpt>
      <trkpt lat="45.13884" lon="5.85371">
        <ele>899.64</ele>
        <time>2020-08-01T09:49:01.000Z</time>
      </trkpt>
      <trkpt lat="45.13909" lon="5.85376">
        <ele>896.31</ele>
        <time>2020-08-01T09:49:06.000Z</time>
      </trkpt>
      <trkpt lat="45.13934" lon="5.85374">
        <ele>892.9</ele>
        <time>2020-08-01T09:49:11.000Z</time>
      </trkpt>
      <trkpt lat="45.13951" lon="5.85365">
        <ele>888.73</ele>
        <time>2020-08-01T09:49:16.000Z</time>
      </trkpt>
      <trkpt lat="45.13968" lon="5.85373">
        <ele>888.73</ele>
        <time>2020-08-01T09:49:21.000Z</time>
      </trkpt>
      <trkpt lat="45.13983" lon="5.85395">
        <ele>890.41</ele>
        <time>2020-08-01T09:49:26.000Z</time>
      </trkpt>
      <trkpt lat="45.14002" lon="5.85409">
        <ele>890.95</ele>
        <time>2020-08-01T09:49:31.000Z</time>
      </trkpt>
      <trkpt lat="45.14023" lon="5.85424">
        <ele>895.39</ele>
        <time>2020-08-01T09:49:36.000Z</time>
      </trkpt>
      <trkpt lat="45.14044" lon="5.8543">
        <ele>894.62</ele>
        <time>2020-08-01T09:49:41.000Z</time>
      </trkpt>
      <trkpt lat="45.14058" lon="5.8545">
        <ele>896.52</ele>
        <time>2020-08-01T09:49:46.000Z</time>
      </trkpt>
      <trkpt lat="45.14071" lon="5.85474">
        <ele>898.47</ele>
        <time>2020-08-01T09:49:51.000Z</time>
      </trkpt>
      <trkpt lat="45.14078" lon="5.85501">
        <ele>898.96</ele>
        <time>2020-08-01T09:49:56.000Z</time>
      </trkpt>
      <trkpt lat="45.14079" lon="5.85527">
        <ele>897.75</ele>
        <time>2020-08-01T09:50:01.000Z</time>
      </trkpt>
      <trkpt lat="45.14086" lon="5.85552">
        <ele>897.66</ele>
        <time>2020-08-01T09:50:06.000Z</time>
      </trkpt>
      <trkpt lat="45.14099" lon="5.85573">
        <ele>898.61</ele>
        <time>2020-08-01T09:50:11.000Z</time>
      </trkpt>
      <trkpt lat="45.14112" lon="5.85588">
        <ele>901.32</ele>
        <time>2020-08-01T09:50:16.000Z</time>
      </trkpt>
      <trkpt lat="45.14124" lon="5.85601">
        <ele>905.43</ele>
        <time>2020-08-01T09:50:21.000Z</time>
      </trkpt>
      <trkpt lat="45.14135" lon="5.85617">
        <ele>906.64</ele>
        <time>2020-08-01T09:50:26.000Z</time>
      </trkpt>
      <trkpt lat="45.14148" lon="5.85637">
        <ele>908.51</ele>
        <time>2020-08-01T09:50:31.000Z</time>
      </trkpt>
      <trkpt lat="45.14157" lon="5.85661">
        <ele>906.35</ele>
        <time>2020-08-01T09:50:36.000Z</time>
      </trkpt>
      <trkpt lat="45.14167" lon="5.85684">
        <ele>908.89</ele>
        <time>2020-08-01T09:50:41.000Z</time>
      </trkpt>
      <trkpt lat="45.14176" lon="5.85703">
        <ele>908.69</ele>
        <time>2020-08-01T09:50:46.000Z</time>
      </trkpt>
      <trkpt lat="45.14183" lon="5.85723">
        <ele>907.56</ele>
        <time>2020-08-01T09:50:51.000Z</time>
      </trkpt>
      <trkpt lat="45.1419" lon="5.85743">
        <ele>908.82</ele>
        <time>2020-08-01T09:50:56.000Z</time>
      </trkpt>
      <trkpt lat="45.142" lon="5.85762">
        <ele>912.7</ele>
        <time>2020-08-01T09:51:01.000Z</time>
      </trkpt>
      <trkpt lat="45.14212" lon="5.85784">
        <ele>915.25</ele>
        <time>2020-08-01T09:51:06.000Z</time>
      </trkpt>
      <trkpt lat="45.14219" lon="5.85802">
        <ele>915.7</ele>
        <time>2020-08-01T09:51:11.000Z</time>
      </trkpt>
      <trkpt lat="45.1423" lon="5.85819">
        <ele>914.37</ele>
        <time>2020-08-01T09:51:16.000Z</time>
      </trkpt>
      <trkpt lat="45.14245" lon="5.85838">
        <ele>916.94</ele>
        <time>2020-08-01T09:51:21.000Z</time>
      </trkpt>
      <trkpt lat="45.14259" lon="5.85857">
        <ele>913.65</ele>
        <time>2020-08-01T09:51:26.000Z</time>
      </trkpt>
      <trkpt lat="45.1427" lon="5.85873">
        <ele>916.57</ele>
        <time>2020-08-01T09:51:31.000Z</time>
      </trkpt>
      <trkpt lat="45.14283" lon="5.85886">
        <ele>918.11</ele>
        <time>2020-08-01T09:51:36.000Z</time>
      </trkpt>
      <trkpt lat="45.14296" lon="5.85897">
        <ele>918.32</ele>
        <time>2020-08-01T09:51:41.000Z</time>
      </trkpt>
      <trkpt lat="45.14308" lon="5.85914">
        <ele>919.22</ele>
        <time>2020-08-01T09:51:46.000Z</time>
      </trkpt>
      <trkpt lat="45.14321" lon="5.85929">
        <ele>919.85</ele>
        <time>2020-08-01T09:51:51.000Z</time>
      </trkpt>
      <trkpt lat="45.14333" lon="5.85944">
        <ele>922.83</ele>
        <time>2020-08-01T09:51:56.000Z</time>
      </trkpt>
      <trkpt lat="45.14345" lon="5.85962">
        <ele>922.7</ele>
        <time>2020-08-01T09:52:01.000Z</time>
      </trkpt>
      <trkpt lat="45.14357" lon="5.85979">
        <ele>925.12</ele>
        <time>2020-08-01T09:52:06.000Z</time>
      </trkpt>
      <trkpt lat="45.14367" lon="5.85998">
        <ele>925.47</ele>
        <time>2020-08-01T09:52:11.000Z</time>
      </trkpt>
      <trkpt lat="45.14375" lon="5.86015">
        <ele>928.52</ele>
        <time>2020-08-01T09:52:16.000Z</time>
      </trkpt>
      <trkpt lat="45.14384" lon="5.86032">
        <ele>929.97</ele>
        <time>2020-08-01T09:52:21.000Z</time>
      </trkpt>
      <trkpt lat="45.14394" lon="5.86051">
        <ele>932.17</ele>
        <time>2020-08-01T09:52:26.000Z</time>
      </trkpt>
      <trkpt lat="45.14405" lon="5.86067">
        <ele>933.95</ele>
        <time>2020-08-01T09:52:31.000Z</time>
      </trkpt>
      <trkpt lat="45.14416" lon="5.86088">
        <ele>936.18</ele>
        <time>2020-08-01T09:52:36.000Z</time>
      </trkpt>
      <trkpt lat="45.1443" lon="5.86103">
        <ele>938.19</ele>
        <time>2020-08-01T09:52:41.000Z</time>
      </trkpt>
      <trkpt lat="45.14446" lon="5.86115">
        <ele>940.7</ele>
        <time>2020-08-01T09:52:46.000Z</time>
      </trkpt>
      <trkpt lat="45.14462" lon="5.86128">
        <ele>939.54</ele>
        <time>2020-08-01T09:52:51.000Z</time>
      </trkpt>
      <trkpt lat="45.14478" lon="5.8614">
        <ele>938.65</ele>
        <time>2020-08-01T09:52:56.000Z</time>
      </trkpt>
      <trkpt lat="45.14497" lon="5.86149">
        <ele>943.94</ele>
        <time>2020-08-01T09:53:01.000Z</time>
      </trkpt>
      <trkpt lat="45.14515" lon="5.86156">
        <ele>946.44</ele>
        <time>2020-08-01T09:53:06.000Z</time>
      </trkpt>
      <trkpt lat="45.14532" lon="5.86169">
        <ele>951.28</ele>
        <time>2020-08-01T09:53:11.000Z</time>
      </trkpt>
      <trkpt lat="45.14545" lon="5.86183">
        <ele>951.06</ele>
        <time>2020-08-01T09:53:16.000Z</time>
      </trkpt>
      <trkpt lat="45.14553" lon="5.86193">
        <ele>951.81</ele>
        <time>2020-08-01T09:53:21.000Z</time>
      </trkpt>
      <trkpt lat="45.1456" lon="5.86211">
        <ele>949.47</ele>
        <time>2020-08-01T09:53:26.000Z</time>
      </trkpt>
      <trkpt lat="45.14575" lon="5.86226">
        <ele>955.51</ele>
        <time>2020-08-01T09:53:31.000Z</time>
      </trkpt>
      <trkpt lat="45.14594" lon="5.86238">
        <ele>957.13</ele>
        <time>2020-08-01T09:53:36.000Z</time>
      </trkpt>
      <trkpt lat="45.14615" lon="5.86244">
        <ele>958.1</ele>
        <time>2020-08-01T09:53:41.000Z</time>
      </trkpt>
      <trkpt lat="45.14636" lon="5.86244">
        <ele>960.37</ele>
        <time>2020-08-01T09:53:46.000Z</time>
      </trkpt>
      <trkpt lat="45.14655" lon="5.86245">
        <ele>963.07</ele>
        <time>2020-08-01T09:53:51.000Z</time>
      </trkpt>
      <trkpt lat="45.14673" lon="5.86248">
        <ele>964.63</ele>
        <time>2020-08-01T09:53:56.000Z</time>
      </trkpt>
      <trkpt lat="45.14691" lon="5.86253">
        <ele>962.82</ele>
        <time>2020-08-01T09:54:01.000Z</time>
      </trkpt>
      <trkpt lat="45.14709" lon="5.86256">
        <ele>963.82</ele>
        <time>2020-08-01T09:54:06.000Z</time>
      </trkpt>
      <trkpt lat="45.14727" lon="5.86263">
        <ele>964.79</ele>
        <time>2020-08-01T09:54:11.000Z</time>
      </trkpt>
      <trkpt lat="45.1474" lon="5.86272">
        <ele>969.02</ele>
        <time>2020-08-01T09:54:16.000Z</time>
      </trkpt>
      <trkpt lat="45.14755" lon="5.86283">
        <ele>971.8</ele>
        <time>2020-08-01T09:54:21.000Z</time>
      </trkpt>
      <trkpt lat="45.14774" lon="5.86295">
        <ele>970.27</ele>
        <time>2020-08-01T09:54:26.000Z</time>
      </trkpt>
      <trkpt lat="45.14793" lon="5.86305">
        <ele>973.9</ele>
        <time>2020-08-01T09:54:31.000Z</time>
      </trkpt>
      <trkpt lat="45.14811" lon="5.86311">
        <ele>975.01</ele>
        <time>2020-08-01T09:54:36.000Z</time>
      </trkpt>
      <trkpt lat="45.14828" lon="5.86319">
        <ele>975.87</ele>
        <time>2020-08-01T09:54:41.000Z</time>
      </trkpt>
      <trkpt lat="45.14846" lon="5.86326">
        <ele>975.47</ele>
        <time>2020-08-01T09:54:46.000Z</time>
      </trkpt>
      <trkpt lat="45.14864" lon="5.86336">
        <ele>976.62</ele>
        <time>2020-08-01T09:54:51.000Z</time>
      </trkpt>
      <trkpt lat="45.14877" lon="5.86348">
        <ele>978.19</ele>
        <time>2020-08-01T09:54:56.000Z</time>
      </trkpt>
      <trkpt lat="45.14886" lon="5.8636">
        <ele>980.24</ele>
        <time>2020-08-01T09:55:01.000Z</time>
      </trkpt>
      <trkpt lat="45.14895" lon="5.86379">
        <ele>980.42</ele>
        <time>2020-08-01T09:55:06.000Z</time>
      </trkpt>
      <trkpt lat="45.14905" lon="5.864">
        <ele>982.8</ele>
        <time>2020-08-01T09:55:11.000Z</time>
      </trkpt>
      <trkpt lat="45.14918" lon="5.86414">
        <ele>986.82</ele>
        <time>2020-08-01T09:55:16.000Z</time>
      </trkpt>
      <trkpt lat="45.14932" lon="5.86422">
        <ele>993.1</ele>
        <time>2020-08-01T09:55:21.000Z</time>
      </trkpt>
      <trkpt lat="45.14947" lon="5.86427">
        <ele>995.77</ele>
        <time>2020-08-01T09:55:26.000Z</time>
      </trkpt>
      <trkpt lat="45.14966" lon="5.86432">
        <ele>997.85</ele>
        <time>2020-08-01T09:55:31.000Z</time>
      </trkpt>
      <trkpt lat="45.14985" lon="5.86439">
        <ele>996.85</ele>
        <time>2020-08-01T09:55:36.000Z</time>
      </trkpt>
      <trkpt lat="45.15" lon="5.86451">
        <ele>999.3</ele>
        <time>2020-08-01T09:55:41.000Z</time>
      </trkpt>
      <trkpt lat="45.15011" lon="5.86468">
        <ele>1002.33</ele>
        <time>2020-08-01T09:55:46.000Z</time>
      </trkpt>
      <trkpt lat="45.15018" lon="5.8649">
        <ele>1001.78</ele>
        <time>2020-08-01T09:55:51.000Z</time>
      </trkpt>
      <trkpt lat="45.15026" lon="5.86512">
        <ele>1003.07</ele>
        <time>2020-08-01T09:55:56.000Z</time>
      </trkpt>
      <trkpt lat="45.15035" lon="5.86533">
        <ele>1006.58</ele>
        <time>2020-08-01T09:56:01.000Z</time>
      </trkpt>
      <trkpt lat="45.15045" lon="5.86554">
        <ele>1008.11</ele>
        <time>2020-08-01T09:56:06.000Z</time>
      </trkpt>
      <trkpt lat="45.15058" lon="5.86572">
        <ele>1006.19</ele>
        <time>2020-08-01T09:56:11.000Z</time>
      </trkpt>
      <trkpt lat="45.15071" lon="5.86584">
        <ele>1003.92</ele>
        <time>2020-08-01T09:56:16.000Z</time>
      </trkpt>
      <trkpt lat="45.15087" lon="5.86596">
        <ele>1007.67</ele>
        <time>2020-08-01T09:56:21.000Z</time>
      </trkpt>
      <trkpt lat="45.15103" lon="5.86607">
        <ele>1009.82</ele>
        <time>2020-08-01T09:56:26.000Z</time>
      </trkpt>
      <trkpt lat="45.15121" lon="5.86616">
        <ele>1010.69</ele>
        <time>2020-08-01T09:56:31.000Z</time>
      </trkpt>
      <trkpt lat="45.15137" lon="5.86623">
        <ele>1013.63</ele>
        <time>2020-08-01T09:56:36.000Z</time>
      </trkpt>
      <trkpt lat="45.15154" lon="5.86628">
        <ele>1013.66</ele>
        <time>2020-08-01T09:56:41.000Z</time>
      </trkpt>
      <trkpt lat="45.15171" lon="5.86637">
        <ele>1015.84</ele>
        <time>2020-08-01T09:56:46.000Z</time>
      </trkpt>
      <trkpt lat="45.15185" lon="5.86654">
        <ele>1015.65</ele>
        <time>2020-08-01T09:56:51.000Z</time>
      </trkpt>
      <trkpt lat="45.152" lon="5.86669">
        <ele>1015.47</ele>
        <time>2020-08-01T09:56:56.000Z</time>
      </trkpt>
      <trkpt lat="45.15214" lon="5.86685">
        <ele>1016.87</ele>
        <time>2020-08-01T09:57:01.000Z</time>
      </trkpt>
      <trkpt lat="45.15228" lon="5.86698">
        <ele>1016.41</ele>
        <time>2020-08-01T09:57:06.000Z</time>
      </trkpt>
      <trkpt lat="45.1524" lon="5.86716">
        <ele>1016.33</ele>
        <time>2020-08-01T09:57:11.000Z</time>
      </trkpt>
      <trkpt lat="45.15255" lon="5.8673">
        <ele>1021.66</ele>
        <time>2020-08-01T09:57:16.000Z</time>
      </trkpt>
      <trkpt lat="45.15268" lon="5.86744">
        <ele>1032.02</ele>
        <time>2020-08-01T09:57:21.000Z</time>
      </trkpt>
      <trkpt lat="45.15282" lon="5.86761">
        <ele>1033.51</ele>
        <time>2020-08-01T09:57:26.000Z</time>
      </trkpt>
      <trkpt lat="45.15295" lon="5.86775">
        <ele>1038.17</ele>
        <time>2020-08-01T09:57:31.000Z</time>
      </trkpt>
      <trkpt lat="45.15308" lon="5.8679">
        <ele>1042.6</ele>
        <time>2020-08-01T09:57:36.000Z</time>
      </trkpt>
      <trkpt lat="45.15322" lon="5.86802">
        <ele>1044.39</ele>
        <time>2020-08-01T09:57:41.000Z</time>
      </trkpt>
      <trkpt lat="45.1534" lon="5.86809">
        <ele>1043.87</ele>
        <time>2020-08-01T09:57:46.000Z</time>
      </trkpt>
      <trkpt lat="45.15356" lon="5.86815">
        <ele>1043.98</ele>
        <time>2020-08-01T09:57:51.000Z</time>
      </trkpt>
      <trkpt lat="45.15372" lon="5.86824">
        <ele>1042.43</ele>
        <time>2020-08-01T09:57:56.000Z</time>
      </trkpt>
      <trkpt lat="45.15391" lon="5.86834">
        <ele>1042.52</ele>
        <time>2020-08-01T09:58:01.000Z</time>
      </trkpt>
      <trkpt lat="45.15404" lon="5.86845">
        <ele>1048.38</ele>
        <time>2020-08-01T09:58:06.000Z</time>
      </trkpt>
      <trkpt lat="45.15417" lon="5.86859">
        <ele>1049.83</ele>
        <time>2020-08-01T09:58:11.000Z</time>
      </trkpt>
      <trkpt lat="45.15427" lon="5.86875">
        <ele>1048.47</ele>
        <time>2020-08-01T09:58:16.000Z</time>
      </trkpt>
      <trkpt lat="45.1544" lon="5.86892">
        <ele>1052.31</ele>
        <time>2020-08-01T09:58:21.000Z</time>
      </trkpt>
      <trkpt lat="45.15452" lon="5.86906">
        <ele>1050.73</ele>
        <time>2020-08-01T09:58:26.000Z</time>
      </trkpt>
      <trkpt lat="45.15462" lon="5.86925">
        <ele>1049.85</ele>
        <time>2020-08-01T09:58:31.000Z</time>
      </trkpt>
      <trkpt lat="45.15465" lon="5.86948">
        <ele>1051.55</ele>
        <time>2020-08-01T09:58:36.000Z</time>
      </trkpt>
      <trkpt lat="45.15467" lon="5.86973">
        <ele>1053.47</ele>
        <time>2020-08-01T09:58:41.000Z</time>
      </trkpt>
      <trkpt lat="45.15469" lon="5.87001">
        <ele>1054.64</ele>
        <time>2020-08-01T09:58:46.000Z</time>
      </trkpt>
      <trkpt lat="45.15468" lon="5.87026">
        <ele>1055.3</ele>
        <time>2020-08-01T09:58:51.000Z</time>
      </trkpt>
      <trkpt lat="45.15468" lon="5.87053">
        <ele>1053.11</ele>
        <time>2020-08-01T09:58:56.000Z</time>
      </trkpt>
      <trkpt lat="45.15467" lon="5.87075">
        <ele>1053.29</ele>
        <time>2020-08-01T09:59:01.000Z</time>
      </trkpt>
      <trkpt lat="45.15464" lon="5.87089">
        <ele>1053.19</ele>
        <time>2020-08-01T09:59:06.000Z</time>
      </trkpt>
      <trkpt lat="45.15463" lon="5.87102">
        <ele>1055.66</ele>
        <time>2020-08-01T09:59:11.000Z</time>
      </trkpt>
      <trkpt lat="45.15469" lon="5.87116">
        <ele>1056</ele>
        <time>2020-08-01T09:59:16.000Z</time>
      </trkpt>
      <trkpt lat="45.15479" lon="5.8712">
        <ele>1067.01</ele>
        <time>2020-08-01T10:02:45.000Z</time>
      </trkpt>
      <trkpt lat="45.15482" lon="5.87134">
        <ele>1068.58</ele>
        <time>2020-08-01T10:02:51.000Z</time>
      </trkpt>
      <trkpt lat="45.15484" lon="5.87151">
        <ele>1066.9</ele>
        <time>2020-08-01T10:02:56.000Z</time>
      </trkpt>
      <trkpt lat="45.15493" lon="5.87181">
        <ele>1067.68</ele>
        <time>2020-08-01T10:03:01.000Z</time>
      </trkpt>
      <trkpt lat="45.15497" lon="5.87225">
        <ele>1064.88</ele>
        <time>2020-08-01T10:03:06.000Z</time>
      </trkpt>
      <trkpt lat="45.1549" lon="5.87284">
        <ele>1056.82</ele>
        <time>2020-08-01T10:03:11.000Z</time>
      </trkpt>
      <trkpt lat="45.15494" lon="5.87331">
        <ele>1054.32</ele>
        <time>2020-08-01T10:03:16.000Z</time>
      </trkpt>
      <trkpt lat="45.15532" lon="5.87362">
        <ele>1047.92</ele>
        <time>2020-08-01T10:03:21.000Z</time>
      </trkpt>
      <trkpt lat="45.15585" lon="5.87367">
        <ele>1045.66</ele>
        <time>2020-08-01T10:03:26.000Z</time>
      </trkpt>
      <trkpt lat="45.15638" lon="5.87363">
        <ele>1044.33</ele>
        <time>2020-08-01T10:03:31.000Z</time>
      </trkpt>
      <trkpt lat="45.1568" lon="5.87354">
        <ele>1047.07</ele>
        <time>2020-08-01T10:03:36.000Z</time>
      </trkpt>
      <trkpt lat="45.15722" lon="5.87348">
        <ele>1044.45</ele>
        <time>2020-08-01T10:03:41.000Z</time>
      </trkpt>
      <trkpt lat="45.15767" lon="5.8737">
        <ele>1039.59</ele>
        <time>2020-08-01T10:03:46.000Z</time>
      </trkpt>
      <trkpt lat="45.15824" lon="5.87363">
        <ele>1035.67</ele>
        <time>2020-08-01T10:03:51.000Z</time>
      </trkpt>
      <trkpt lat="45.15874" lon="5.87377">
        <ele>1029.83</ele>
        <time>2020-08-01T10:03:56.000Z</time>
      </trkpt>
      <trkpt lat="45.15906" lon="5.87434">
        <ele>1026.16</ele>
        <time>2020-08-01T10:04:01.000Z</time>
      </trkpt>
      <trkpt lat="45.15952" lon="5.8747">
        <ele>1023.29</ele>
        <time>2020-08-01T10:04:06.000Z</time>
      </trkpt>
      <trkpt lat="45.15992" lon="5.87522">
        <ele>1020.38</ele>
        <time>2020-08-01T10:04:11.000Z</time>
      </trkpt>
      <trkpt lat="45.16009" lon="5.87598">
        <ele>1013.03</ele>
        <time>2020-08-01T10:04:16.000Z</time>
      </trkpt>
      <trkpt lat="45.16011" lon="5.87675">
        <ele>1005.15</ele>
        <time>2020-08-01T10:04:21.000Z</time>
      </trkpt>
      <trkpt lat="45.1599" lon="5.87742">
        <ele>998.52</ele>
        <time>2020-08-01T10:04:26.000Z</time>
      </trkpt>
      <trkpt lat="45.15976" lon="5.87806">
        <ele>998.67</ele>
        <time>2020-08-01T10:04:31.000Z</time>
      </trkpt>
      <trkpt lat="45.15956" lon="5.87858">
        <ele>996.27</ele>
        <time>2020-08-01T10:04:36.000Z</time>
      </trkpt>
      <trkpt lat="45.15963" lon="5.87926">
        <ele>985.89</ele>
        <time>2020-08-01T10:04:41.000Z</time>
      </trkpt>
      <trkpt lat="45.1599" lon="5.87974">
        <ele>982.65</ele>
        <time>2020-08-01T10:04:46.000Z</time>
      </trkpt>
      <trkpt lat="45.16025" lon="5.87942">
        <ele>975.91</ele>
        <time>2020-08-01T10:04:51.000Z</time>
      </trkpt>
      <trkpt lat="45.16064" lon="5.87906">
        <ele>970.87</ele>
        <time>2020-08-01T10:04:56.000Z</time>
      </trkpt>
      <trkpt lat="45.16087" lon="5.87844">
        <ele>967.09</ele>
        <time>2020-08-01T10:05:01.000Z</time>
      </trkpt>
      <trkpt lat="45.16134" lon="5.8781">
        <ele>963.9</ele>
        <time>2020-08-01T10:05:06.000Z</time>
      </trkpt>
      <trkpt lat="45.16165" lon="5.87837">
        <ele>963.77</ele>
        <time>2020-08-01T10:05:11.000Z</time>
      </trkpt>
      <trkpt lat="45.16188" lon="5.87806">
        <ele>970.15</ele>
        <time>2020-08-01T10:05:16.000Z</time>
      </trkpt>
      <trkpt lat="45.16199" lon="5.87768">
        <ele>971.94</ele>
        <time>2020-08-01T10:05:21.000Z</time>
      </trkpt>
      <trkpt lat="45.16222" lon="5.87752">
        <ele>972.33</ele>
        <time>2020-08-01T10:05:26.000Z</time>
      </trkpt>
      <trkpt lat="45.16246" lon="5.87748">
        <ele>973.49</ele>
        <time>2020-08-01T10:05:31.000Z</time>
      </trkpt>
      <trkpt lat="45.16264" lon="5.87745">
        <ele>971.18</ele>
        <time>2020-08-01T10:05:36.000Z</time>
      </trkpt>
      <trkpt lat="45.16276" lon="5.87742">
        <ele>970.37</ele>
        <time>2020-08-01T10:05:41.000Z</time>
      </trkpt>
      <trkpt lat="45.16291" lon="5.87745">
        <ele>973.69</ele>
        <time>2020-08-01T10:05:46.000Z</time>
      </trkpt>
      <trkpt lat="45.16309" lon="5.87747">
        <ele>974.71</ele>
        <time>2020-08-01T10:05:51.000Z</time>
      </trkpt>
      <trkpt lat="45.16331" lon="5.87743">
        <ele>974.23</ele>
        <time>2020-08-01T10:05:56.000Z</time>
      </trkpt>
      <trkpt lat="45.16354" lon="5.87742">
        <ele>973.82</ele>
        <time>2020-08-01T10:06:01.000Z</time>
      </trkpt>
      <trkpt lat="45.1637" lon="5.87733">
        <ele>969.33</ele>
        <time>2020-08-01T10:06:06.000Z</time>
      </trkpt>
      <trkpt lat="45.16377" lon="5.8771">
        <ele>967.46</ele>
        <time>2020-08-01T10:06:11.000Z</time>
      </trkpt>
      <trkpt lat="45.16377" lon="5.87693">
        <ele>967.19</ele>
        <time>2020-08-01T10:06:16.000Z</time>
      </trkpt>
      <trkpt lat="45.16382" lon="5.87682">
        <ele>966.12</ele>
        <time>2020-08-01T10:06:21.000Z</time>
      </trkpt>
      <trkpt lat="45.16398" lon="5.87673">
        <ele>968.72</ele>
        <time>2020-08-01T10:06:26.000Z</time>
      </trkpt>
      <trkpt lat="45.16417" lon="5.8767">
        <ele>973.23</ele>
        <time>2020-08-01T10:06:31.000Z</time>
      </trkpt>
      <trkpt lat="45.16435" lon="5.87665">
        <ele>979.91</ele>
        <time>2020-08-01T10:06:36.000Z</time>
      </trkpt>
      <trkpt lat="45.16454" lon="5.87647">
        <ele>980.05</ele>
        <time>2020-08-01T10:06:41.000Z</time>
      </trkpt>
      <trkpt lat="45.16471" lon="5.87622">
        <ele>976.07</ele>
        <time>2020-08-01T10:06:46.000Z</time>
      </trkpt>
      <trkpt lat="45.16482" lon="5.87579">
        <ele>971.46</ele>
        <time>2020-08-01T10:06:51.000Z</time>
      </trkpt>
      <trkpt lat="45.16501" lon="5.87557">
        <ele>969.69</ele>
        <time>2020-08-01T10:06:56.000Z</time>
      </trkpt>
      <trkpt lat="45.16527" lon="5.87546">
        <ele>965.19</ele>
        <time>2020-08-01T10:07:01.000Z</time>
      </trkpt>
      <trkpt lat="45.16554" lon="5.87541">
        <ele>967.55</ele>
        <time>2020-08-01T10:07:06.000Z</time>
      </trkpt>
      <trkpt lat="45.16584" lon="5.87528">
        <ele>965.86</ele>
        <time>2020-08-01T10:07:11.000Z</time>
      </trkpt>
      <trkpt lat="45.1661" lon="5.87518">
        <ele>969.35</ele>
        <time>2020-08-01T10:07:16.000Z</time>
      </trkpt>
      <trkpt lat="45.16637" lon="5.875">
        <ele>970.93</ele>
        <time>2020-08-01T10:07:21.000Z</time>
      </trkpt>
      <trkpt lat="45.16653" lon="5.87467">
        <ele>968.8</ele>
        <time>2020-08-01T10:07:26.000Z</time>
      </trkpt>
      <trkpt lat="45.16665" lon="5.87432">
        <ele>970.19</ele>
        <time>2020-08-01T10:07:31.000Z</time>
      </trkpt>
      <trkpt lat="45.16672" lon="5.87396">
        <ele>964.81</ele>
        <time>2020-08-01T10:07:36.000Z</time>
      </trkpt>
      <trkpt lat="45.16679" lon="5.87365">
        <ele>961.61</ele>
        <time>2020-08-01T10:07:41.000Z</time>
      </trkpt>
      <trkpt lat="45.1668" lon="5.87336">
        <ele>959.83</ele>
        <time>2020-08-01T10:07:46.000Z</time>
      </trkpt>
      <trkpt lat="45.16691" lon="5.873">
        <ele>959.66</ele>
        <time>2020-08-01T10:07:51.000Z</time>
      </trkpt>
      <trkpt lat="45.16695" lon="5.87256">
        <ele>962.4</ele>
        <time>2020-08-01T10:07:56.000Z</time>
      </trkpt>
      <trkpt lat="45.16693" lon="5.8721">
        <ele>955.56</ele>
        <time>2020-08-01T10:08:01.000Z</time>
      </trkpt>
      <trkpt lat="45.16686" lon="5.87152">
        <ele>949.39</ele>
        <time>2020-08-01T10:08:06.000Z</time>
      </trkpt>
      <trkpt lat="45.16671" lon="5.8709">
        <ele>951.02</ele>
        <time>2020-08-01T10:08:11.000Z</time>
      </trkpt>
      <trkpt lat="45.1665" lon="5.87018">
        <ele>953.73</ele>
        <time>2020-08-01T10:08:16.000Z</time>
      </trkpt>
      <trkpt lat="45.16629" lon="5.86923">
        <ele>949.03</ele>
        <time>2020-08-01T10:08:21.000Z</time>
      </trkpt>
      <trkpt lat="45.16596" lon="5.8683">
        <ele>948.59</ele>
        <time>2020-08-01T10:08:26.000Z</time>
      </trkpt>
      <trkpt lat="45.16553" lon="5.86739">
        <ele>942.85</ele>
        <time>2020-08-01T10:08:31.000Z</time>
      </trkpt>
      <trkpt lat="45.16514" lon="5.86656">
        <ele>933.52</ele>
        <time>2020-08-01T10:08:36.000Z</time>
      </trkpt>
      <trkpt lat="45.16487" lon="5.86579">
        <ele>933.45</ele>
        <time>2020-08-01T10:08:41.000Z</time>
      </trkpt>
      <trkpt lat="45.16463" lon="5.86522">
        <ele>927.42</ele>
        <time>2020-08-01T10:08:46.000Z</time>
      </trkpt>
      <trkpt lat="45.16479" lon="5.86508">
        <ele>919.68</ele>
        <time>2020-08-01T10:08:51.000Z</time>
      </trkpt>
      <trkpt lat="45.16504" lon="5.86534">
        <ele>912.44</ele>
        <time>2020-08-01T10:08:56.000Z</time>
      </trkpt>
      <trkpt lat="45.16534" lon="5.86571">
        <ele>913.84</ele>
        <time>2020-08-01T10:09:01.000Z</time>
      </trkpt>
      <trkpt lat="45.16553" lon="5.86568">
        <ele>910.96</ele>
        <time>2020-08-01T10:09:06.000Z</time>
      </trkpt>
      <trkpt lat="45.16558" lon="5.86516">
        <ele>907.19</ele>
        <time>2020-08-01T10:09:11.000Z</time>
      </trkpt>
      <trkpt lat="45.16557" lon="5.86456">
        <ele>904.53</ele>
        <time>2020-08-01T10:09:16.000Z</time>
      </trkpt>
      <trkpt lat="45.16538" lon="5.864">
        <ele>901.27</ele>
        <time>2020-08-01T10:09:21.000Z</time>
      </trkpt>
      <trkpt lat="45.16544" lon="5.86337">
        <ele>893.8</ele>
        <time>2020-08-01T10:09:26.000Z</time>
      </trkpt>
      <trkpt lat="45.16561" lon="5.86274">
        <ele>891.42</ele>
        <time>2020-08-01T10:09:31.000Z</time>
      </trkpt>
      <trkpt lat="45.16585" lon="5.86219">
        <ele>891.25</ele>
        <time>2020-08-01T10:09:36.000Z</time>
      </trkpt>
      <trkpt lat="45.16607" lon="5.8615">
        <ele>891.94</ele>
        <time>2020-08-01T10:09:41.000Z</time>
      </trkpt>
      <trkpt lat="45.16628" lon="5.86086">
        <ele>883.19</ele>
        <time>2020-08-01T10:09:46.000Z</time>
      </trkpt>
      <trkpt lat="45.1664" lon="5.86019">
        <ele>876.87</ele>
        <time>2020-08-01T10:09:51.000Z</time>
      </trkpt>
      <trkpt lat="45.16633" lon="5.85947">
        <ele>865.68</ele>
        <time>2020-08-01T10:09:56.000Z</time>
      </trkpt>
      <trkpt lat="45.16608" lon="5.85869">
        <ele>856.87</ele>
        <time>2020-08-01T10:10:01.000Z</time>
      </trkpt>
      <trkpt lat="45.1659" lon="5.85789">
        <ele>850.34</ele>
        <time>2020-08-01T10:10:06.000Z</time>
      </trkpt>
      <trkpt lat="45.16576" lon="5.857">
        <ele>844.4</ele>
        <time>2020-08-01T10:10:11.000Z</time>
      </trkpt>
      <trkpt lat="45.16551" lon="5.85619">
        <ele>843.62</ele>
        <time>2020-08-01T10:10:16.000Z</time>
      </trkpt>
      <trkpt lat="45.16524" lon="5.85547">
        <ele>841.06</ele>
        <time>2020-08-01T10:10:21.000Z</time>
      </trkpt>
      <trkpt lat="45.16497" lon="5.85482">
        <ele>837.12</ele>
        <time>2020-08-01T10:10:26.000Z</time>
      </trkpt>
      <trkpt lat="45.16483" lon="5.85417">
        <ele>832.45</ele>
        <time>2020-08-01T10:10:31.000Z</time>
      </trkpt>
      <trkpt lat="45.16484" lon="5.8536">
        <ele>829.52</ele>
        <time>2020-08-01T10:10:36.000Z</time>
      </trkpt>
      <trkpt lat="45.1649" lon="5.85291">
        <ele>830.2</ele>
        <time>2020-08-01T10:10:41.000Z</time>
      </trkpt>
      <trkpt lat="45.1649" lon="5.85218">
        <ele>822.61</ele>
        <time>2020-08-01T10:10:46.000Z</time>
      </trkpt>
      <trkpt lat="45.1649" lon="5.8513">
        <ele>818.83</ele>
        <time>2020-08-01T10:10:51.000Z</time>
      </trkpt>
      <trkpt lat="45.16501" lon="5.85063">
        <ele>814</ele>
        <time>2020-08-01T10:10:56.000Z</time>
      </trkpt>
      <trkpt lat="45.16513" lon="5.85004">
        <ele>808.49</ele>
        <time>2020-08-01T10:11:01.000Z</time>
      </trkpt>
      <trkpt lat="45.16529" lon="5.84985">
        <ele>807.37</ele>
        <time>2020-08-01T10:11:06.000Z</time>
      </trkpt>
      <trkpt lat="45.16539" lon="5.84993">
        <ele>806.31</ele>
        <time>2020-08-01T10:11:11.000Z</time>
      </trkpt>
      <trkpt lat="45.1653" lon="5.84995">
        <ele>806.08</ele>
        <time>2020-08-01T10:11:20.000Z</time>
      </trkpt>
      <trkpt lat="45.16538" lon="5.85006">
        <ele>808.18</ele>
        <time>2020-08-01T10:14:58.000Z</time>
      </trkpt>
      <trkpt lat="45.16544" lon="5.85028">
        <ele>809.05</ele>
        <time>2020-08-01T10:15:03.000Z</time>
      </trkpt>
      <trkpt lat="45.16546" lon="5.85056">
        <ele>807.43</ele>
        <time>2020-08-01T10:15:08.000Z</time>
      </trkpt>
      <trkpt lat="45.16549" lon="5.85092">
        <ele>805.36</ele>
        <time>2020-08-01T10:15:13.000Z</time>
      </trkpt>
      <trkpt lat="45.16565" lon="5.85129">
        <ele>804.77</ele>
        <time>2020-08-01T10:15:18.000Z</time>
      </trkpt>
      <trkpt lat="45.16587" lon="5.85169">
        <ele>803.23</ele>
        <time>2020-08-01T10:15:23.000Z</time>
      </trkpt>
      <trkpt lat="45.16615" lon="5.85215">
        <ele>801.53</ele>
        <time>2020-08-01T10:15:28.000Z</time>
      </trkpt>
      <trkpt lat="45.16636" lon="5.85264">
        <ele>798.24</ele>
        <time>2020-08-01T10:15:33.000Z</time>
      </trkpt>
      <trkpt lat="45.16663" lon="5.8531">
        <ele>794.38</ele>
        <time>2020-08-01T10:15:38.000Z</time>
      </trkpt>
      <trkpt lat="45.16687" lon="5.85364">
        <ele>791.79</ele>
        <time>2020-08-01T10:15:43.000Z</time>
      </trkpt>
      <trkpt lat="45.16701" lon="5.8542">
        <ele>791.87</ele>
        <time>2020-08-01T10:15:48.000Z</time>
      </trkpt>
      <trkpt lat="45.16712" lon="5.85474">
        <ele>792.3</ele>
        <time>2020-08-01T10:15:53.000Z</time>
      </trkpt>
      <trkpt lat="45.16722" lon="5.85528">
        <ele>793.66</ele>
        <time>2020-08-01T10:15:58.000Z</time>
      </trkpt>
      <trkpt lat="45.16732" lon="5.85572">
        <ele>791.64</ele>
        <time>2020-08-01T10:16:03.000Z</time>
      </trkpt>
      <trkpt lat="45.16744" lon="5.85613">
        <ele>793.58</ele>
        <time>2020-08-01T10:16:08.000Z</time>
      </trkpt>
      <trkpt lat="45.16761" lon="5.8566">
        <ele>802.78</ele>
        <time>2020-08-01T10:16:13.000Z</time>
      </trkpt>
      <trkpt lat="45.16758" lon="5.85706">
        <ele>802.18</ele>
        <time>2020-08-01T10:16:18.000Z</time>
      </trkpt>
      <trkpt lat="45.16755" lon="5.85745">
        <ele>803.16</ele>
        <time>2020-08-01T10:16:23.000Z</time>
      </trkpt>
      <trkpt lat="45.16745" lon="5.85784">
        <ele>800.67</ele>
        <time>2020-08-01T10:16:28.000Z</time>
      </trkpt>
      <trkpt lat="45.16753" lon="5.8582">
        <ele>803.74</ele>
        <time>2020-08-01T10:16:33.000Z</time>
      </trkpt>
      <trkpt lat="45.16757" lon="5.85851">
        <ele>802.51</ele>
        <time>2020-08-01T10:16:38.000Z</time>
      </trkpt>
      <trkpt lat="45.16764" lon="5.85882">
        <ele>803.65</ele>
        <time>2020-08-01T10:16:43.000Z</time>
      </trkpt>
      <trkpt lat="45.16773" lon="5.85915">
        <ele>805.72</ele>
        <time>2020-08-01T10:16:48.000Z</time>
      </trkpt>
      <trkpt lat="45.16781" lon="5.85946">
        <ele>806.53</ele>
        <time>2020-08-01T10:16:53.000Z</time>
      </trkpt>
      <trkpt lat="45.16782" lon="5.85981">
        <ele>804.46</ele>
        <time>2020-08-01T10:16:58.000Z</time>
      </trkpt>
      <trkpt lat="45.16782" lon="5.86015">
        <ele>804.51</ele>
        <time>2020-08-01T10:17:03.000Z</time>
      </trkpt>
      <trkpt lat="45.16778" lon="5.86052">
        <ele>804.52</ele>
        <time>2020-08-01T10:17:08.000Z</time>
      </trkpt>
      <trkpt lat="45.16769" lon="5.86088">
        <ele>802.96</ele>
        <time>2020-08-01T10:17:13.000Z</time>
      </trkpt>
      <trkpt lat="45.16766" lon="5.86124">
        <ele>801.85</ele>
        <time>2020-08-01T10:17:18.000Z</time>
      </trkpt>
      <trkpt lat="45.16755" lon="5.86158">
        <ele>798.24</ele>
        <time>2020-08-01T10:17:23.000Z</time>
      </trkpt>
      <trkpt lat="45.16749" lon="5.86194">
        <ele>795.13</ele>
        <time>2020-08-01T10:17:28.000Z</time>
      </trkpt>
      <trkpt lat="45.16756" lon="5.86234">
        <ele>798.39</ele>
        <time>2020-08-01T10:17:33.000Z</time>
      </trkpt>
      <trkpt lat="45.16769" lon="5.86267">
        <ele>798.31</ele>
        <time>2020-08-01T10:17:38.000Z</time>
      </trkpt>
      <trkpt lat="45.16791" lon="5.86297">
        <ele>798.96</ele>
        <time>2020-08-01T10:17:43.000Z</time>
      </trkpt>
      <trkpt lat="45.16814" lon="5.86325">
        <ele>802</ele>
        <time>2020-08-01T10:17:48.000Z</time>
      </trkpt>
      <trkpt lat="45.16838" lon="5.86352">
        <ele>801.63</ele>
        <time>2020-08-01T10:17:53.000Z</time>
      </trkpt>
      <trkpt lat="45.16858" lon="5.86377">
        <ele>808.6</ele>
        <time>2020-08-01T10:17:58.000Z</time>
      </trkpt>
      <trkpt lat="45.16862" lon="5.86413">
        <ele>804.66</ele>
        <time>2020-08-01T10:18:03.000Z</time>
      </trkpt>
      <trkpt lat="45.16869" lon="5.86451">
        <ele>804.96</ele>
        <time>2020-08-01T10:18:08.000Z</time>
      </trkpt>
      <trkpt lat="45.16883" lon="5.86489">
        <ele>808.56</ele>
        <time>2020-08-01T10:18:13.000Z</time>
      </trkpt>
      <trkpt lat="45.16893" lon="5.86524">
        <ele>810.2</ele>
        <time>2020-08-01T10:18:18.000Z</time>
      </trkpt>
      <trkpt lat="45.16905" lon="5.8656">
        <ele>809.44</ele>
        <time>2020-08-01T10:18:23.000Z</time>
      </trkpt>
      <trkpt lat="45.16919" lon="5.86598">
        <ele>809.6</ele>
        <time>2020-08-01T10:18:28.000Z</time>
      </trkpt>
      <trkpt lat="45.16936" lon="5.86633">
        <ele>806.68</ele>
        <time>2020-08-01T10:18:33.000Z</time>
      </trkpt>
      <trkpt lat="45.16952" lon="5.86671">
        <ele>807.92</ele>
        <time>2020-08-01T10:18:38.000Z</time>
      </trkpt>
      <trkpt lat="45.1697" lon="5.86708">
        <ele>807.59</ele>
        <time>2020-08-01T10:18:43.000Z</time>
      </trkpt>
      <trkpt lat="45.16983" lon="5.86745">
        <ele>803.72</ele>
        <time>2020-08-01T10:18:48.000Z</time>
      </trkpt>
      <trkpt lat="45.17" lon="5.86782">
        <ele>806.35</ele>
        <time>2020-08-01T10:18:53.000Z</time>
      </trkpt>
      <trkpt lat="45.17016" lon="5.86818">
        <ele>810.25</ele>
        <time>2020-08-01T10:18:58.000Z</time>
      </trkpt>
      <trkpt lat="45.1703" lon="5.86847">
        <ele>812.99</ele>
        <time>2020-08-01T10:19:03.000Z</time>
      </trkpt>
      <trkpt lat="45.1704" lon="5.86875">
        <ele>816.09</ele>
        <time>2020-08-01T10:19:08.000Z</time>
      </trkpt>
      <trkpt lat="45.17054" lon="5.86903">
        <ele>818.72</ele>
        <time>2020-08-01T10:19:13.000Z</time>
      </trkpt>
      <trkpt lat="45.17067" lon="5.86933">
        <ele>819.81</ele>
        <time>2020-08-01T10:19:18.000Z</time>
      </trkpt>
      <trkpt lat="45.17081" lon="5.86966">
        <ele>819.84</ele>
        <time>2020-08-01T10:19:23.000Z</time>
      </trkpt>
      <trkpt lat="45.17096" lon="5.87002">
        <ele>819.08</ele>
        <time>2020-08-01T10:19:28.000Z</time>
      </trkpt>
      <trkpt lat="45.17111" lon="5.87041">
        <ele>818.69</ele>
        <time>2020-08-01T10:19:33.000Z</time>
      </trkpt>
      <trkpt lat="45.17131" lon="5.87072">
        <ele>820.67</ele>
        <time>2020-08-01T10:19:38.000Z</time>
      </trkpt>
      <trkpt lat="45.17141" lon="5.87096">
        <ele>823.03</ele>
        <time>2020-08-01T10:19:43.000Z</time>
      </trkpt>
      <trkpt lat="45.17155" lon="5.87124">
        <ele>825.06</ele>
        <time>2020-08-01T10:19:48.000Z</time>
      </trkpt>
      <trkpt lat="45.17165" lon="5.87151">
        <ele>826.95</ele>
        <time>2020-08-01T10:19:53.000Z</time>
      </trkpt>
      <trkpt lat="45.17174" lon="5.87181">
        <ele>829.56</ele>
        <time>2020-08-01T10:19:58.000Z</time>
      </trkpt>
      <trkpt lat="45.1718" lon="5.87215">
        <ele>831.11</ele>
        <time>2020-08-01T10:20:03.000Z</time>
      </trkpt>
      <trkpt lat="45.17186" lon="5.87247">
        <ele>831.57</ele>
        <time>2020-08-01T10:20:08.000Z</time>
      </trkpt>
      <trkpt lat="45.17197" lon="5.8728">
        <ele>833.94</ele>
        <time>2020-08-01T10:20:13.000Z</time>
      </trkpt>
      <trkpt lat="45.17202" lon="5.87316">
        <ele>836.35</ele>
        <time>2020-08-01T10:20:18.000Z</time>
      </trkpt>
      <trkpt lat="45.17216" lon="5.87354">
        <ele>836.12</ele>
        <time>2020-08-01T10:20:23.000Z</time>
      </trkpt>
      <trkpt lat="45.17231" lon="5.87383">
        <ele>836.65</ele>
        <time>2020-08-01T10:20:28.000Z</time>
      </trkpt>
      <trkpt lat="45.17246" lon="5.87404">
        <ele>838.91</ele>
        <time>2020-08-01T10:20:33.000Z</time>
      </trkpt>
      <trkpt lat="45.17268" lon="5.87423">
        <ele>840.82</ele>
        <time>2020-08-01T10:20:38.000Z</time>
      </trkpt>
      <trkpt lat="45.17288" lon="5.87435">
        <ele>841.01</ele>
        <time>2020-08-01T10:20:43.000Z</time>
      </trkpt>
      <trkpt lat="45.17313" lon="5.87453">
        <ele>844.81</ele>
        <time>2020-08-01T10:20:48.000Z</time>
      </trkpt>
      <trkpt lat="45.17329" lon="5.87476">
        <ele>846.41</ele>
        <time>2020-08-01T10:20:53.000Z</time>
      </trkpt>
      <trkpt lat="45.17343" lon="5.87507">
        <ele>844.82</ele>
        <time>2020-08-01T10:20:58.000Z</time>
      </trkpt>
      <trkpt lat="45.17354" lon="5.87538">
        <ele>844.54</ele>
        <time>2020-08-01T10:21:03.000Z</time>
      </trkpt>
      <trkpt lat="45.17362" lon="5.87572">
        <ele>844.56</ele>
        <time>2020-08-01T10:21:08.000Z</time>
      </trkpt>
      <trkpt lat="45.17369" lon="5.87604">
        <ele>844.64</ele>
        <time>2020-08-01T10:21:13.000Z</time>
      </trkpt>
      <trkpt lat="45.17369" lon="5.87633">
        <ele>845.25</ele>
        <time>2020-08-01T10:21:18.000Z</time>
      </trkpt>
      <trkpt lat="45.17363" lon="5.87652">
        <ele>841.77</ele>
        <time>2020-08-01T10:21:23.000Z</time>
      </trkpt>
      <trkpt lat="45.17354" lon="5.87666">
        <ele>838.89</ele>
        <time>2020-08-01T10:21:28.000Z</time>
      </trkpt>
      <trkpt lat="45.17356" lon="5.87681">
        <ele>837.99</ele>
        <time>2020-08-01T10:25:22.000Z</time>
      </trkpt>
      <trkpt lat="45.1735" lon="5.87695">
        <ele>832.8</ele>
        <time>2020-08-01T10:25:27.000Z</time>
      </trkpt>
      <trkpt lat="45.17338" lon="5.87715">
        <ele>831.98</ele>
        <time>2020-08-01T10:25:32.000Z</time>
      </trkpt>
      <trkpt lat="45.17324" lon="5.8774">
        <ele>830.38</ele>
        <time>2020-08-01T10:25:37.000Z</time>
      </trkpt>
      <trkpt lat="45.17311" lon="5.87766">
        <ele>830.14</ele>
        <time>2020-08-01T10:25:42.000Z</time>
      </trkpt>
      <trkpt lat="45.17293" lon="5.87794">
        <ele>830.33</ele>
        <time>2020-08-01T10:25:47.000Z</time>
      </trkpt>
      <trkpt lat="45.17274" lon="5.87825">
        <ele>830.79</ele>
        <time>2020-08-01T10:25:52.000Z</time>
      </trkpt>
      <trkpt lat="45.17257" lon="5.87855">
        <ele>830</ele>
        <time>2020-08-01T10:25:57.000Z</time>
      </trkpt>
      <trkpt lat="45.17238" lon="5.87881">
        <ele>829.88</ele>
        <time>2020-08-01T10:26:02.000Z</time>
      </trkpt>
      <trkpt lat="45.17222" lon="5.87912">
        <ele>830.32</ele>
        <time>2020-08-01T10:26:07.000Z</time>
      </trkpt>
      <trkpt lat="45.17203" lon="5.8794">
        <ele>830.97</ele>
        <time>2020-08-01T10:26:12.000Z</time>
      </trkpt>
      <trkpt lat="45.1718" lon="5.8798">
        <ele>828.2</ele>
        <time>2020-08-01T10:26:17.000Z</time>
      </trkpt>
      <trkpt lat="45.17153" lon="5.88033">
        <ele>824.14</ele>
        <time>2020-08-01T10:26:22.000Z</time>
      </trkpt>
      <trkpt lat="45.17113" lon="5.88087">
        <ele>818.23</ele>
        <time>2020-08-01T10:26:27.000Z</time>
      </trkpt>
      <trkpt lat="45.17062" lon="5.88135">
        <ele>815.49</ele>
        <time>2020-08-01T10:26:32.000Z</time>
      </trkpt>
      <trkpt lat="45.1701" lon="5.88171">
        <ele>812.99</ele>
        <time>2020-08-01T10:26:37.000Z</time>
      </trkpt>
      <trkpt lat="45.16952" lon="5.88212">
        <ele>809.53</ele>
        <time>2020-08-01T10:26:42.000Z</time>
      </trkpt>
      <trkpt lat="45.16885" lon="5.88259">
        <ele>806.47</ele>
        <time>2020-08-01T10:26:47.000Z</time>
      </trkpt>
      <trkpt lat="45.16825" lon="5.88305">
        <ele>803.17</ele>
        <time>2020-08-01T10:26:52.000Z</time>
      </trkpt>
      <trkpt lat="45.16793" lon="5.88387">
        <ele>800.16</ele>
        <time>2020-08-01T10:26:57.000Z</time>
      </trkpt>
      <trkpt lat="45.16768" lon="5.88455">
        <ele>796.92</ele>
        <time>2020-08-01T10:27:02.000Z</time>
      </trkpt>
      <trkpt lat="45.16726" lon="5.88476">
        <ele>792.69</ele>
        <time>2020-08-01T10:27:07.000Z</time>
      </trkpt>
      <trkpt lat="45.16684" lon="5.88467">
        <ele>793.08</ele>
        <time>2020-08-01T10:27:12.000Z</time>
      </trkpt>
      <trkpt lat="45.16645" lon="5.88471">
        <ele>791.83</ele>
        <time>2020-08-01T10:27:17.000Z</time>
      </trkpt>
      <trkpt lat="45.16604" lon="5.88493">
        <ele>791.03</ele>
        <time>2020-08-01T10:27:22.000Z</time>
      </trkpt>
      <trkpt lat="45.16558" lon="5.88511">
        <ele>786.77</ele>
        <time>2020-08-01T10:27:27.000Z</time>
      </trkpt>
      <trkpt lat="45.1651" lon="5.88526">
        <ele>781.32</ele>
        <time>2020-08-01T10:27:32.000Z</time>
      </trkpt>
      <trkpt lat="45.16505" lon="5.88593">
        <ele>778.3</ele>
        <time>2020-08-01T10:27:37.000Z</time>
      </trkpt>
      <trkpt lat="45.16513" lon="5.88649">
        <ele>776.22</ele>
        <time>2020-08-01T10:27:42.000Z</time>
      </trkpt>
      <trkpt lat="45.16531" lon="5.88695">
        <ele>778.56</ele>
        <time>2020-08-01T10:27:47.000Z</time>
      </trkpt>
      <trkpt lat="45.16559" lon="5.88723">
        <ele>779.17</ele>
        <time>2020-08-01T10:27:52.000Z</time>
      </trkpt>
      <trkpt lat="45.16591" lon="5.88731">
        <ele>784.13</ele>
        <time>2020-08-01T10:27:57.000Z</time>
      </trkpt>
      <trkpt lat="45.16617" lon="5.88739">
        <ele>783.74</ele>
        <time>2020-08-01T10:28:02.000Z</time>
      </trkpt>
      <trkpt lat="45.16646" lon="5.8874">
        <ele>789.91</ele>
        <time>2020-08-01T10:28:07.000Z</time>
      </trkpt>
      <trkpt lat="45.1667" lon="5.88744">
        <ele>791.14</ele>
        <time>2020-08-01T10:28:12.000Z</time>
      </trkpt>
      <trkpt lat="45.16698" lon="5.88746">
        <ele>790.66</ele>
        <time>2020-08-01T10:28:17.000Z</time>
      </trkpt>
      <trkpt lat="45.1672" lon="5.88745">
        <ele>792.94</ele>
        <time>2020-08-01T10:28:22.000Z</time>
      </trkpt>
      <trkpt lat="45.16744" lon="5.88746">
        <ele>794.55</ele>
        <time>2020-08-01T10:28:27.000Z</time>
      </trkpt>
      <trkpt lat="45.16765" lon="5.88738">
        <ele>794.05</ele>
        <time>2020-08-01T10:28:32.000Z</time>
      </trkpt>
      <trkpt lat="45.16785" lon="5.88729">
        <ele>794.36</ele>
        <time>2020-08-01T10:28:37.000Z</time>
      </trkpt>
      <trkpt lat="45.16808" lon="5.88725">
        <ele>794.31</ele>
        <time>2020-08-01T10:28:42.000Z</time>
      </trkpt>
      <trkpt lat="45.16834" lon="5.88708">
        <ele>799.97</ele>
        <time>2020-08-01T10:28:47.000Z</time>
      </trkpt>
      <trkpt lat="45.16862" lon="5.88707">
        <ele>795.84</ele>
        <time>2020-08-01T10:28:52.000Z</time>
      </trkpt>
      <trkpt lat="45.16888" lon="5.88707">
        <ele>796.28</ele>
        <time>2020-08-01T10:28:57.000Z</time>
      </trkpt>
      <trkpt lat="45.16917" lon="5.88704">
        <ele>795.61</ele>
        <time>2020-08-01T10:29:02.000Z</time>
      </trkpt>
      <trkpt lat="45.16943" lon="5.88694">
        <ele>795.67</ele>
        <time>2020-08-01T10:29:07.000Z</time>
      </trkpt>
      <trkpt lat="45.16972" lon="5.88681">
        <ele>796.84</ele>
        <time>2020-08-01T10:29:12.000Z</time>
      </trkpt>
      <trkpt lat="45.16999" lon="5.88675">
        <ele>795.19</ele>
        <time>2020-08-01T10:29:17.000Z</time>
      </trkpt>
      <trkpt lat="45.1703" lon="5.88671">
        <ele>794.27</ele>
        <time>2020-08-01T10:29:22.000Z</time>
      </trkpt>
      <trkpt lat="45.17056" lon="5.887">
        <ele>792.97</ele>
        <time>2020-08-01T10:29:27.000Z</time>
      </trkpt>
      <trkpt lat="45.17083" lon="5.88723">
        <ele>791.82</ele>
        <time>2020-08-01T10:29:32.000Z</time>
      </trkpt>
      <trkpt lat="45.17117" lon="5.8871">
        <ele>789.71</ele>
        <time>2020-08-01T10:29:37.000Z</time>
      </trkpt>
      <trkpt lat="45.17148" lon="5.88688">
        <ele>789.39</ele>
        <time>2020-08-01T10:29:42.000Z</time>
      </trkpt>
      <trkpt lat="45.17179" lon="5.88659">
        <ele>787.67</ele>
        <time>2020-08-01T10:29:47.000Z</time>
      </trkpt>
      <trkpt lat="45.17203" lon="5.88625">
        <ele>785.71</ele>
        <time>2020-08-01T10:29:52.000Z</time>
      </trkpt>
      <trkpt lat="45.17227" lon="5.88598">
        <ele>781.15</ele>
        <time>2020-08-01T10:29:57.000Z</time>
      </trkpt>
      <trkpt lat="45.17255" lon="5.88581">
        <ele>778.89</ele>
        <time>2020-08-01T10:30:02.000Z</time>
      </trkpt>
      <trkpt lat="45.17281" lon="5.88579">
        <ele>779.89</ele>
        <time>2020-08-01T10:30:07.000Z</time>
      </trkpt>
      <trkpt lat="45.17312" lon="5.88583">
        <ele>775.75</ele>
        <time>2020-08-01T10:30:12.000Z</time>
      </trkpt>
      <trkpt lat="45.17347" lon="5.88583">
        <ele>778.92</ele>
        <time>2020-08-01T10:30:17.000Z</time>
      </trkpt>
      <trkpt lat="45.17381" lon="5.88588">
        <ele>778.18</ele>
        <time>2020-08-01T10:30:22.000Z</time>
      </trkpt>
      <trkpt lat="45.17412" lon="5.88586">
        <ele>777.38</ele>
        <time>2020-08-01T10:30:27.000Z</time>
      </trkpt>
      <trkpt lat="45.17443" lon="5.8859">
        <ele>776.14</ele>
        <time>2020-08-01T10:30:32.000Z</time>
      </trkpt>
      <trkpt lat="45.17475" lon="5.88595">
        <ele>773.38</ele>
        <time>2020-08-01T10:30:37.000Z</time>
      </trkpt>
      <trkpt lat="45.17491" lon="5.88595">
        <ele>771.57</ele>
        <time>2020-08-01T10:30:42.000Z</time>
      </trkpt>
      <trkpt lat="45.175" lon="5.88587">
        <ele>774.41</ele>
        <time>2020-08-01T10:31:08.000Z</time>
      </trkpt>
      <trkpt lat="45.17518" lon="5.88578">
        <ele>774.73</ele>
        <time>2020-08-01T10:31:13.000Z</time>
      </trkpt>
      <trkpt lat="45.17538" lon="5.88552">
        <ele>773.7</ele>
        <time>2020-08-01T10:31:18.000Z</time>
      </trkpt>
      <trkpt lat="45.17561" lon="5.88523">
        <ele>773.31</ele>
        <time>2020-08-01T10:31:23.000Z</time>
      </trkpt>
      <trkpt lat="45.17594" lon="5.88495">
        <ele>772.69</ele>
        <time>2020-08-01T10:31:28.000Z</time>
      </trkpt>
      <trkpt lat="45.17628" lon="5.88483">
        <ele>773.45</ele>
        <time>2020-08-01T10:31:33.000Z</time>
      </trkpt>
      <trkpt lat="45.17666" lon="5.88498">
        <ele>772.23</ele>
        <time>2020-08-01T10:31:38.000Z</time>
      </trkpt>
      <trkpt lat="45.17709" lon="5.88522">
        <ele>769.71</ele>
        <time>2020-08-01T10:31:43.000Z</time>
      </trkpt>
      <trkpt lat="45.17748" lon="5.88534">
        <ele>767.45</ele>
        <time>2020-08-01T10:31:48.000Z</time>
      </trkpt>
      <trkpt lat="45.17784" lon="5.88541">
        <ele>768.19</ele>
        <time>2020-08-01T10:31:53.000Z</time>
      </trkpt>
      <trkpt lat="45.1782" lon="5.8854">
        <ele>766.26</ele>
        <time>2020-08-01T10:31:58.000Z</time>
      </trkpt>
      <trkpt lat="45.1785" lon="5.8853">
        <ele>765.64</ele>
        <time>2020-08-01T10:32:03.000Z</time>
      </trkpt>
      <trkpt lat="45.17878" lon="5.88513">
        <ele>763.19</ele>
        <time>2020-08-01T10:32:08.000Z</time>
      </trkpt>
      <trkpt lat="45.17909" lon="5.88493">
        <ele>762.89</ele>
        <time>2020-08-01T10:32:13.000Z</time>
      </trkpt>
      <trkpt lat="45.17942" lon="5.88472">
        <ele>762.03</ele>
        <time>2020-08-01T10:32:18.000Z</time>
      </trkpt>
      <trkpt lat="45.17976" lon="5.8845">
        <ele>761.75</ele>
        <time>2020-08-01T10:32:23.000Z</time>
      </trkpt>
      <trkpt lat="45.1801" lon="5.8843">
        <ele>758.78</ele>
        <time>2020-08-01T10:32:28.000Z</time>
      </trkpt>
      <trkpt lat="45.18042" lon="5.88405">
        <ele>758.54</ele>
        <time>2020-08-01T10:32:33.000Z</time>
      </trkpt>
      <trkpt lat="45.18053" lon="5.88356">
        <ele>755.96</ele>
        <time>2020-08-01T10:32:38.000Z</time>
      </trkpt>
      <trkpt lat="45.18071" lon="5.88301">
        <ele>753.14</ele>
        <time>2020-08-01T10:32:43.000Z</time>
      </trkpt>
      <trkpt lat="45.18096" lon="5.88246">
        <ele>747.91</ele>
        <time>2020-08-01T10:32:48.000Z</time>
      </trkpt>
      <trkpt lat="45.18129" lon="5.88201">
        <ele>750.41</ele>
        <time>2020-08-01T10:32:53.000Z</time>
      </trkpt>
      <trkpt lat="45.1816" lon="5.88157">
        <ele>749.6</ele>
        <time>2020-08-01T10:32:58.000Z</time>
      </trkpt>
      <trkpt lat="45.18182" lon="5.8812">
        <ele>747.46</ele>
        <time>2020-08-01T10:33:03.000Z</time>
      </trkpt>
      <trkpt lat="45.18204" lon="5.8809">
        <ele>747.5</ele>
        <time>2020-08-01T10:33:08.000Z</time>
      </trkpt>
      <trkpt lat="45.18226" lon="5.88061">
        <ele>748.5</ele>
        <time>2020-08-01T10:33:13.000Z</time>
      </trkpt>
      <trkpt lat="45.18241" lon="5.88029">
        <ele>744.99</ele>
        <time>2020-08-01T10:33:18.000Z</time>
      </trkpt>
      <trkpt lat="45.18251" lon="5.87993">
        <ele>745.67</ele>
        <time>2020-08-01T10:33:23.000Z</time>
      </trkpt>
      <trkpt lat="45.18261" lon="5.87939">
        <ele>745.6</ele>
        <time>2020-08-01T10:33:28.000Z</time>
      </trkpt>
      <trkpt lat="45.1826" lon="5.87879">
        <ele>742.1</ele>
        <time>2020-08-01T10:33:33.000Z</time>
      </trkpt>
      <trkpt lat="45.18272" lon="5.87811">
        <ele>738.86</ele>
        <time>2020-08-01T10:33:38.000Z</time>
      </trkpt>
      <trkpt lat="45.18286" lon="5.87747">
        <ele>732.61</ele>
        <time>2020-08-01T10:33:43.000Z</time>
      </trkpt>
      <trkpt lat="45.18298" lon="5.87703">
        <ele>728.67</ele>
        <time>2020-08-01T10:33:48.000Z</time>
      </trkpt>
      <trkpt lat="45.18295" lon="5.87687">
        <ele>724.84</ele>
        <time>2020-08-01T10:33:53.000Z</time>
      </trkpt>
      <trkpt lat="45.183" lon="5.87659">
        <ele>723.87</ele>
        <time>2020-08-01T10:33:58.000Z</time>
      </trkpt>
      <trkpt lat="45.18304" lon="5.87629">
        <ele>720.91</ele>
        <time>2020-08-01T10:34:03.000Z</time>
      </trkpt>
      <trkpt lat="45.18314" lon="5.87599">
        <ele>719.44</ele>
        <time>2020-08-01T10:34:08.000Z</time>
      </trkpt>
      <trkpt lat="45.18324" lon="5.87568">
        <ele>715.86</ele>
        <time>2020-08-01T10:34:13.000Z</time>
      </trkpt>
      <trkpt lat="45.18332" lon="5.87538">
        <ele>716.37</ele>
        <time>2020-08-01T10:34:18.000Z</time>
      </trkpt>
      <trkpt lat="45.1834" lon="5.87508">
        <ele>716.11</ele>
        <time>2020-08-01T10:34:23.000Z</time>
      </trkpt>
      <trkpt lat="45.18346" lon="5.87481">
        <ele>712.4</ele>
        <time>2020-08-01T10:34:28.000Z</time>
      </trkpt>
      <trkpt lat="45.18356" lon="5.87465">
        <ele>710.66</ele>
        <time>2020-08-01T10:34:33.000Z</time>
      </trkpt>
      <trkpt lat="45.1837" lon="5.8744">
        <ele>707.02</ele>
        <time>2020-08-01T10:34:38.000Z</time>
      </trkpt>
      <trkpt lat="45.18374" lon="5.87409">
        <ele>704.17</ele>
        <time>2020-08-01T10:34:43.000Z</time>
      </trkpt>
      <trkpt lat="45.18385" lon="5.87389">
        <ele>698.48</ele>
        <time>2020-08-01T10:34:48.000Z</time>
      </trkpt>
      <trkpt lat="45.18379" lon="5.87379">
        <ele>696.11</ele>
        <time>2020-08-01T10:34:55.000Z</time>
      </trkpt>
      <trkpt lat="45.18379" lon="5.87378">
        <ele>695.83</ele>
        <time>2020-08-01T10:35:31.000Z</time>
      </trkpt>
    </trkseg>
  </trk>
</gpx>